GFSFLT2_sfc_wetblb_003.txt.gz
Wetbulb
54.74 54.54 53.71 52.81 51.68 55.99 52.52 54.17 51.26 53.50 56.48 59.66 62.04 62.35 62.48 62.63 62.98 63.57 67.93 70.00 70.12 70.59 72.18 73.95 74.55 76.44 77.55 78.83 80.03 80.77 78.85 81.42
53.78 54.72 53.93 52.48 55.73 51.31 53.35 48.43 47.46 51.42 53.33 54.14 58.77 59.55 60.80 62.02 62.34 63.81 66.39 69.96 70.31 70.35 71.41 73.62 73.97 75.68 77.69 79.01 79.77 79.55 80.00 80.54
54.32 51.78 50.68 50.81 51.10 53.69 53.97 52.84 48.79 48.25 52.17 59.20 60.15 61.45 60.73 61.88 62.57 63.77 66.19 69.25 70.54 70.51 71.16 72.68 73.26 74.68 75.89 77.26 78.96 79.35 79.95 79.84
51.82 54.81 55.02 53.30 51.90 52.40 51.27 51.63 52.35 52.46 52.23 60.07 60.58 60.93 61.50 62.17 62.97 64.26 66.63 68.95 70.50 70.91 70.99 71.51 73.35 73.29 74.01 75.28 75.78 77.95 79.66 80.55
50.42 52.79 54.17 51.78 52.52 53.02 53.31 54.78 54.11 50.26 51.91 60.16 60.62 61.03 62.28 61.96 62.82 64.19 66.23 67.97 70.16 70.59 71.65 71.79 72.55 73.60 73.25 74.92 74.63 76.17 78.71 78.55
48.69 51.15 52.59 50.25 50.90 51.89 51.96 50.42 51.81 51.81 54.38 58.15 59.51 59.86 60.85 62.04 63.05 64.62 65.57 69.48 69.79 70.87 72.28 72.98 73.77 74.35 74.65 74.54 74.40 75.28 76.65 77.09
53.24 53.81 53.70 51.87 50.33 50.74 50.09 52.03 50.63 53.22 53.99 57.51 60.02 60.55 61.18 61.85 62.73 62.99 64.09 68.32 70.64 71.33 74.52 75.35 74.84 75.64 76.02 75.53 76.61 76.40 77.93 77.26
51.58 53.04 52.65 51.27 52.48 51.40 51.12 51.12 51.80 52.74 53.32 58.62 60.55 62.29 61.50 61.54 62.25 62.31 63.16 64.64 70.34 72.19 73.38 76.07 76.03 76.91 77.01 76.96 77.51 78.02 78.85 78.41
50.72 54.01 53.54 49.95 52.17 52.74 53.36 53.61 52.30 49.96 54.07 57.24 58.17 60.37 62.01 61.94 62.20 62.91 65.15 65.92 68.82 71.78 73.31 75.10 75.37 77.72 77.35 78.05 78.39 78.75 79.48 79.60
50.39 53.21 45.36 53.80 58.18 56.54 54.29 54.89 55.40 54.84 55.62 56.80 59.71 62.25 63.16 62.57 62.50 64.19 65.88 66.33 67.97 71.13 73.46 76.02 75.61 75.54 77.08 77.27 78.88 79.27 79.32 79.55
49.27 49.61 52.43 54.09 57.12 56.96 56.90 56.21 57.68 56.71 56.56 56.51 58.72 59.57 61.55 63.13 63.36 64.73 65.32 67.12 69.20 72.53 74.01 77.75 76.76 78.29 78.21 77.09 77.92 78.27 77.48 78.97
52.14 47.65 46.42 53.76 59.04 61.16 60.01 52.82 58.64 58.67 58.15 56.23 57.73 55.99 58.74 63.18 65.77 67.48 68.24 67.75 71.08 73.10 74.64 75.63 77.24 76.47 76.90 75.31 76.21 76.96 77.54 78.15
49.53 49.20 51.83 58.49 59.74 61.25 51.08 54.19 63.56 63.73 63.33 61.94 56.73 60.30 66.99 68.57 67.84 68.82 68.56 72.05 73.99 74.03 75.18 76.38 77.29 75.49 75.82 75.53 74.81 75.91 76.71 76.85
50.09 48.19 46.37 60.18 59.48 55.09 60.46 63.45 64.15 64.51 64.64 65.04 60.91 65.75 67.16 67.79 68.85 69.32 69.99 71.74 72.35 73.24 74.18 74.97 76.29 75.97 75.76 76.05 77.57 78.10 77.56 76.44
51.96 51.95 60.52 62.08 61.58 62.91 63.73 63.59 64.52 64.88 65.35 65.76 66.06 66.48 67.50 68.78 69.92 70.44 70.76 71.36 71.76 71.39 73.69 74.45 76.45 76.72 76.41 78.56 78.60 77.75 76.96 74.56
55.81 58.01 59.16 60.83 62.15 62.97 63.34 63.02 64.40 66.19 66.37 66.90 66.41 67.41 67.52 67.82 67.97 68.01 69.03 70.38 71.00 71.64 72.49 73.72 76.09 75.60 76.93 76.83 77.21 76.52 73.45 72.39
56.09 58.12 58.61 59.06 60.19 60.99 61.70 63.26 63.29 64.08 64.53 65.26 65.66 65.85 66.93 67.86 68.71 68.91 69.35 70.03 70.91 71.27 71.86 72.77 74.51 75.23 75.23 75.81 76.16 73.21 71.67 71.39
53.38 59.07 57.79 56.32 58.44 59.70 58.78 58.83 60.06 60.81 61.48 63.57 64.86 65.03 66.84 67.61 68.87 69.08 69.45 70.16 70.75 71.05 72.09 73.07 73.71 74.16 74.41 74.82 74.71 73.40 71.63 71.75
55.16 58.95 56.02 56.22 56.92 56.66 56.13 55.96 57.93 58.55 59.63 59.79 61.33 62.08 62.22 63.42 65.00 62.58 68.53 69.47 69.91 70.42 71.42 72.64 73.27 73.61 73.37 74.35 74.40 72.80 71.76 71.70

GFSFLT2_sfc_wetblb_006.txt.gz
Wetbulb
54.31 55.08 53.23 51.35 49.32 53.73 50.49 52.08 49.82 52.38 55.57 58.41 61.53 62.79 62.49 62.34 64.61 65.24 68.33 69.75 70.06 71.54 72.36 73.35 73.62 74.62 75.63 77.17 77.91 78.83 79.05 78.87
54.53 54.97 54.61 52.22 54.37 48.33 50.13 46.01 45.90 50.36 52.89 54.79 59.14 61.50 63.15 63.39 63.32 64.27 65.83 69.81 70.57 70.86 72.83 73.62 74.40 74.87 76.46 77.07 78.06 79.24 79.08 79.10
54.46 52.22 50.86 50.50 49.63 50.89 51.58 51.28 48.20 47.74 51.47 60.51 61.84 63.50 63.49 63.79 63.73 64.01 65.22 68.85 69.73 71.23 72.13 73.92 74.80 74.88 75.56 76.18 77.68 78.56 79.04 78.88
50.67 55.00 55.02 53.29 51.51 50.93 47.61 49.24 51.29 51.04 51.97 59.78 62.80 63.26 62.72 63.42 63.68 64.91 65.44 67.52 69.60 71.55 71.48 72.70 73.52 74.15 75.05 76.11 77.29 78.12 78.63 78.82
48.46 52.22 54.73 51.77 52.06 51.90 51.05 51.78 50.74 48.78 51.09 59.91 62.32 63.45 64.43 63.52 64.23 66.32 69.07 69.51 69.80 70.83 71.23 71.66 72.40 73.27 74.43 75.59 76.57 78.26 78.27 78.26
47.81 50.31 53.09 51.73 51.65 52.32 51.21 47.81 49.47 50.60 54.27 57.54 60.58 61.24 62.95 64.29 65.15 65.91 69.82 71.15 70.25 70.37 71.78 71.55 72.33 72.94 73.76 74.85 75.98 77.13 77.57 77.61
51.91 52.40 53.32 52.68 51.59 51.51 50.83 51.79 49.54 51.82 52.72 58.02 59.84 62.11 61.85 63.77 65.77 66.38 68.34 69.79 71.63 72.52 72.87 72.24 72.67 72.85 73.28 74.03 74.53 75.37 76.32 77.07
51.01 53.04 52.61 51.91 52.98 52.08 51.60 52.05 52.23 52.65 52.65 57.97 60.69 61.62 63.66 63.38 64.68 64.79 65.94 66.75 71.01 72.05 74.76 75.32 73.43 72.93 72.94 73.22 73.59 74.95 75.07 75.74
48.89 52.16 52.10 49.17 52.49 52.92 52.91 52.63 52.29 50.09 54.34 58.51 58.10 60.24 62.90 65.02 64.46 64.84 65.70 66.61 69.89 72.75 73.29 74.53 75.02 74.00 72.94 73.29 74.38 74.29 75.20 75.99
49.94 52.15 43.70 52.52 56.02 55.11 53.58 54.36 54.62 54.79 56.32 57.82 58.72 60.36 61.49 62.26 63.21 63.74 66.18 66.05 67.26 65.77 73.59 75.41 76.09 74.98 74.96 74.72 74.87 74.50 77.15 76.30
48.94 48.79 51.67 53.04 55.60 55.57 54.06 54.28 57.66 56.53 58.57 57.52 59.22 59.49 59.96 61.84 62.52 63.81 64.14 68.93 68.01 66.55 70.07 75.33 75.76 75.92 76.41 75.22 74.82 77.13 76.31 77.53
50.88 46.11 45.40 54.36 58.52 60.92 59.62 52.30 61.79 62.28 61.67 61.03 60.67 54.74 56.87 63.01 63.98 63.35 63.48 65.33 70.86 71.42 72.03 76.14 76.38 76.47 75.93 76.13 75.58 74.96 77.12 78.03
48.87 47.39 50.40 57.05 59.19 60.15 51.10 53.93 62.43 63.03 63.22 63.05 61.17 63.63 66.70 69.11 71.04 70.67 66.38 68.78 73.28 76.15 75.11 76.44 77.20 77.04 75.74 76.15 76.02 76.83 78.98 78.95
50.00 48.49 46.11 60.21 58.43 54.40 60.18 62.99 62.97 63.09 63.71 63.68 65.94 66.35 66.69 67.52 69.43 70.52 70.54 70.26 73.95 77.54 77.47 77.86 78.07 77.35 76.93 76.97 78.70 79.34 78.65 78.74
49.82 50.70 58.81 62.62 62.51 63.58 63.81 62.99 64.05 65.13 65.05 64.69 64.28 65.42 67.22 68.17 69.20 70.51 70.60 73.65 73.84 75.30 76.91 78.06 78.44 77.12 76.25 77.46 77.78 77.52 77.18 77.19
51.79 56.12 59.85 61.55 62.48 63.11 63.92 63.84 64.53 64.84 65.05 65.95 66.70 66.84 67.35 68.65 69.71 71.27 72.67 73.20 73.70 73.80 74.04 75.06 76.19 76.94 77.34 77.55 77.56 76.86 76.10 74.52
53.12 59.95 60.15 60.93 62.06 62.77 62.66 63.65 63.33 62.62 62.21 62.44 64.52 64.68 67.04 68.59 69.53 70.97 71.53 72.09 73.80 74.12 74.62 75.39 77.06 76.32 77.22 77.75 77.37 74.73 73.30 72.45
52.79 59.41 58.79 58.47 60.93 60.74 60.06 60.55 61.28 60.75 60.46 62.01 62.28 62.61 63.59 65.38 66.50 67.11 68.19 69.57 70.42 73.20 73.64 73.69 75.03 75.54 76.37 76.65 75.17 73.35 71.54 71.26
51.23 56.03 54.56 56.96 57.24 58.22 57.72 57.65 58.72 59.17 60.35 59.64 60.93 63.20 61.56 62.49 63.00 62.72 67.09 70.46 72.02 72.71 73.56 73.92 73.77 73.73 75.12 75.59 74.17 73.32 71.53 71.68

GFSFLT2_sfc_wetblb_012.txt.gz
Wetbulb
49.51 49.97 49.08 45.60 39.67 45.43 38.26 38.50 37.45 41.51 44.95 49.54 52.83 57.01 60.76 61.53 61.88 62.51 63.07 63.54 65.15 66.82 67.64 68.09 68.57 69.69 70.82 71.86 71.97 72.59 73.10 72.56
48.99 49.51 49.53 46.18 46.63 40.72 35.75 35.09 35.51 38.93 41.06 45.76 48.78 51.55 55.96 59.61 61.15 62.83 63.55 63.67 65.03 65.86 67.63 68.82 69.21 70.31 71.67 72.43 72.20 73.24 73.91 73.53
45.90 44.73 45.16 45.31 43.28 39.00 40.93 39.95 37.47 33.68 41.30 47.37 49.30 51.53 54.09 59.78 62.60 63.22 63.95 64.29 64.57 65.45 67.81 68.95 69.62 70.61 71.60 72.25 72.19 72.98 73.93 73.90
44.20 47.48 49.71 49.29 45.60 42.45 41.22 36.56 39.60 42.12 42.34 50.26 51.27 52.47 56.07 58.64 61.58 64.48 64.87 64.00 65.12 65.45 66.79 68.04 69.09 70.56 71.15 72.53 72.63 73.32 74.28 74.29
39.09 43.16 43.48 43.94 46.76 46.29 38.83 38.75 40.49 37.94 39.65 49.42 50.08 50.28 56.31 58.20 59.21 60.73 60.78 61.56 62.44 65.17 66.30 67.62 68.90 69.83 71.20 72.29 73.25 74.02 74.29 74.17
40.88 42.88 44.03 42.11 45.75 46.14 44.54 42.12 41.20 41.64 41.35 44.94 47.71 50.80 52.66 56.79 60.35 60.56 61.72 61.55 62.68 64.93 66.21 67.84 68.93 69.73 71.11 71.96 73.78 74.22 74.72 74.54
43.08 46.45 47.48 46.53 45.87 46.65 43.96 44.63 42.26 44.57 41.66 44.19 46.40 47.91 51.19 53.97 58.36 58.39 61.18 61.91 62.77 64.77 66.18 67.77 68.83 69.54 70.90 72.39 73.30 74.30 74.19 74.56
40.21 46.53 47.57 46.47 47.95 48.24 47.45 47.09 45.85 43.63 42.63 46.93 49.09 50.05 51.99 55.46 58.26 58.34 58.99 62.04 63.70 65.48 66.88 67.78 68.80 69.40 70.35 71.71 73.53 74.27 74.26 74.24
33.35 43.28 45.87 43.13 47.36 47.66 47.42 47.83 47.38 43.32 45.63 47.90 48.12 49.64 50.79 52.49 54.01 57.00 58.74 62.55 63.96 65.72 67.41 68.22 69.32 70.02 69.74 71.33 73.39 74.13 74.11 74.76
34.68 38.13 36.21 44.20 51.25 50.56 47.81 49.31 49.29 48.61 48.73 49.69 50.45 51.86 51.84 55.14 55.28 56.27 57.49 59.37 64.75 65.98 66.85 68.66 69.98 70.47 70.89 71.13 72.10 73.34 73.62 74.21
34.12 34.36 41.09 46.79 49.07 48.41 45.78 45.66 53.67 49.74 52.99 51.09 51.92 51.13 50.31 55.20 54.16 55.96 57.18 58.74 59.25 64.13 66.11 66.38 68.76 69.97 70.48 70.56 71.15 71.65 72.43 73.39
38.70 35.70 35.28 42.52 51.84 55.61 52.75 47.71 57.21 56.75 55.72 55.54 53.07 47.96 49.37 57.73 61.06 56.80 55.55 56.93 58.44 59.33 63.48 68.68 67.91 69.68 69.54 69.66 70.49 70.63 71.60 72.63
39.74 39.78 41.69 51.81 54.79 55.66 45.51 45.68 56.35 56.98 55.94 55.26 54.39 53.46 56.73 58.96 61.23 61.41 61.73 60.08 58.27 56.20 59.21 65.27 69.74 68.56 68.12 69.16 69.54 71.26 72.21 72.41
41.02 40.32 39.34 51.26 53.83 48.93 51.26 58.28 60.07 60.80 59.76 60.13 60.90 62.12 61.83 61.48 60.28 62.13 61.15 62.30 67.37 58.56 58.40 62.30 66.82 69.16 68.05 67.99 70.10 70.90 71.27 70.91
42.02 43.36 48.17 50.26 53.74 59.42 58.69 57.61 58.81 59.30 60.28 60.82 60.60 60.29 61.48 62.60 64.88 66.33 67.18 67.53 69.60 68.84 66.11 69.12 66.33 69.86 68.21 68.82 69.46 69.03 69.18 70.61
45.73 48.52 50.43 56.88 58.98 58.59 57.86 58.26 59.13 59.23 59.01 58.99 58.12 58.94 58.65 59.46 60.83 61.72 62.00 62.55 63.36 65.37 69.39 70.07 70.58 69.54 69.26 69.17 70.18 70.92 72.58 73.67
45.64 49.16 51.30 54.47 57.36 57.86 57.42 58.26 58.25 58.42 58.69 58.02 57.82 57.31 57.87 57.60 58.16 59.58 60.46 60.73 60.52 59.61 59.00 58.66 70.87 73.01 73.45 73.79 74.49 73.49 72.60 72.10
46.58 50.60 50.99 51.07 56.37 57.53 55.59 55.47 56.14 55.95 56.25 57.28 58.21 57.36 57.23 56.68 57.40 58.71 59.45 60.10 58.25 57.60 56.90 58.46 59.19 65.45 73.71 73.95 73.21 71.66 70.14 69.96
51.06 52.22 51.74 53.98 54.19 55.22 54.02 54.82 56.30 55.75 55.16 54.85 56.59 56.98 56.65 55.60 56.58 57.86 60.37 60.50 61.57 61.57 59.43 59.17 63.36 61.20 69.67 71.54 71.14 70.73 70.00 68.79

GFSFLT2_sfc_wetblb_015.txt.gz
Wetbulb
50.06 48.04 48.08 42.35 40.70 44.28 35.79 34.48 34.21 38.55 42.76 47.24 51.34 52.85 56.81 59.25 60.71 61.54 62.32 63.82 64.58 65.54 66.09 67.29 68.05 68.47 69.80 69.61 69.62 71.05 72.02 72.27
47.47 48.72 47.64 46.20 44.99 39.10 32.99 33.34 33.37 35.79 38.70 41.00 46.30 49.20 53.66 57.50 58.95 60.63 61.96 62.88 64.36 65.31 65.97 67.05 68.03 68.75 69.73 70.48 69.97 70.29 71.57 72.39
43.46 41.87 42.50 40.92 42.79 37.59 38.66 36.66 35.57 34.73 38.97 45.78 48.34 49.95 51.13 55.19 59.33 60.83 61.44 62.55 63.39 65.05 66.11 66.81 67.84 68.29 69.17 70.24 70.27 70.37 70.97 71.57
41.49 44.91 47.96 46.07 44.09 39.44 38.08 35.36 35.70 38.53 39.46 46.88 50.43 51.30 51.40 52.79 56.44 59.57 62.38 63.29 63.64 64.08 65.19 66.23 67.02 67.58 68.78 69.99 70.56 70.69 71.41 71.71
35.75 39.68 41.92 42.02 44.02 43.73 41.89 37.36 40.58 36.56 38.23 46.19 48.95 49.35 50.27 53.42 55.40 57.39 59.88 62.10 62.95 63.46 63.03 65.58 66.79 67.46 68.71 69.91 70.67 71.36 71.65 71.89
33.34 36.29 41.14 40.05 43.85 45.53 42.58 39.16 41.32 41.87 40.33 43.15 46.04 47.11 48.63 51.36 53.98 57.25 59.69 61.62 61.60 61.25 62.37 65.20 66.85 67.69 68.71 69.88 71.08 71.30 71.82 72.04
37.87 41.15 42.55 43.24 43.31 45.14 42.01 43.81 41.21 43.77 40.49 44.01 46.15 47.34 48.76 50.18 51.58 56.68 57.82 59.43 61.30 62.16 63.67 64.72 66.08 67.74 69.03 69.88 71.13 71.57 71.35 71.91
35.73 42.03 43.55 42.60 44.69 45.78 45.57 45.41 44.27 44.53 40.37 45.92 48.63 47.52 47.24 48.91 50.59 53.15 56.66 57.85 59.29 63.14 64.03 64.59 66.12 67.41 68.49 69.80 70.75 72.14 71.69 71.83
30.09 38.48 39.30 38.63 44.07 45.62 46.40 46.19 45.75 42.80 44.25 45.88 46.20 46.66 47.10 48.51 50.38 53.11 53.96 56.27 59.40 60.63 62.15 64.74 66.33 67.99 68.16 69.92 70.93 71.99 71.72 72.39
30.45 34.14 31.59 42.52 47.41 48.85 47.09 46.73 46.46 45.29 47.02 47.80 48.76 50.46 50.17 49.80 50.12 51.98 54.47 56.56 59.25 61.87 63.06 65.30 67.31 68.47 69.03 70.02 70.75 71.40 71.90 72.18
30.04 30.96 38.04 44.22 47.55 47.02 45.78 44.85 49.60 47.11 48.10 48.22 48.81 48.41 48.26 51.24 52.15 53.35 54.77 55.99 59.29 63.48 64.27 65.66 67.22 68.58 68.84 69.04 70.23 71.27 71.42 71.87
32.42 31.02 32.02 40.46 49.33 53.08 50.68 43.70 55.45 52.35 49.26 48.81 48.33 44.85 49.60 54.54 57.18 55.25 54.21 54.19 57.76 61.90 63.20 63.50 66.31 68.56 68.43 68.27 69.36 70.53 71.93 72.40
34.67 32.88 38.76 47.03 53.92 53.92 41.94 43.66 55.57 55.80 54.64 50.50 47.80 49.11 52.29 56.67 58.17 60.79 57.32 58.42 57.12 55.59 60.47 63.98 64.91 66.70 67.49 68.07 68.35 70.58 72.06 72.97
36.18 35.82 34.55 53.07 53.76 49.65 52.53 56.18 58.58 58.41 58.32 58.66 59.11 60.99 62.44 63.47 64.25 64.06 64.01 65.56 68.25 67.33 64.39 61.12 60.68 63.88 66.74 67.71 69.59 70.20 70.99 71.32
40.56 41.23 47.21 51.55 53.19 57.70 57.19 56.36 58.12 58.13 59.74 60.23 60.14 59.71 60.16 60.60 60.85 60.46 60.15 59.37 59.97 59.90 61.52 61.66 68.30 65.32 63.15 66.48 68.80 69.77 70.08 70.15
43.77 47.35 50.65 53.72 55.24 56.37 56.93 56.37 57.19 57.86 58.01 58.41 57.80 58.56 58.18 58.81 58.89 58.64 58.89 58.51 58.13 57.61 56.67 56.05 59.53 63.51 64.97 67.97 66.18 66.62 68.48 69.34
45.14 48.35 51.73 54.05 54.69 55.67 56.10 56.26 56.49 57.49 57.89 57.36 57.03 55.90 55.54 55.72 56.46 57.62 57.87 57.90 57.50 56.82 56.66 56.47 58.31 59.71 59.91 59.20 61.94 65.66 66.50 67.64
41.64 49.69 50.08 51.59 54.23 55.32 54.36 54.43 54.06 56.02 56.21 56.79 56.55 55.23 55.88 55.82 56.56 57.38 58.18 58.62 58.35 58.10 57.10 56.58 59.02 63.62 62.45 61.60 62.04 66.19 69.05 71.09
49.96 51.58 52.46 53.30 54.07 54.77 54.22 54.47 57.06 56.33 55.54 55.35 55.32 56.28 56.42 55.84 56.88 57.60 59.87 61.15 61.23 61.32 62.16 61.05 62.43 64.19 62.88 62.02 62.06 60.03 68.84 71.09

GFSFLT2_sfc_wetblb_018.txt.gz
Wetbulb
47.31 46.62 47.38 40.14 40.01 41.92 34.28 33.41 32.55 36.55 40.83 46.88 50.26 50.82 54.81 57.56 59.21 59.68 62.14 64.13 65.27 66.83 67.31 67.49 67.77 68.22 68.99 69.62 70.09 70.70 71.22 71.14
48.00 47.41 46.20 43.00 43.42 37.76 31.98 30.56 29.29 34.20 36.71 41.04 45.46 49.46 51.32 54.56 57.36 59.53 60.77 62.37 64.27 65.28 66.60 67.50 68.25 68.50 69.46 69.89 69.61 70.34 71.29 71.63
42.59 42.49 44.05 40.23 38.83 36.21 38.54 34.09 31.36 30.51 37.34 43.40 47.07 48.95 50.23 52.56 57.19 59.30 60.50 61.71 62.82 64.61 65.80 66.96 67.68 68.60 68.71 69.59 69.64 69.75 71.31 71.76
39.06 42.21 47.11 47.74 43.95 39.09 37.67 33.96 32.87 33.75 38.35 46.87 47.53 50.10 51.18 52.09 55.02 58.91 60.51 61.25 62.86 63.69 65.14 65.77 66.16 67.65 68.25 69.29 69.68 69.94 70.54 71.71
33.93 39.05 41.08 39.35 43.65 42.07 40.15 36.16 37.70 35.03 38.27 48.90 47.68 49.00 50.50 50.95 52.17 55.04 58.20 60.02 61.46 62.60 63.33 64.93 65.73 66.64 67.87 68.67 69.70 70.26 70.33 70.79
30.84 33.55 38.34 37.87 41.02 41.68 41.92 39.27 40.17 40.40 42.12 43.72 46.08 47.60 48.95 49.95 51.67 54.37 55.68 57.10 58.40 61.06 62.63 64.29 65.58 66.36 66.99 68.14 69.63 70.37 70.34 70.15
35.44 39.10 40.06 40.26 40.89 42.13 39.37 42.34 39.57 42.66 42.95 44.55 45.86 46.54 48.85 50.46 50.85 52.76 54.53 56.61 58.89 60.25 61.62 62.79 64.94 66.19 67.07 67.89 69.02 70.35 70.21 70.14
33.59 39.68 40.28 38.69 41.83 43.17 43.02 42.52 41.73 43.62 41.36 45.65 48.21 48.29 48.59 49.75 50.41 51.03 53.34 56.86 58.86 60.63 61.76 62.65 64.66 65.94 66.94 67.81 69.03 70.19 69.96 70.05
29.06 36.73 37.03 35.54 40.78 42.72 43.45 43.86 43.97 40.88 45.06 47.19 46.44 46.73 47.98 49.63 50.23 50.43 51.57 55.32 58.11 59.70 61.72 63.21 64.72 66.60 66.89 68.10 69.54 69.71 69.97 70.57
29.09 32.14 28.37 38.63 44.36 47.47 44.92 46.15 46.15 46.70 46.69 47.89 49.39 51.31 50.48 50.64 51.39 50.99 51.70 53.77 56.19 58.55 61.02 61.77 64.24 65.87 67.49 68.21 69.10 69.85 69.91 70.40
28.90 29.00 35.71 40.52 45.72 47.19 45.29 44.63 47.48 46.89 48.02 47.72 49.28 49.40 50.06 50.61 50.29 51.67 52.33 53.15 55.30 58.19 59.74 62.01 63.11 65.90 67.04 67.87 69.11 69.76 70.21 70.53
29.15 28.23 28.78 39.14 48.71 52.79 50.89 41.27 53.64 51.25 48.19 48.54 47.32 43.68 47.76 51.82 54.76 52.69 54.64 54.64 56.61 59.65 62.31 62.25 63.97 66.21 66.64 67.29 68.60 68.91 70.69 71.25
30.92 30.54 35.13 44.59 51.08 54.94 41.57 44.25 55.69 56.68 56.31 48.51 47.13 50.28 53.83 61.36 63.76 64.61 66.14 65.66 57.32 58.32 58.53 60.11 64.93 66.32 66.37 66.78 67.87 69.90 71.16 72.16
31.15 30.59 29.59 48.96 51.94 49.60 52.17 55.65 56.32 57.64 57.82 53.80 55.59 60.66 62.45 61.90 61.56 61.58 62.41 65.48 66.60 65.51 66.21 67.74 65.51 66.06 65.99 66.54 68.81 70.56 71.41 71.91
36.26 36.03 43.49 50.43 50.04 55.15 56.47 55.14 56.06 55.83 57.29 59.41 59.88 60.40 61.40 59.81 59.57 59.59 58.95 59.10 59.14 58.49 60.02 62.59 66.78 66.46 65.58 66.62 68.30 68.89 69.69 70.55
39.02 42.85 46.09 51.41 54.43 54.61 55.35 55.26 55.69 57.03 57.73 57.90 57.87 58.71 57.58 57.68 57.52 57.69 58.07 58.00 58.14 57.29 57.22 58.20 60.70 62.10 62.36 64.17 68.41 68.61 66.94 68.50
38.79 43.14 48.29 52.76 53.74 53.59 54.98 55.84 55.82 57.13 56.82 56.03 55.82 55.32 56.10 56.51 57.23 57.72 58.30 58.49 58.59 57.46 57.02 58.37 60.58 63.10 63.96 64.22 62.91 65.78 68.67 66.92
36.62 44.06 46.77 49.03 52.92 54.47 54.12 55.38 55.67 55.67 55.83 56.59 56.45 56.33 58.35 58.06 58.94 59.95 60.87 61.53 62.56 62.98 63.22 62.37 62.85 63.28 62.51 62.73 62.77 62.36 66.24 68.69
45.60 49.99 51.07 52.81 54.08 55.18 54.84 56.61 57.64 56.93 56.92 56.73 57.26 58.63 59.29 59.09 59.31 59.36 61.17 61.88 62.00 62.28 63.43 64.65 64.88 62.99 60.98 62.34 63.10 62.56 61.64 68.53

GFSFLT2_sfc_wetblb_021.txt.gz
Wetbulb
51.23 51.30 50.91 47.67 45.72 49.60 44.14 43.61 42.73 46.02 49.27 52.42 55.10 56.08 58.67 60.91 62.49 64.83 67.19 68.66 69.49 71.21 72.26 72.39 72.90 73.11 73.19 73.13 73.80 74.82 74.79 75.23
50.50 52.00 51.41 49.09 50.97 43.67 44.95 38.93 38.39 43.56 45.12 47.39 53.11 54.90 56.66 58.85 60.67 62.75 64.58 67.00 68.87 70.47 71.42 72.37 72.68 73.69 73.57 73.74 73.74 74.45 75.00 75.14
50.12 47.76 47.30 46.50 46.45 47.63 47.39 45.22 40.88 39.94 43.92 53.26 54.98 58.03 58.17 58.71 60.74 62.09 63.73 65.28 66.95 69.38 71.16 72.19 72.20 72.79 73.25 73.31 73.73 74.29 74.81 75.19
45.95 50.69 52.15 50.63 48.69 48.22 43.73 42.57 44.48 44.58 44.44 52.91 55.55 57.43 58.77 59.20 60.53 62.19 64.97 66.10 66.78 67.91 69.32 70.51 71.83 71.71 72.38 73.00 73.21 74.16 74.76 75.07
44.15 47.52 48.65 48.38 49.90 49.52 49.39 48.79 44.65 41.87 44.70 53.61 54.52 54.65 57.03 57.60 59.48 61.09 63.05 65.14 66.62 67.11 67.89 69.51 70.52 71.75 72.27 72.57 72.86 73.83 74.52 74.58
42.76 44.57 45.27 44.43 46.04 49.05 48.04 45.16 45.17 45.60 47.44 51.06 53.30 54.13 55.91 57.75 59.94 60.96 62.45 64.74 66.38 67.03 68.89 69.64 70.36 71.19 71.55 72.41 73.04 73.40 73.65 74.14
42.35 42.90 43.41 43.47 44.01 45.42 45.39 47.53 45.82 47.53 47.95 50.92 53.46 55.06 56.74 58.14 59.75 59.94 60.14 61.79 63.83 65.10 68.61 69.79 70.20 71.02 71.44 72.05 73.18 73.74 73.68 73.47
39.38 42.47 43.11 42.04 44.35 44.98 45.57 46.16 46.42 46.97 47.21 52.97 53.85 56.55 56.92 57.66 59.01 59.91 60.76 60.78 62.80 65.58 67.69 68.27 69.67 70.59 71.14 71.74 72.62 73.59 73.63 73.33
36.39 41.37 41.87 39.12 43.73 45.06 46.19 47.97 47.82 44.80 49.60 53.00 52.92 54.50 55.52 57.40 59.48 60.33 61.62 62.86 64.13 64.59 66.94 69.01 69.33 71.09 70.79 71.59 73.02 73.11 72.09 73.85
36.21 38.82 32.36 44.42 49.16 49.86 48.87 49.66 50.35 50.28 51.49 53.09 54.66 57.54 58.92 59.79 59.28 60.36 61.14 61.83 63.78 62.62 66.04 70.16 69.45 69.69 71.96 72.02 72.74 72.94 73.35 73.90
33.37 35.60 40.50 42.75 46.43 50.04 50.29 49.07 55.12 55.03 53.43 53.36 54.85 56.13 58.18 59.47 59.56 60.55 61.84 63.23 62.99 62.74 63.95 69.31 69.87 71.70 72.28 72.14 72.52 72.88 72.94 73.46
35.74 31.61 31.82 43.41 49.38 54.36 55.01 45.31 57.23 58.23 59.10 58.14 54.62 50.76 54.92 61.49 59.89 59.26 60.16 61.01 61.79 63.73 65.40 67.00 68.56 69.45 71.48 71.05 71.97 72.34 73.27 73.77
33.65 33.29 38.61 46.20 50.81 57.31 46.06 47.81 58.09 59.07 59.65 60.05 59.07 56.06 61.09 63.60 63.38 66.49 67.00 63.10 63.29 66.32 68.55 69.02 70.13 69.79 71.07 71.90 71.83 73.13 73.87 74.75
34.13 31.65 29.81 47.24 49.60 46.51 55.11 58.56 59.48 60.18 59.59 59.00 61.81 63.32 60.82 65.62 67.24 69.14 69.09 67.72 67.69 69.52 70.26 70.86 70.67 71.64 71.45 71.85 73.41 74.16 74.50 75.04
37.63 37.58 45.72 49.16 50.52 56.35 58.68 58.07 59.35 59.63 60.04 59.83 61.63 63.58 64.30 66.10 66.94 67.21 66.91 67.38 70.42 69.92 68.85 69.83 71.42 72.58 71.67 72.49 73.19 73.88 74.23 75.06
40.16 42.67 45.20 48.34 51.86 55.34 58.17 58.31 59.39 60.39 59.49 60.52 61.85 63.18 64.49 64.40 64.03 63.73 63.82 63.61 64.37 65.52 66.16 66.73 68.64 69.21 69.89 70.26 73.36 73.76 73.79 74.69
40.88 44.11 46.71 48.14 50.38 54.30 57.23 58.91 59.94 59.06 59.40 59.74 61.63 61.34 62.18 61.78 62.17 62.80 63.20 63.66 64.98 66.20 66.66 66.42 67.73 67.63 67.73 67.96 68.61 69.04 71.35 73.01
38.37 45.95 46.28 47.44 52.59 56.11 56.47 58.41 58.86 58.20 59.78 60.53 61.40 60.12 60.85 60.47 61.59 62.63 63.30 65.73 66.47 67.45 67.51 66.74 66.17 66.28 66.94 67.98 67.62 67.61 68.12 68.42
44.87 47.97 48.47 50.88 52.49 54.87 56.66 59.43 58.84 59.59 61.51 61.00 61.31 60.77 60.27 60.47 61.86 60.64 63.21 63.23 63.13 64.18 65.22 67.02 68.06 68.08 68.78 68.97 69.27 68.15 67.79 67.42

GFSFLT2_sfc_wetblb_024.txt.gz
Wetbulb
53.22 53.89 53.63 50.83 48.61 51.77 47.68 48.91 46.52 49.25 52.05 55.84 58.02 58.89 60.04 60.79 62.32 63.90 68.91 70.75 71.50 72.45 73.53 74.01 74.47 75.70 76.71 77.20 77.86 77.59 76.78 78.78
52.16 53.76 53.70 52.72 53.67 47.07 48.07 43.04 42.56 46.70 49.09 50.34 55.02 56.68 59.09 59.77 61.42 63.55 67.17 70.04 71.23 72.29 73.03 74.35 74.99 75.43 76.26 77.17 77.75 78.25 78.04 78.05
52.39 50.32 49.69 50.19 49.86 50.45 50.19 48.28 44.87 44.10 47.80 55.61 56.02 58.35 58.48 60.19 62.10 63.61 65.84 68.06 70.17 71.48 72.89 73.83 75.04 75.58 75.70 75.99 77.10 77.02 78.07 78.56
49.28 53.15 53.86 52.71 51.04 51.09 46.70 46.73 48.10 48.18 48.42 55.05 56.42 57.73 59.82 60.35 62.10 63.79 65.50 66.82 68.01 69.41 71.32 72.89 73.76 74.80 75.41 75.84 75.76 76.82 77.77 78.80
48.13 51.19 53.17 51.15 51.92 52.36 51.65 51.56 49.01 45.96 49.05 56.32 57.44 57.67 59.85 60.59 61.48 63.34 64.84 66.85 68.47 68.68 69.57 71.37 72.95 74.17 74.33 75.33 75.59 76.13 77.54 76.89
46.48 48.93 51.20 49.37 50.76 51.98 51.08 48.28 48.76 49.58 50.98 53.72 54.68 56.21 58.00 58.55 60.18 61.13 64.28 65.50 66.71 67.83 69.04 70.69 72.87 74.95 75.82 74.36 75.33 75.65 75.81 76.28
50.77 48.36 48.73 50.65 50.09 51.09 50.42 51.23 48.95 50.98 51.68 54.14 55.87 56.84 57.97 59.47 60.34 60.31 61.67 63.08 65.23 67.75 70.05 72.17 72.81 74.78 76.10 75.21 75.87 75.84 76.78 75.86
46.27 47.77 47.27 46.61 48.99 49.98 51.00 52.01 51.82 52.01 52.05 56.83 57.87 58.13 58.33 58.82 59.38 59.55 60.71 61.34 62.26 64.77 68.69 70.06 71.92 73.04 73.68 75.70 75.22 76.37 77.43 76.79
43.45 47.21 46.68 44.10 47.95 49.06 50.20 51.71 51.59 49.26 53.39 56.44 56.01 56.63 57.52 58.26 58.98 59.41 61.00 62.38 63.44 65.03 66.78 68.97 69.68 72.60 73.16 74.69 75.49 76.50 76.83 77.73
43.19 44.94 37.68 48.67 53.36 52.29 50.55 51.76 53.07 53.33 54.53 55.92 56.82 58.31 59.22 60.13 60.12 60.44 61.23 62.54 64.03 63.90 64.73 66.67 68.72 68.56 73.33 74.31 76.48 76.58 77.07 77.51
39.08 40.40 45.69 47.34 48.67 49.42 49.92 50.44 54.13 54.24 55.51 56.19 57.55 57.76 58.05 59.99 60.94 62.29 63.22 63.93 64.42 64.76 65.56 69.49 68.33 70.17 71.81 73.79 74.46 75.13 76.67 76.94
40.92 36.86 37.15 46.83 50.79 54.68 53.61 47.97 55.70 58.15 58.44 59.69 61.95 55.99 56.65 61.02 61.21 62.07 63.34 64.08 64.63 65.28 66.14 66.79 68.79 69.77 71.47 72.66 73.63 74.36 76.25 76.26
38.41 37.76 42.56 49.29 52.78 57.11 45.92 52.07 59.97 60.42 61.16 62.06 61.19 62.90 66.05 67.70 66.94 66.60 66.75 66.86 67.51 67.03 66.63 68.82 71.14 71.14 71.29 72.93 73.06 75.13 75.78 75.92
38.36 36.78 35.10 48.98 48.95 47.43 54.61 59.06 59.43 60.59 62.08 62.36 63.92 65.35 66.25 67.27 68.16 67.10 67.25 68.85 70.60 67.70 68.28 71.74 73.58 73.48 72.61 75.07 75.61 76.29 76.55 76.08
41.38 41.06 48.40 50.43 50.50 53.37 54.42 54.98 58.35 58.61 59.96 61.95 62.58 64.16 66.37 67.81 68.11 68.59 69.71 70.99 72.08 70.50 72.30 73.26 74.74 75.06 74.42 75.43 75.95 75.96 76.13 76.30
41.63 44.25 47.12 49.10 51.15 52.70 54.49 54.83 56.85 59.19 59.89 61.71 61.74 64.19 66.25 68.11 68.58 69.12 69.32 70.13 71.77 71.94 70.93 72.11 74.94 75.95 76.44 76.23 76.34 76.52 76.21 76.58
42.66 45.92 47.22 48.80 50.71 52.31 53.48 56.56 58.16 59.39 61.23 62.30 62.72 62.33 66.78 67.54 67.50 68.52 68.35 68.87 70.11 70.09 70.38 70.24 71.19 71.20 71.45 72.09 73.21 75.24 76.02 76.00
40.27 46.84 46.83 48.06 51.75 53.85 53.89 54.74 57.11 58.59 60.34 63.18 61.54 62.56 63.69 63.68 64.91 66.44 67.24 68.66 68.96 69.11 69.55 69.46 70.05 70.80 72.07 72.61 72.72 71.95 71.67 71.10
46.38 50.18 50.16 51.59 52.46 53.26 53.59 54.59 56.54 59.14 62.35 61.29 62.02 62.96 63.21 63.69 64.81 62.78 65.92 66.12 66.65 67.15 68.94 70.44 68.32 67.06 68.50 72.18 71.86 71.39 71.11 72.07

GFSFLT2_sfc_wetblb_027.txt.gz
Wetbulb
54.89 54.94 54.96 52.14 49.70 52.80 49.49 50.22 47.76 49.33 52.39 56.39 59.14 59.71 60.97 61.99 63.32 64.55 67.17 69.33 71.24 72.56 73.62 74.40 74.19 75.93 76.74 77.88 78.80 79.56 79.20 79.78
54.15 55.35 54.99 54.35 54.32 48.23 49.45 45.34 45.05 48.69 50.94 51.00 56.33 57.98 60.10 61.23 62.12 63.77 65.89 68.96 71.08 72.22 73.38 74.99 74.53 75.81 77.30 78.15 78.79 79.30 79.34 79.60
54.62 51.84 51.18 51.56 51.58 51.78 51.36 49.80 46.84 46.51 49.47 56.87 57.97 59.46 59.49 61.03 62.38 63.55 64.66 68.08 70.58 72.20 73.26 74.63 75.17 75.08 75.94 77.49 78.68 79.06 79.11 79.49
51.51 54.34 55.32 54.39 52.39 53.01 48.04 48.91 49.75 50.10 52.00 57.36 58.38 58.84 60.55 61.01 62.50 63.50 65.15 67.53 70.40 71.66 72.55 73.13 74.28 75.12 75.63 76.15 76.51 78.84 79.20 79.70
50.81 52.50 54.05 52.05 53.07 53.90 53.17 52.67 50.66 47.40 49.96 58.18 58.07 58.42 60.82 61.05 62.59 64.27 65.59 66.87 68.79 70.71 71.38 72.17 73.26 75.40 75.35 76.74 76.17 76.67 78.56 78.56
49.00 51.69 52.77 50.42 51.80 52.77 52.83 49.97 50.39 50.84 52.41 55.47 56.93 58.65 60.28 61.70 63.03 63.89 65.34 66.60 67.61 68.30 69.04 71.27 73.52 76.11 77.14 76.24 76.72 76.92 77.33 77.43
52.66 53.74 53.78 52.17 51.28 51.92 51.34 52.78 50.21 52.60 53.01 55.69 57.42 58.92 59.95 61.31 61.98 61.89 63.83 65.19 66.29 67.16 69.40 71.97 74.81 77.04 77.43 76.26 77.66 77.67 78.30 78.12
50.59 52.79 51.57 50.62 53.13 52.64 52.49 52.66 53.10 53.34 53.88 58.46 59.46 59.89 59.74 59.95 60.10 60.32 61.18 62.54 64.48 66.15 67.81 70.50 71.90 74.99 76.59 77.80 77.19 77.62 78.60 77.99
46.77 51.23 50.64 47.32 51.53 52.92 53.58 54.25 54.04 51.57 55.54 58.65 57.92 58.12 58.82 59.61 60.54 60.61 61.09 61.88 63.18 64.29 65.07 68.64 70.62 72.57 73.61 77.28 78.01 77.71 77.96 79.23
45.88 49.24 42.04 51.53 55.48 54.63 53.31 54.66 55.82 55.96 57.16 58.15 58.42 59.94 60.61 61.13 60.97 61.50 62.11 62.93 63.68 63.54 65.02 67.11 67.21 67.43 73.15 73.58 78.28 78.36 78.50 78.25
43.37 45.43 48.78 50.76 53.32 53.13 52.08 52.14 55.86 55.45 56.55 57.10 58.25 58.89 59.29 61.03 61.77 62.34 62.94 63.71 64.29 64.71 65.41 69.61 67.64 68.69 69.83 73.09 76.41 78.03 77.93 78.85
44.26 42.09 42.48 50.38 53.29 54.77 55.41 49.36 56.57 56.54 56.68 57.33 58.65 55.29 59.27 67.10 67.95 67.07 65.12 66.23 66.26 65.52 66.24 66.48 68.89 68.35 68.44 69.46 73.67 77.02 77.95 78.81
41.05 41.01 46.46 53.13 55.63 56.44 47.25 53.18 61.46 59.19 59.60 60.57 60.07 63.26 66.61 68.24 68.60 69.46 69.69 69.77 69.62 70.26 69.91 69.43 70.25 69.76 72.94 73.06 73.33 76.27 77.35 78.56
41.44 39.77 39.07 52.51 52.00 50.17 53.84 57.21 57.81 59.68 60.01 59.77 62.62 64.26 65.25 66.79 68.34 69.78 69.90 69.77 68.46 69.32 71.31 70.90 71.00 72.56 75.22 75.90 77.83 79.64 79.50 79.03
42.91 43.85 51.13 53.14 52.40 54.39 54.62 54.68 56.34 57.89 59.65 60.31 60.50 62.53 64.11 65.49 68.72 70.05 70.22 71.01 71.68 71.77 72.00 72.85 75.47 75.67 75.26 79.30 79.06 79.72 79.59 79.98
44.03 47.24 48.58 50.67 52.74 53.51 53.86 54.08 55.62 56.66 57.78 60.39 60.42 63.02 63.80 66.13 69.66 70.33 70.64 70.64 71.33 72.36 72.74 73.80 76.55 76.74 77.41 77.98 77.78 77.52 77.82 78.97
44.13 47.03 48.63 49.92 51.42 52.20 53.12 54.27 54.98 57.64 59.20 59.79 60.49 62.27 64.37 65.86 69.51 69.99 70.00 70.11 71.87 72.73 72.71 72.69 73.88 73.73 74.39 74.97 77.18 77.01 77.36 77.35
41.75 48.47 48.58 49.49 52.24 53.12 52.14 53.39 55.99 56.77 56.95 59.03 60.98 62.55 64.82 65.63 68.02 69.27 69.18 70.03 70.79 71.60 71.54 71.63 72.39 72.47 73.40 74.49 74.38 74.46 75.77 76.14
46.43 49.79 49.89 52.00 52.79 53.79 52.70 54.48 55.16 55.67 56.58 56.74 60.26 63.84 65.34 65.03 66.49 64.52 66.69 67.70 68.82 70.48 69.70 69.50 68.18 69.83 72.83 73.68 73.85 73.36 73.18 73.43

GFSFLT2_sfc_wetblb_030.txt.gz
Wetbulb
54.95 54.78 54.43 51.32 48.49 52.08 47.82 48.77 45.80 47.92 50.65 54.92 58.28 59.01 61.02 61.44 63.78 64.63 66.43 68.22 70.95 72.89 73.29 72.98 72.89 73.51 74.54 75.71 76.52 77.30 76.65 77.63
53.99 55.55 54.50 53.15 54.26 47.71 48.92 43.66 43.66 47.01 50.16 50.09 55.13 57.68 59.97 61.39 61.68 64.42 66.45 67.98 70.70 72.55 73.64 73.54 73.27 74.11 74.70 75.97 76.50 77.38 77.66 77.50
53.89 51.94 50.83 51.43 51.29 50.86 50.43 49.08 45.26 45.46 48.29 57.48 57.55 59.19 60.38 61.24 62.77 64.13 66.50 68.10 70.08 72.59 73.85 74.30 73.80 74.13 74.35 74.87 76.52 77.37 77.70 77.75
51.34 54.97 55.20 53.54 51.98 52.59 47.95 47.91 49.61 49.63 49.80 57.85 59.88 60.59 61.24 61.61 62.87 64.70 66.37 69.05 69.99 71.81 73.57 74.31 73.84 73.83 74.26 75.14 76.09 77.35 78.19 78.12
48.74 52.95 54.47 52.13 52.59 53.12 52.80 51.67 50.17 47.23 49.14 58.26 59.13 60.93 62.53 61.97 63.94 65.08 67.37 68.10 69.61 71.48 72.36 73.61 74.28 74.23 74.52 74.99 75.58 77.60 78.09 78.10
47.32 50.60 53.74 51.10 51.54 52.85 52.08 49.06 49.76 49.88 52.34 55.49 57.23 57.90 61.27 63.05 64.73 65.21 67.71 68.56 69.71 70.69 72.05 73.28 74.34 74.86 75.00 75.09 76.13 76.53 77.86 78.00
51.56 53.38 53.86 51.70 51.12 51.87 51.48 53.10 50.16 52.11 52.55 56.04 59.09 60.08 61.51 63.15 65.30 65.80 66.96 68.67 70.41 70.82 71.51 72.95 74.16 75.09 75.79 75.92 76.01 76.53 76.04 77.14
50.01 52.79 53.15 51.48 52.16 52.12 52.06 52.10 52.80 53.19 53.41 58.20 60.91 62.60 62.23 62.82 62.86 63.35 64.64 66.33 68.55 70.86 72.67 74.21 75.98 75.76 75.90 76.23 76.80 76.96 76.30 76.27
45.80 51.24 51.54 49.13 52.46 52.47 52.70 53.55 53.22 51.85 56.29 59.19 59.35 60.30 61.12 61.58 62.05 62.24 61.83 63.19 66.39 69.29 71.24 72.98 73.84 77.66 76.41 76.44 77.41 77.69 76.91 77.22
44.74 48.76 41.72 52.24 56.44 55.60 53.80 54.20 55.35 56.12 58.24 60.52 61.20 62.24 62.31 62.51 61.69 62.47 62.92 65.63 68.71 64.57 67.88 71.41 69.46 70.84 75.31 77.46 77.71 77.16 77.99 77.71
43.26 44.50 49.45 51.91 54.39 53.87 53.04 53.54 56.79 56.56 58.10 58.62 59.39 60.10 60.60 61.55 61.88 62.51 65.53 66.57 67.17 65.95 67.20 72.42 70.67 71.83 72.56 73.18 76.77 76.73 76.34 77.24
43.92 41.81 41.24 50.80 55.20 56.79 56.62 49.76 60.46 58.41 56.77 57.35 57.94 53.48 61.51 67.31 68.13 68.51 69.15 70.35 71.16 70.92 71.23 70.93 76.33 72.49 74.31 72.97 75.29 75.63 76.23 76.76
41.52 41.54 47.39 51.98 55.02 56.89 48.55 50.28 59.44 60.61 60.30 59.76 60.35 63.29 65.48 66.32 67.17 68.93 70.00 70.97 72.23 72.45 71.46 75.92 75.74 74.10 75.65 76.58 74.09 76.36 77.19 78.06
41.81 40.72 39.13 52.16 53.43 50.54 54.92 56.33 56.91 58.27 59.29 59.80 60.88 62.35 63.83 64.67 65.92 68.07 69.88 70.67 70.69 72.04 72.42 74.52 76.72 76.33 75.18 77.04 79.98 80.31 79.86 78.02
43.18 44.11 54.18 53.18 52.59 54.42 55.21 54.80 54.89 56.15 56.60 58.02 59.82 60.81 62.93 64.53 66.20 69.60 71.42 72.03 71.96 72.73 74.78 77.44 78.31 79.08 78.19 80.30 81.74 81.37 82.23 80.20
44.18 47.41 48.83 50.48 52.36 53.37 54.17 53.59 54.54 54.99 55.78 59.12 58.98 60.03 61.09 64.12 65.32 68.32 71.45 71.33 70.87 72.07 74.01 76.54 78.69 79.17 79.88 80.81 81.87 81.36 82.01 81.45
44.02 47.20 48.97 49.81 51.50 52.26 52.63 53.46 53.48 54.76 55.50 57.90 57.83 58.11 60.15 62.95 65.21 66.59 69.68 71.46 73.14 73.84 74.12 73.69 74.59 74.89 75.35 76.44 78.12 78.88 79.89 79.83
40.57 47.74 49.06 50.58 52.11 53.20 52.15 52.25 53.51 53.64 54.83 57.27 57.38 58.33 59.79 63.91 65.92 66.66 67.87 69.66 71.26 72.62 72.51 72.52 72.57 72.64 74.43 75.36 76.64 77.87 78.23 77.62
43.75 47.57 48.73 50.81 51.75 52.85 52.61 53.69 53.95 54.23 55.27 55.54 56.23 56.80 58.48 62.35 65.52 64.27 66.90 68.40 69.29 70.90 69.76 70.31 70.44 71.71 73.15 74.25 75.31 75.87 76.10 77.90

GFSFLT2_sfc_wetblb_033.txt.gz
Wetbulb
54.67 54.74 51.94 47.38 44.11 46.16 38.86 41.54 38.08 41.13 44.66 48.86 52.09 53.87 54.58 58.84 61.61 65.08 66.77 68.16 68.22 68.65 69.25 69.30 70.30 71.49 72.88 73.74 73.44 74.14 74.41 74.27
53.62 55.25 53.29 49.32 49.27 41.91 42.76 35.14 35.37 41.08 42.89 44.20 47.80 50.54 53.64 55.10 58.28 62.76 67.16 66.80 69.05 68.92 69.40 69.66 70.39 71.91 72.51 74.33 73.64 73.96 73.95 74.68
50.62 50.01 49.29 47.21 45.96 45.99 42.65 40.85 36.08 36.53 42.27 50.54 49.96 51.81 53.56 55.18 58.03 61.76 64.67 68.15 69.30 69.63 70.04 70.12 70.67 71.56 72.08 73.19 73.95 74.09 74.30 74.17
44.28 51.58 53.67 50.38 47.55 46.86 42.58 39.13 41.53 40.53 43.22 53.65 53.67 54.04 55.34 56.00 57.82 60.43 63.86 68.04 69.97 70.24 70.48 70.14 69.99 70.96 71.53 72.42 74.04 74.53 75.06 74.39
41.53 45.31 49.47 48.70 48.96 48.32 45.59 43.85 41.75 38.48 41.73 54.62 55.31 54.35 56.47 56.57 57.03 58.74 63.00 67.28 69.32 70.31 70.24 70.14 70.02 70.43 70.94 72.20 73.52 74.78 75.06 75.04
39.23 42.71 46.41 46.76 48.96 49.07 46.65 43.81 43.91 43.40 45.04 50.76 53.79 55.43 56.77 56.93 59.37 59.38 62.84 66.02 68.42 69.54 70.46 70.67 70.40 70.34 70.91 71.49 72.92 74.69 75.03 75.22
46.50 48.74 49.68 49.89 48.92 49.19 46.89 46.43 44.64 45.58 46.94 49.94 52.70 55.74 57.73 59.44 60.11 61.35 61.71 65.12 67.23 68.96 70.01 70.88 70.61 70.57 71.09 71.57 72.48 73.43 74.75 75.19
44.09 49.55 49.58 48.85 50.15 50.27 49.47 49.24 48.49 48.46 47.06 53.84 56.45 57.70 57.28 57.86 58.44 57.56 60.59 63.54 64.99 67.70 69.56 70.58 71.32 71.13 71.38 71.68 72.22 73.09 73.96 74.59
38.40 47.59 49.47 44.29 49.68 49.77 49.99 50.87 49.76 46.57 48.99 54.63 55.40 56.31 56.14 56.99 57.31 57.21 57.85 58.52 60.95 63.59 65.38 68.35 71.31 72.43 71.93 72.34 72.85 72.98 73.00 74.14
38.94 43.33 37.12 47.15 52.65 54.49 51.02 51.76 52.06 51.30 55.39 55.39 56.71 58.74 58.60 57.55 57.10 57.51 59.04 60.46 60.66 59.89 60.40 63.32 67.63 73.07 73.30 73.45 73.08 72.72 72.68 72.98
37.00 39.55 44.09 49.19 51.09 49.98 49.27 49.81 55.13 56.07 56.72 57.89 61.07 62.20 61.37 64.47 64.92 63.91 64.07 64.77 65.39 65.41 65.77 64.10 63.84 66.36 73.33 73.17 73.61 73.50 73.01 73.26
38.46 37.29 38.10 42.75 49.87 54.40 54.05 45.95 54.78 56.88 57.44 56.80 60.26 55.25 57.00 62.94 64.94 65.82 66.23 66.17 66.07 66.81 66.05 67.66 67.32 66.81 67.68 71.44 73.05 72.38 73.11 74.47
37.57 38.21 42.40 47.76 51.24 54.68 45.47 45.61 53.32 53.42 55.55 57.16 56.50 58.47 59.65 62.42 63.68 66.45 66.82 67.17 66.20 66.36 64.86 65.83 67.33 66.21 65.38 67.48 69.85 73.43 73.17 73.05
38.27 37.81 36.12 48.80 49.30 45.91 49.75 50.83 51.75 52.26 53.17 55.59 56.95 59.25 61.61 62.24 63.52 65.53 68.25 67.98 68.44 67.18 67.49 65.43 67.23 66.05 65.71 68.61 70.66 72.07 73.09 72.97
39.26 40.39 46.49 48.67 47.87 50.87 51.48 50.61 50.06 49.94 51.54 55.53 55.18 55.61 58.23 61.01 61.88 63.16 67.21 69.03 70.38 69.29 68.96 73.69 73.89 72.67 70.35 71.96 73.81 73.27 74.63 72.97
39.98 43.58 44.97 47.42 50.38 50.61 51.29 50.52 50.33 50.54 51.54 54.54 53.44 54.35 54.35 55.77 61.81 62.93 64.30 66.03 68.30 69.80 70.55 71.14 71.75 72.04 71.51 72.34 73.15 74.40 72.97 75.36
38.76 43.99 45.16 46.70 48.66 49.71 49.91 51.68 52.43 51.58 51.72 53.56 53.68 53.32 52.97 53.16 61.15 61.90 62.15 63.85 65.97 66.70 69.04 69.86 70.92 70.51 71.66 71.93 72.37 72.11 73.61 75.29
34.59 41.14 41.94 43.14 46.96 49.08 49.04 49.77 51.51 52.22 52.71 53.19 53.68 51.89 52.24 51.25 59.19 61.84 62.18 63.11 63.85 65.84 68.04 68.66 68.54 68.56 69.19 71.12 71.14 71.49 73.49 73.84
38.70 42.86 43.05 44.52 46.38 48.89 49.48 50.45 51.75 51.89 52.31 51.44 52.59 52.13 52.09 51.48 57.68 60.90 62.73 63.49 64.23 65.87 67.03 67.38 67.51 68.02 68.97 70.07 70.45 69.96 70.27 71.45

GFSFLT2_sfc_wetblb_036.txt.gz
Wetbulb
52.15 53.95 53.89 46.56 45.62 45.00 36.79 35.87 35.08 39.80 41.12 45.99 49.52 49.79 56.66 61.82 63.63 64.65 65.30 65.51 66.53 67.68 68.37 68.46 69.52 70.18 70.25 70.20 70.61 72.39 72.28 72.55
49.60 53.15 53.30 50.55 47.67 40.12 35.97 31.87 30.66 36.72 38.46 42.86 46.04 47.55 49.22 59.65 62.37 64.51 65.77 65.78 65.90 67.43 68.33 69.05 69.97 70.78 71.48 71.42 70.88 72.50 72.73 72.58
45.23 47.81 47.35 45.92 45.62 41.59 41.98 36.75 34.38 32.71 40.33 45.58 46.70 47.68 49.43 57.72 62.39 64.41 65.19 65.75 64.96 67.53 68.72 69.15 69.70 70.80 71.97 72.10 71.64 72.49 73.33 73.28
41.17 46.48 49.74 51.29 44.86 43.65 40.37 35.41 35.94 36.88 41.58 49.79 50.64 50.81 51.16 51.66 62.98 64.26 65.17 65.89 66.40 67.97 68.45 68.58 68.98 70.04 71.41 72.64 72.34 72.68 73.62 73.66
36.29 40.04 44.50 43.84 48.80 45.50 40.55 39.27 37.98 38.48 41.54 49.40 50.13 51.66 53.72 52.95 55.66 62.89 64.33 65.90 67.64 67.88 67.78 68.26 68.62 69.60 70.84 72.57 72.85 73.05 73.38 73.00
30.18 37.08 42.01 41.06 45.27 46.45 45.13 40.53 40.04 41.71 42.88 47.56 49.44 51.61 50.73 52.36 54.88 58.53 64.74 66.75 67.14 67.45 67.78 68.47 68.73 69.23 70.31 71.11 73.42 73.41 73.28 72.92
36.63 40.37 42.77 43.61 45.92 47.93 43.95 44.51 42.45 43.79 43.57 46.00 49.16 53.00 52.33 53.60 54.96 59.54 64.84 66.27 67.08 67.46 67.93 68.53 68.54 68.92 70.21 71.17 72.38 73.53 73.29 73.18
33.74 44.85 46.07 45.42 48.23 48.48 47.09 47.00 44.32 43.96 44.80 47.83 52.37 54.52 54.53 55.80 58.30 59.99 64.40 66.76 67.78 68.35 68.62 68.73 68.70 68.91 69.93 70.37 71.69 73.15 73.09 73.07
30.77 41.85 46.24 41.92 45.46 47.76 47.53 47.49 47.71 42.60 46.42 52.13 53.79 57.27 57.25 53.35 55.82 57.47 62.73 66.80 67.99 68.49 68.96 69.42 69.45 69.67 69.32 70.21 71.34 72.43 72.88 73.20
31.36 38.25 36.06 43.01 48.40 49.25 50.27 50.06 50.08 52.07 53.33 56.28 59.46 60.60 61.21 62.33 58.70 60.56 61.49 60.99 60.17 64.57 67.35 68.92 69.95 70.18 70.18 70.50 70.55 70.76 71.39 72.94
31.38 35.46 40.91 43.13 44.51 45.53 44.67 45.80 49.13 49.68 57.23 59.88 60.52 60.71 59.71 62.23 64.13 62.22 62.16 62.47 62.96 64.41 62.72 62.94 70.37 71.18 70.74 70.17 70.44 70.52 70.60 70.99
32.06 33.39 34.37 40.45 46.49 52.65 51.69 40.67 49.17 51.68 55.87 57.53 56.31 53.76 55.35 60.98 65.29 66.35 64.53 63.33 62.89 62.59 64.06 64.75 63.48 67.29 70.89 70.58 70.67 70.25 70.68 71.40
35.48 36.93 39.32 44.77 47.15 51.79 40.27 42.16 49.83 50.36 51.97 53.38 55.10 56.27 58.41 61.66 62.64 66.78 67.47 66.69 66.44 67.69 65.45 63.17 63.59 64.96 66.54 68.55 70.93 72.14 72.36 72.11
36.97 35.19 34.69 47.33 46.48 40.01 44.58 48.40 48.69 50.58 51.44 50.98 51.51 53.24 57.50 60.91 61.34 62.87 64.78 67.31 69.74 71.06 70.83 71.46 69.48 67.45 68.74 69.03 70.23 70.16 71.15 71.63
37.06 38.12 44.63 48.40 46.28 47.97 48.21 47.65 49.51 48.99 50.04 51.25 50.99 50.82 52.01 58.80 59.85 60.44 62.30 64.05 66.49 68.77 69.43 70.34 70.49 70.39 69.29 69.90 71.65 71.78 70.98 70.46
36.75 41.24 41.56 46.65 47.76 47.26 47.68 47.95 51.01 51.01 48.38 50.95 49.58 50.40 49.91 51.71 59.55 60.05 60.89 62.19 64.36 65.61 68.24 68.09 69.14 69.74 69.67 70.02 70.81 71.06 71.03 71.77
35.05 37.74 41.77 45.13 45.17 45.52 45.93 48.39 50.62 51.70 51.08 51.16 49.48 48.75 49.17 49.23 52.51 59.98 60.89 61.92 62.85 63.88 65.77 66.89 67.17 67.33 67.78 69.31 69.65 69.73 70.13 72.77
32.55 37.82 36.88 38.81 44.00 45.45 44.94 45.75 50.12 49.89 49.64 50.43 50.20 48.83 51.79 51.83 52.77 59.41 60.63 61.87 62.90 63.79 65.61 66.20 66.72 66.78 67.36 68.49 69.04 68.55 68.89 71.71
39.36 42.23 41.69 41.84 43.34 44.73 44.44 46.79 50.15 49.75 49.90 49.31 51.26 51.09 52.96 53.75 56.97 58.39 59.96 60.19 60.85 62.32 64.45 65.17 65.02 65.76 66.76 68.05 67.88 67.14 67.28 65.64

GFSFLT2_sfc_wetblb_039.txt.gz
Wetbulb
49.39 50.03 51.25 45.95 44.45 46.10 36.82 32.46 35.24 41.85 39.66 45.33 49.28 55.83 59.98 61.49 62.61 62.24 62.32 63.86 66.09 67.31 67.38 67.38 67.92 68.39 68.70 68.87 69.44 69.48 69.71 70.49
45.91 49.82 50.77 49.51 48.72 40.78 36.25 32.10 31.70 35.01 37.34 41.62 45.04 48.17 53.43 59.69 60.87 62.26 63.05 63.82 65.89 67.30 67.50 68.05 68.30 69.02 69.26 69.29 69.65 70.12 70.43 70.73
42.33 43.07 43.91 45.12 44.75 44.80 43.70 36.70 36.44 30.21 39.44 43.99 46.13 47.72 49.01 57.24 60.86 61.51 62.71 64.27 65.69 66.63 67.90 68.40 68.51 69.37 69.12 69.22 69.37 70.18 70.88 71.16
37.01 43.27 44.82 48.72 44.42 40.66 43.13 36.76 33.59 34.62 40.16 47.22 47.52 48.14 50.28 54.34 59.32 62.13 64.14 65.18 66.20 66.54 66.96 67.88 68.02 68.89 69.33 69.42 69.42 70.05 71.34 71.20
33.83 37.82 43.45 41.22 47.62 43.58 42.92 38.06 36.51 39.72 41.48 46.81 47.27 48.65 48.68 49.71 56.55 60.51 63.87 65.31 66.24 66.39 66.20 67.43 68.06 68.39 69.54 69.85 69.96 70.20 71.35 71.42
27.77 31.71 36.22 35.96 40.16 45.67 42.27 36.92 38.79 40.86 44.44 47.15 47.66 47.31 48.76 50.29 53.74 59.14 62.98 64.92 65.85 65.78 65.60 67.41 68.13 68.09 69.15 70.46 71.21 70.87 71.44 71.55
32.19 34.13 35.12 35.72 37.29 40.25 39.95 42.63 40.95 41.14 40.64 45.54 46.84 46.97 51.34 53.34 52.41 52.98 60.82 64.26 65.18 65.35 65.43 66.94 67.48 68.09 69.26 70.64 71.71 71.71 71.38 71.70
29.89 36.43 36.06 35.90 41.99 44.53 44.65 44.05 42.53 42.22 42.83 45.48 49.71 55.36 57.57 53.44 52.25 56.09 61.17 63.34 64.46 65.82 66.35 66.81 67.43 67.69 68.61 70.13 71.77 72.30 71.67 71.41
25.72 37.30 41.00 38.53 41.51 44.55 45.39 45.10 44.41 41.10 44.42 50.65 54.53 57.81 58.59 59.64 54.24 55.35 60.49 63.02 64.03 65.80 66.74 67.29 67.82 68.20 68.15 69.58 71.32 72.12 71.67 71.88
25.59 34.21 35.20 40.00 45.55 46.43 46.21 46.19 47.22 48.65 51.42 55.32 57.94 59.43 60.95 61.78 62.05 58.75 60.47 63.44 65.37 66.93 67.60 67.98 68.83 68.72 68.70 69.94 70.02 71.19 71.64 71.82
26.04 32.98 40.16 41.65 43.32 42.12 41.06 42.57 47.21 47.68 52.51 58.59 60.56 61.24 60.46 61.46 64.67 62.15 59.62 60.42 63.55 67.39 67.78 68.13 68.62 68.96 68.54 69.06 69.42 70.13 70.98 71.71
27.87 34.35 33.13 39.54 44.49 46.98 48.19 38.41 47.46 49.29 48.72 55.97 58.89 55.45 57.45 59.96 62.76 65.77 67.54 64.96 61.77 63.48 65.46 67.16 67.56 68.73 68.17 68.12 68.53 68.54 70.23 71.59
31.16 36.79 38.70 43.13 45.53 47.58 36.00 38.15 47.15 49.52 49.77 48.85 51.32 55.57 59.17 59.36 60.16 63.39 66.52 69.46 69.62 65.95 62.92 61.63 64.80 69.28 68.44 68.48 68.29 69.59 69.83 70.06
37.54 35.89 34.10 45.45 44.97 38.47 40.60 46.61 47.31 48.77 50.67 49.93 50.41 51.89 56.15 58.71 59.04 61.11 62.95 65.63 68.86 68.84 68.96 69.54 68.96 68.04 67.20 69.14 70.62 69.13 69.23 69.34
36.41 36.91 44.33 47.55 46.27 45.37 45.56 44.32 45.51 48.68 49.63 51.37 50.36 51.47 52.22 53.83 58.40 60.23 62.20 63.76 66.29 67.93 67.93 68.58 69.21 68.95 68.48 68.15 70.71 69.76 69.49 69.84
35.93 38.45 40.08 45.14 46.17 44.83 45.26 44.94 46.20 48.65 50.21 50.93 49.83 51.53 53.27 53.79 58.43 59.41 61.41 62.78 64.54 66.22 66.29 65.84 66.42 67.25 67.81 68.44 69.40 69.71 69.69 70.00
35.89 38.04 41.42 44.25 43.32 43.96 44.88 45.83 46.17 46.80 49.66 50.54 52.03 53.79 55.62 55.58 57.12 57.89 58.58 60.81 62.39 63.60 65.15 65.06 65.48 65.93 66.96 68.11 68.70 68.51 68.78 69.97
33.68 39.05 38.96 39.84 43.54 45.23 44.41 44.90 45.79 45.72 48.48 50.53 51.67 52.05 54.57 54.56 55.45 56.41 56.76 57.55 60.14 61.21 62.59 64.46 64.58 65.10 66.02 67.08 67.36 66.87 66.90 66.94
40.39 43.52 43.29 43.69 44.18 45.97 44.61 45.34 46.99 46.85 49.05 49.80 50.96 51.29 53.91 51.52 51.72 53.83 54.00 56.25 59.08 61.02 61.79 63.66 63.58 63.77 65.97 66.05 65.74 64.74 65.23 65.36

GFSFLT2_sfc_wetblb_042.txt.gz
Wetbulb
44.22 45.92 47.20 42.88 41.41 44.10 35.61 31.73 33.27 40.91 40.70 46.89 50.44 53.63 59.18 61.38 62.89 63.51 64.94 65.65 66.13 67.34 67.70 67.73 68.12 68.21 68.01 67.85 67.98 68.23 68.23 68.87
41.75 45.91 46.66 46.53 47.73 39.57 36.14 33.00 27.98 35.25 36.04 43.79 44.60 48.26 53.33 57.22 60.30 62.52 64.45 64.43 65.27 66.69 67.22 68.15 68.59 69.08 68.69 68.70 68.18 68.52 68.97 69.24
39.02 39.48 41.11 42.43 44.45 43.74 42.48 37.32 35.48 29.67 35.53 45.67 46.63 50.35 50.50 54.82 60.30 61.78 63.18 63.30 63.65 65.59 67.76 67.80 68.66 68.97 68.56 68.58 68.55 68.89 69.26 69.47
33.61 41.61 43.86 40.61 41.90 42.91 41.23 36.26 33.88 34.77 40.60 47.12 48.11 49.19 50.84 52.14 58.89 61.87 63.32 63.91 63.81 64.84 67.02 67.51 67.31 68.16 68.31 68.64 68.69 69.58 69.69 69.89
30.06 36.89 39.13 38.57 43.03 43.11 39.37 43.31 40.25 39.24 39.61 48.25 47.48 47.86 48.80 49.97 52.48 59.22 62.49 63.61 64.02 64.69 65.79 67.10 67.25 67.67 68.14 68.77 68.91 69.91 70.13 69.99
26.20 30.65 33.80 31.81 35.91 42.62 40.08 40.57 41.79 42.99 43.77 47.46 48.98 47.63 48.88 49.06 50.34 54.19 60.17 61.92 63.21 64.39 65.60 67.15 67.61 67.31 68.37 68.50 69.49 69.83 70.40 70.37
33.12 33.90 34.21 33.44 34.16 36.40 35.63 38.86 41.07 42.13 43.07 46.93 48.26 48.38 47.44 49.51 51.11 52.16 55.62 61.09 63.24 64.38 65.40 66.35 67.09 67.42 68.74 69.13 69.42 69.75 69.75 70.41
29.96 33.27 33.61 32.26 36.67 37.74 38.49 40.93 41.26 42.01 41.25 48.32 47.91 53.65 58.11 58.71 58.96 54.20 54.06 56.39 62.79 65.16 65.79 65.73 66.91 67.41 68.32 69.15 69.52 69.99 69.49 70.04
24.08 33.57 34.66 31.56 37.24 41.64 43.82 44.82 43.45 39.94 44.41 51.04 52.23 58.41 58.63 59.76 61.07 61.50 57.17 54.50 58.16 64.71 65.87 65.98 67.18 68.05 67.91 69.39 70.62 70.33 70.07 70.66
26.36 29.57 30.68 39.24 45.06 46.91 44.17 43.74 46.07 46.46 48.09 54.90 55.61 59.73 60.46 60.15 60.95 61.94 62.47 59.70 60.88 65.25 66.17 66.29 68.00 68.44 68.59 69.94 70.93 70.70 70.46 70.83
25.29 27.71 38.67 41.26 42.16 41.52 40.78 41.46 44.97 45.81 48.14 51.27 57.92 59.43 59.86 59.81 60.94 62.83 66.12 60.78 62.58 65.30 66.38 66.73 67.59 68.19 68.45 69.61 71.01 71.19 71.00 71.29
30.19 28.13 34.38 38.40 42.96 46.44 45.63 37.83 45.54 46.06 48.15 48.10 56.64 53.68 56.64 59.00 61.15 63.38 66.81 66.74 63.53 65.13 65.88 66.08 67.25 68.08 68.37 68.80 69.73 70.58 71.19 71.74
30.58 31.11 37.89 42.05 45.03 45.53 37.80 37.60 45.03 47.19 47.96 48.47 48.88 51.26 53.88 60.20 61.72 64.28 66.54 68.16 66.16 65.68 66.01 66.21 67.62 67.93 67.71 68.42 68.45 70.25 71.77 72.39
35.39 36.48 35.13 45.55 43.11 37.98 40.78 44.48 44.46 45.64 47.69 49.15 52.25 55.86 55.95 58.71 60.26 61.97 64.05 66.45 68.18 68.00 67.82 67.58 67.61 67.97 67.41 67.53 69.23 69.55 70.53 71.59
34.16 35.91 40.66 46.07 42.74 44.07 44.91 43.89 44.34 44.43 47.85 51.33 52.68 55.06 55.83 56.37 57.60 59.27 61.07 63.03 66.39 66.31 66.99 68.23 69.26 70.10 69.51 70.19 72.35 70.00 69.06 69.42
36.53 38.23 40.42 44.13 44.76 44.40 45.15 45.08 46.12 46.75 47.28 50.05 52.54 54.40 54.72 54.07 55.61 56.38 58.14 60.68 62.86 65.40 65.40 65.56 67.19 68.44 69.05 70.15 71.49 70.65 70.25 69.99
36.06 38.67 41.41 44.24 43.58 44.29 45.12 46.46 47.17 47.47 47.31 48.65 50.87 51.91 52.55 51.46 52.10 53.81 55.83 58.33 62.00 62.63 64.17 64.38 65.92 66.90 68.04 68.97 69.86 69.96 71.17 72.78
34.78 40.17 39.81 40.81 44.15 45.85 44.65 44.75 46.22 46.70 46.72 48.03 50.21 50.72 52.63 51.66 51.54 52.25 53.23 56.49 60.45 63.23 63.40 64.38 65.02 66.56 67.44 67.82 67.87 68.38 69.00 69.27
40.29 44.29 44.39 45.41 46.56 47.56 45.58 46.30 46.83 46.68 47.54 46.70 49.71 50.60 52.89 51.45 52.21 52.39 54.65 55.48 57.00 61.23 63.54 64.54 64.59 64.66 66.05 65.74 66.12 66.68 67.17 67.49

GFSFLT2_sfc_wetblb_048.txt.gz
Wetbulb
47.70 49.71 50.76 49.76 47.47 51.71 48.09 49.45 46.27 47.54 48.99 52.30 57.02 59.11 61.14 62.37 65.51 67.04 69.40 70.69 71.34 72.34 72.32 72.20 72.71 73.83 74.55 75.26 75.38 75.17 74.73 76.80
44.98 47.34 49.68 49.80 53.01 46.69 47.38 41.22 40.91 46.44 48.01 47.33 52.80 57.20 59.63 60.91 62.60 66.22 69.29 70.60 71.61 72.13 72.67 72.73 73.24 73.61 73.97 74.31 74.81 75.10 74.97 75.34
41.83 41.86 44.29 47.31 46.73 48.53 49.77 47.66 43.50 43.17 46.86 54.81 54.43 55.92 58.60 60.74 62.89 64.57 68.30 70.20 71.40 72.25 73.11 73.43 73.60 73.54 73.80 74.10 74.38 74.66 75.32 76.14
39.31 43.48 45.02 44.67 46.44 48.61 44.72 44.78 47.81 47.43 48.79 56.21 56.07 56.98 57.86 59.98 62.93 64.94 67.53 69.91 71.32 72.04 72.83 73.30 73.34 73.50 73.62 73.94 74.08 74.73 76.49 77.16
36.82 40.72 43.36 41.37 44.30 47.03 48.31 48.81 46.16 45.17 47.59 57.04 57.66 57.75 59.17 58.95 60.73 64.49 66.13 68.34 70.60 71.42 72.15 72.61 73.23 73.73 73.53 73.93 73.95 74.67 75.35 74.89
34.02 37.66 40.20 39.22 42.23 45.42 46.60 43.70 45.55 46.81 48.78 54.97 56.00 56.72 58.72 60.21 61.83 62.46 64.13 66.87 68.68 70.47 71.50 72.89 73.89 75.63 75.62 74.28 74.58 74.47 74.78 74.61
39.01 39.39 39.40 38.87 38.61 41.16 42.03 44.55 42.66 47.07 49.09 52.97 57.08 57.66 59.07 60.79 60.77 60.97 62.02 64.66 68.19 69.32 71.24 73.89 74.75 76.21 75.94 74.82 75.82 75.51 76.36 74.57
36.29 39.32 39.06 37.06 38.66 39.45 41.23 42.85 44.32 45.99 47.10 54.19 58.47 60.21 59.37 59.70 61.09 61.70 64.07 64.09 64.38 68.24 70.38 71.72 73.15 75.35 76.29 76.55 75.92 76.27 77.25 76.19
32.25 37.57 37.30 33.88 38.15 39.81 41.09 44.21 45.21 43.29 49.89 55.85 57.82 59.49 60.73 61.77 62.31 64.25 65.92 67.05 68.48 68.27 68.83 70.97 72.37 74.51 75.13 76.56 76.70 76.44 77.25 77.25
32.99 35.52 26.31 38.15 43.32 43.54 42.42 44.09 47.47 48.74 51.38 54.54 58.86 61.54 65.80 66.06 65.25 65.74 66.73 67.82 69.15 70.06 71.06 69.99 71.97 72.97 74.73 75.30 77.11 76.90 77.03 77.24
30.37 30.65 35.21 38.11 41.95 44.65 42.36 42.99 47.40 50.60 52.75 54.30 58.63 61.99 64.83 65.59 65.21 65.73 67.45 68.66 70.07 71.20 71.70 73.19 71.15 72.84 74.43 74.12 75.28 76.21 76.58 77.23
33.48 27.04 24.97 37.35 37.89 40.88 48.09 40.31 52.81 54.42 56.17 56.12 58.67 56.73 60.77 63.54 64.20 64.97 67.12 68.88 69.99 72.35 73.66 73.20 73.53 72.07 73.11 73.54 74.16 75.49 76.41 77.22
30.97 29.72 32.95 39.45 39.67 41.39 35.57 43.96 51.72 51.92 52.85 58.65 58.95 58.10 58.13 58.71 60.09 62.41 64.54 67.50 71.47 72.93 72.74 73.16 73.13 71.90 74.73 74.76 74.46 76.19 76.03 76.27
32.29 28.65 26.17 41.18 38.41 37.04 46.20 48.05 46.80 47.72 52.16 53.08 52.95 53.04 53.30 54.56 54.31 57.09 61.06 68.22 72.60 71.88 71.32 71.82 71.84 74.32 75.89 75.13 76.43 77.69 77.79 77.46
33.48 34.86 40.71 39.57 39.09 46.60 47.08 46.58 46.23 47.70 51.79 51.91 51.10 51.00 51.96 52.42 52.83 54.00 56.33 63.33 70.85 72.58 72.17 73.17 74.16 75.06 74.28 77.33 77.18 77.68 77.42 78.18
33.65 37.90 37.22 41.65 44.33 46.95 47.83 46.60 47.59 49.28 49.08 51.11 51.15 52.15 52.39 53.09 53.65 53.83 55.14 56.44 65.45 69.60 71.34 72.80 74.41 74.76 75.35 76.43 78.29 77.43 76.94 77.53
34.66 36.16 39.55 43.13 43.69 46.54 46.86 47.93 47.54 48.79 49.39 48.66 51.90 53.25 52.99 53.65 54.58 55.22 55.58 56.36 58.23 64.06 68.15 69.05 70.83 72.05 74.29 76.15 76.53 76.30 76.54 76.78
33.97 38.71 39.15 39.61 45.12 47.23 46.64 45.98 47.18 47.52 48.36 51.04 51.16 51.48 53.22 54.17 55.71 56.02 55.84 56.85 57.43 58.68 63.46 66.94 68.21 69.99 71.69 74.12 75.87 75.02 74.66 74.98
38.97 42.84 44.22 45.74 46.05 46.87 46.64 47.31 48.13 48.39 50.06 48.76 50.04 52.03 53.56 55.50 56.57 56.43 55.80 56.82 57.36 58.31 60.75 64.56 65.42 66.18 68.70 72.99 74.38 75.27 73.46 76.78

GFSFLT2_sfc_wetblb_051.txt.gz
Wetbulb
50.84 51.96 52.50 51.34 49.03 52.43 48.43 50.41 47.91 49.49 50.65 53.66 57.77 59.53 62.58 63.77 66.38 66.98 69.51 70.75 71.11 71.60 72.21 73.35 73.98 74.95 75.15 76.36 77.06 77.53 75.34 77.15
48.51 50.50 51.46 50.69 54.12 48.13 48.21 42.57 42.74 48.72 50.29 49.00 52.78 55.78 59.11 62.16 64.17 66.55 69.03 70.61 71.40 72.20 72.47 72.99 73.58 74.62 75.61 76.37 76.96 77.37 76.80 77.31
46.04 44.95 45.08 46.09 46.37 49.54 50.33 48.72 43.98 44.69 49.14 56.56 55.37 55.80 56.98 59.87 63.30 65.52 67.37 69.89 71.25 72.21 73.28 73.47 73.80 74.12 74.46 75.29 76.31 76.39 77.09 77.26
42.97 46.91 47.41 46.75 46.84 47.47 44.94 45.80 49.12 48.11 49.16 57.77 58.07 57.39 57.79 59.40 62.62 64.35 66.52 69.18 71.31 72.12 73.29 73.81 73.72 73.87 74.46 74.50 74.31 75.88 76.75 77.96
40.39 44.26 46.29 43.34 45.59 48.42 49.44 48.99 47.62 46.04 47.75 57.56 58.47 58.08 59.11 59.14 60.35 63.68 65.44 67.45 70.68 71.68 72.55 73.39 73.92 74.64 74.14 74.57 74.33 74.89 76.55 76.55
38.21 41.55 43.32 42.71 42.93 45.29 46.95 44.43 46.13 47.80 50.65 54.69 57.26 57.21 58.88 60.35 60.92 62.00 65.28 67.76 69.06 71.01 71.77 73.07 75.03 76.12 75.98 74.83 74.83 74.60 75.11 75.24
41.82 42.49 42.29 41.56 42.39 43.72 43.41 45.35 43.71 48.02 48.95 54.17 56.88 58.00 59.66 60.99 61.94 62.33 62.77 65.70 67.81 70.01 73.06 75.47 75.92 76.97 77.08 75.79 76.57 75.76 76.14 75.56
39.34 42.35 41.77 39.89 41.77 42.29 42.23 42.81 45.30 47.59 48.12 54.66 56.32 57.74 58.68 60.29 61.52 61.98 63.03 64.43 66.18 68.72 70.75 73.39 75.89 76.84 77.32 76.88 77.02 76.66 76.85 75.96
35.15 41.33 40.59 36.78 40.79 41.64 42.54 43.81 43.17 41.46 47.75 52.35 52.82 54.65 56.67 59.96 61.69 61.63 63.14 64.58 66.26 66.21 69.29 70.82 72.90 76.40 76.76 77.56 77.59 77.44 77.69 77.26
35.23 37.84 28.73 40.90 45.12 44.18 42.58 43.89 45.29 45.72 46.88 49.72 52.19 55.14 56.79 62.40 66.82 67.33 67.73 67.17 68.77 69.53 69.88 70.26 71.79 73.16 75.73 76.87 78.14 78.08 77.47 78.52
32.57 33.31 37.70 40.15 42.50 41.95 40.97 40.22 46.94 47.09 49.33 49.29 51.52 53.49 55.02 60.09 67.92 67.99 68.80 69.73 70.49 71.56 71.90 72.90 71.74 72.54 75.78 75.69 78.27 77.86 78.24 78.39
36.12 30.11 27.77 39.80 44.09 46.52 44.38 37.32 47.51 49.24 49.65 49.74 50.72 48.06 53.39 65.40 68.22 68.19 68.99 69.94 70.76 71.98 72.73 72.98 73.58 73.44 72.48 74.41 76.01 77.20 78.25 78.28
35.50 32.08 36.22 43.43 44.11 44.99 32.51 38.90 49.07 51.26 52.75 50.74 50.79 54.03 59.01 63.37 64.46 65.52 68.09 69.36 71.19 72.26 72.34 73.49 74.77 74.34 74.23 74.83 75.43 77.72 78.88 79.47
34.38 31.64 29.23 44.28 43.08 36.30 43.81 43.29 41.82 49.56 54.19 55.40 59.15 60.67 59.26 59.06 60.44 62.40 63.59 65.62 69.04 73.30 74.23 75.01 75.49 76.40 75.93 75.16 77.15 79.11 79.02 78.94
37.27 36.94 43.93 44.37 42.29 44.24 42.62 42.34 43.44 51.14 57.18 59.46 58.02 57.31 57.11 56.15 58.18 59.30 59.14 63.13 65.57 71.67 74.80 73.97 75.92 76.85 76.52 75.73 79.62 78.91 79.05 78.72
34.35 39.61 41.29 42.02 41.68 43.45 44.32 44.87 48.68 49.46 52.11 55.10 54.44 54.64 53.93 54.90 54.73 56.22 57.46 58.06 60.66 67.08 73.74 74.06 76.24 76.24 76.74 80.76 79.97 79.63 78.91 78.73
35.20 37.80 38.00 41.23 43.57 43.74 45.98 48.20 48.55 49.47 50.76 51.66 53.46 54.08 53.91 54.65 54.38 54.81 55.96 56.82 58.38 61.41 65.39 67.75 71.45 73.78 76.65 78.16 79.35 77.84 78.52 78.60
33.43 37.45 39.13 39.54 42.84 46.15 46.70 46.60 48.54 49.94 49.22 50.22 52.13 53.09 55.15 55.01 54.91 54.94 55.10 56.74 56.70 58.95 61.09 61.77 63.52 64.41 66.25 69.08 77.97 77.23 76.92 76.09
37.82 41.54 41.00 42.68 42.56 45.83 47.24 47.81 48.94 48.54 49.21 50.90 53.20 54.56 55.29 55.15 55.46 55.25 55.25 56.32 57.25 57.96 59.05 60.71 60.78 62.35 65.74 66.86 71.90 76.20 75.46 77.97

GFSFLT2_sfc_wetblb_054.txt.gz
Wetbulb
50.24 52.87 52.42 49.96 48.21 51.44 46.89 48.42 45.57 48.29 50.61 53.34 55.62 58.06 63.66 63.08 65.73 63.51 66.44 69.43 70.29 71.16 71.48 71.74 72.14 72.23 73.28 73.82 74.36 74.92 74.48 75.47
49.87 51.47 51.76 50.04 52.31 46.83 47.86 41.17 41.13 46.10 48.88 49.31 53.38 56.12 60.39 62.33 62.25 63.45 66.12 65.74 69.76 71.42 71.80 72.79 72.91 73.65 73.81 74.83 74.45 75.28 74.95 75.20
48.32 46.48 45.90 47.02 45.91 48.20 49.45 48.15 43.51 42.52 46.58 56.65 58.21 56.93 58.38 62.54 63.09 63.69 64.68 66.31 66.71 66.99 72.56 73.26 73.65 74.17 73.69 74.44 75.01 75.43 75.90 75.01
43.08 48.39 49.26 47.70 45.95 45.97 42.32 44.58 47.61 46.99 47.17 56.54 58.58 58.20 58.09 58.17 61.13 66.67 67.77 66.76 66.27 64.18 66.00 72.79 73.22 73.63 73.91 74.16 75.16 75.67 76.08 75.26
39.84 44.17 46.97 44.59 45.29 45.52 45.82 45.97 44.87 44.55 46.91 56.70 58.06 59.56 59.71 58.83 60.04 64.40 67.44 63.40 63.42 65.48 67.46 72.52 72.95 73.59 74.26 74.28 74.27 76.05 76.38 75.57
37.54 41.48 43.83 42.79 44.54 44.90 43.79 42.93 44.01 44.79 48.55 54.52 55.49 56.95 58.80 60.93 62.62 62.71 65.33 65.99 65.37 68.43 69.80 73.30 73.40 73.65 73.98 74.40 74.77 75.09 75.65 75.54
41.61 42.61 42.99 42.67 42.60 43.49 42.79 43.59 43.08 46.36 47.54 52.50 52.48 54.71 57.42 60.14 61.53 62.66 64.08 64.65 66.80 68.16 68.93 73.15 73.76 74.04 74.31 74.83 74.54 74.93 74.91 74.82
38.65 42.26 42.62 41.32 42.81 43.18 43.67 44.04 44.15 45.61 45.95 52.09 54.30 56.15 56.94 58.77 59.78 59.41 60.67 64.46 66.34 65.24 73.53 72.79 74.50 74.44 74.66 74.67 74.80 75.02 74.49 74.38
34.11 39.93 40.48 37.09 42.12 42.64 43.33 44.97 44.41 41.50 46.67 50.70 50.33 52.20 54.52 55.29 55.49 57.11 59.67 60.21 67.17 68.58 69.48 70.63 74.06 75.47 74.92 75.05 75.80 75.08 74.88 74.97
34.77 37.38 28.29 40.94 46.63 46.27 43.77 44.71 45.78 45.89 47.03 48.96 49.92 51.07 52.50 54.26 55.08 56.96 59.49 60.48 70.22 67.51 70.77 72.17 70.45 71.85 76.67 76.47 75.75 75.61 74.91 75.50
32.76 32.46 36.77 40.02 43.78 43.50 42.47 42.59 46.32 46.12 47.74 48.86 49.81 50.53 50.63 54.13 55.72 57.16 58.94 62.68 70.13 70.77 71.39 73.09 73.16 73.74 76.02 76.73 75.93 75.70 75.41 75.55
36.50 30.54 27.78 39.06 44.55 46.24 45.78 37.32 46.79 46.80 46.52 47.04 48.65 44.73 48.99 54.31 54.48 58.93 67.00 69.33 69.55 70.59 71.22 71.77 72.97 73.67 73.58 75.08 76.46 74.88 75.49 76.02
35.12 33.43 36.31 43.76 45.55 46.92 34.01 37.44 47.71 48.22 48.28 48.18 46.33 50.41 54.69 56.91 55.88 65.40 66.18 67.66 69.51 70.19 70.92 72.53 73.64 74.00 73.31 73.67 74.60 77.02 76.50 77.38
36.08 33.07 29.54 45.84 45.03 39.61 44.14 46.98 46.81 46.49 46.91 47.32 48.47 51.09 54.17 56.42 61.15 63.51 64.44 65.47 67.38 68.72 70.05 73.95 75.42 73.90 73.08 73.73 75.70 77.38 77.98 76.83
34.69 36.51 43.34 44.72 43.71 46.08 46.42 45.03 45.44 45.47 46.86 47.78 48.30 50.72 51.42 59.50 61.30 61.54 60.68 62.29 64.29 66.95 70.55 76.09 75.12 76.37 73.59 74.81 76.63 79.00 78.26 76.77
34.74 39.88 40.62 42.21 42.61 43.23 44.29 44.07 44.29 45.26 46.63 48.07 48.47 50.91 56.97 57.28 56.67 56.85 58.19 58.32 59.75 63.47 66.24 66.60 68.33 71.09 76.87 76.54 77.64 77.88 77.17 77.34
35.24 38.02 38.87 40.94 41.96 42.97 43.78 45.20 44.90 46.99 49.03 49.41 50.83 54.67 54.84 54.20 54.15 55.51 56.40 57.38 58.52 60.62 61.24 61.64 64.61 68.39 70.89 72.00 76.97 75.99 77.48 77.20
32.75 38.37 36.53 38.13 41.69 42.04 42.31 45.14 47.15 48.52 49.37 50.78 52.05 53.82 53.80 53.61 54.70 55.38 56.29 57.64 57.02 57.07 57.81 58.46 60.48 64.06 67.14 69.48 71.47 78.08 76.80 76.98
38.78 42.47 41.53 41.14 42.35 42.97 43.80 46.11 48.01 48.46 48.79 48.23 50.73 53.68 55.12 54.52 55.43 55.78 56.65 56.67 55.77 55.99 56.70 57.22 57.71 60.58 62.50 65.69 69.11 73.68 76.98 76.75

GFSFLT2_sfc_wetblb_057.txt.gz
Wetbulb
48.59 50.44 49.77 44.87 41.25 44.86 38.54 42.32 36.93 41.25 44.29 49.30 51.08 56.71 61.41 61.84 64.00 62.67 64.43 66.17 65.88 68.64 68.51 68.57 68.67 69.05 69.69 69.97 70.15 72.10 71.73 70.36
46.58 48.59 49.80 46.21 47.07 38.87 39.67 32.15 31.93 39.20 41.41 43.00 47.82 49.94 59.84 60.97 61.11 64.02 65.75 66.55 66.92 67.20 68.55 68.94 69.45 69.58 70.23 70.76 70.27 71.59 72.19 71.72
42.69 41.05 40.85 42.48 39.96 40.88 40.15 38.71 34.21 34.36 39.69 48.43 50.59 53.24 59.17 60.57 61.85 64.46 64.05 65.71 66.28 67.14 68.20 67.77 70.13 69.90 70.18 71.26 71.00 71.24 71.34 72.45
37.06 43.78 45.60 43.83 39.07 38.86 34.41 35.17 38.74 39.05 41.70 52.66 53.29 55.38 58.93 61.99 62.99 64.36 65.25 65.81 66.67 66.65 67.45 66.62 68.28 70.07 70.18 71.11 71.71 72.25 72.43 72.01
33.09 37.07 41.60 40.43 41.05 38.04 38.02 36.30 35.03 34.15 39.99 51.66 52.91 53.38 55.98 56.75 59.15 63.97 64.61 65.38 62.00 65.04 66.79 66.64 66.72 69.13 70.68 71.12 72.23 72.87 73.17 72.22
28.95 33.77 38.87 37.42 40.42 41.79 36.61 31.09 33.35 36.63 40.12 44.57 49.74 50.92 53.18 55.91 56.24 58.98 64.55 64.06 63.22 63.52 64.69 65.93 66.48 66.92 70.72 71.10 72.51 72.95 73.26 73.06
37.36 39.46 39.92 39.31 39.34 40.76 38.39 37.84 32.35 38.33 40.22 44.00 47.78 48.97 52.06 53.58 54.28 54.88 56.58 62.50 63.00 62.88 63.35 67.28 66.53 67.77 70.03 71.89 71.82 73.29 73.28 73.33
34.75 39.26 39.34 37.81 40.22 41.24 41.20 41.38 40.32 40.80 40.45 43.56 46.17 47.40 47.71 47.81 49.23 50.18 51.33 55.54 57.00 59.64 61.86 66.69 66.75 66.02 66.05 69.95 72.00 72.26 73.22 73.23
29.55 37.06 37.18 33.08 38.00 39.90 41.09 42.78 40.75 36.98 40.70 44.81 44.44 46.48 46.07 47.05 49.37 50.10 50.47 52.57 56.99 58.46 65.63 65.80 64.71 66.25 65.56 65.60 72.72 72.19 72.15 73.27
29.57 32.44 24.17 36.70 43.07 43.69 42.01 43.01 43.96 43.82 43.84 45.11 45.23 46.60 47.73 48.34 48.90 51.29 53.26 55.56 62.94 61.48 68.25 68.90 69.10 66.74 66.78 66.93 68.43 72.07 71.79 72.22
26.29 27.93 33.22 37.14 40.12 39.87 37.87 37.76 44.05 42.93 44.68 46.16 47.58 47.33 45.93 51.81 51.91 52.89 53.57 55.55 61.59 59.24 65.42 68.63 67.56 66.06 66.33 66.45 66.04 65.51 71.56 71.80
33.21 25.45 23.78 34.17 42.04 44.67 42.56 32.34 43.94 44.87 44.29 44.05 44.60 39.05 43.06 49.30 50.29 52.47 53.41 54.57 60.22 60.81 64.93 66.83 68.63 66.53 65.18 65.39 64.84 66.78 68.32 72.51
32.91 32.08 34.30 39.26 41.80 46.02 33.20 32.97 43.19 44.29 43.71 43.09 40.50 42.02 45.96 48.89 50.00 52.21 53.10 54.53 62.45 64.23 64.89 66.93 69.41 70.21 68.60 67.74 65.73 71.28 72.34 73.60
32.91 31.28 26.88 41.12 40.65 35.77 39.15 41.06 41.68 42.63 43.61 42.93 43.69 44.77 45.57 48.05 49.63 51.62 52.65 56.13 62.95 62.41 63.18 65.95 69.63 69.43 69.49 69.44 71.06 72.60 73.24 73.06
32.70 33.00 39.51 41.62 40.00 41.72 41.76 39.89 40.30 41.32 43.09 44.10 42.97 43.72 45.27 46.42 49.62 51.35 57.16 58.89 60.19 60.02 60.73 64.56 66.36 66.96 68.40 69.52 71.56 72.28 73.91 73.03
33.14 38.45 38.62 39.82 41.02 42.31 41.92 41.61 42.04 41.99 43.26 43.77 42.69 44.54 44.90 47.06 49.35 55.43 56.56 56.45 58.00 58.25 61.54 62.08 61.67 62.98 66.56 68.83 70.03 71.70 72.86 74.15
35.16 37.97 39.34 40.17 40.06 41.02 41.12 41.24 42.62 44.37 43.69 43.55 44.24 45.28 47.58 49.26 52.61 54.68 56.10 57.07 57.26 57.46 57.66 57.80 58.81 60.66 62.91 64.00 66.31 68.38 72.31 74.40
32.35 38.97 38.45 38.65 41.38 41.85 40.31 40.66 42.39 43.11 45.64 46.78 48.67 48.81 48.85 50.38 54.72 55.37 55.63 56.36 55.95 55.89 56.49 56.95 57.06 57.60 58.81 60.06 62.50 65.84 69.66 73.23
39.09 42.24 42.52 42.59 42.71 43.07 41.69 41.50 42.18 43.16 44.85 46.83 47.33 47.42 47.26 53.09 55.17 55.37 55.69 55.83 55.19 54.73 54.36 55.53 54.90 54.97 56.40 57.68 60.67 63.32 67.81 72.68

GFSFLT2_sfc_wetblb_060.txt.gz
Wetbulb
46.11 44.60 45.96 42.74 38.79 41.36 35.61 34.22 34.31 37.38 41.75 47.07 52.82 52.23 60.50 60.52 60.44 60.87 62.89 64.80 66.44 67.18 66.91 66.77 67.48 67.77 68.74 69.82 69.41 69.24 69.38 69.40
44.36 44.93 45.90 44.47 45.17 38.37 35.20 29.66 29.32 35.59 37.53 40.02 46.80 51.37 57.12 59.12 59.41 61.35 64.99 65.47 66.75 67.06 67.27 67.24 68.01 68.25 68.89 69.52 70.05 70.20 69.86 69.45
39.99 36.87 36.05 37.60 37.09 38.07 37.27 35.79 31.41 31.07 36.33 45.92 49.55 52.58 53.02 59.50 60.83 62.73 64.35 65.10 66.14 67.07 67.31 67.69 68.16 68.36 68.49 68.80 69.22 70.58 71.07 70.27
34.84 40.55 42.37 39.71 36.73 34.38 32.44 31.76 33.80 35.44 37.14 49.27 51.62 52.89 52.37 53.96 60.94 63.48 64.62 65.73 66.41 67.18 67.27 67.24 67.56 68.06 68.34 68.93 69.01 69.53 71.33 71.00
32.11 34.29 38.79 36.91 38.60 35.59 33.14 30.92 30.54 30.76 33.83 48.16 51.62 51.97 51.99 52.12 59.46 63.68 64.81 65.24 65.49 64.19 62.75 64.12 66.68 68.20 68.34 69.16 69.39 69.63 70.50 70.94
26.02 30.02 35.18 34.43 37.95 38.93 32.42 27.77 29.34 31.33 34.40 40.87 44.80 46.20 47.79 50.82 54.74 62.86 63.58 64.29 63.48 63.25 63.34 64.28 64.93 65.19 67.03 69.06 70.61 70.31 70.23 70.53
31.78 36.77 37.55 36.99 37.35 38.48 34.65 33.28 29.99 34.22 34.97 38.01 40.79 43.98 45.33 48.14 50.45 58.16 61.99 63.54 59.19 59.72 59.82 61.17 63.90 65.36 66.85 68.40 70.43 71.30 70.57 70.67
31.99 37.59 37.59 35.78 38.26 39.00 38.68 38.77 37.83 38.14 35.79 40.64 42.05 44.90 45.75 48.10 49.14 50.45 52.11 55.48 57.02 59.42 62.83 64.79 64.43 61.85 66.73 67.20 68.65 71.78 71.19 71.06
25.14 34.35 34.53 30.30 35.34 37.52 38.14 39.19 37.58 33.94 37.74 41.17 42.19 43.93 45.06 47.43 50.65 51.28 51.78 53.42 54.00 57.62 65.21 66.43 66.28 66.10 64.96 65.77 67.47 68.33 71.52 71.92
27.07 30.33 21.84 32.55 39.66 40.56 38.66 40.47 40.97 40.53 42.52 43.69 43.69 44.96 47.38 48.29 47.86 48.44 50.56 51.16 51.70 53.43 59.72 65.68 66.30 67.16 66.69 67.04 66.96 66.58 67.08 71.59
27.70 23.80 30.16 35.60 37.68 37.41 36.05 35.44 42.31 40.64 42.43 43.75 43.98 44.59 43.92 47.50 48.70 49.13 50.07 50.40 51.88 53.54 58.43 65.52 65.08 66.75 67.25 67.60 67.35 66.46 66.21 65.88
31.10 25.54 22.27 32.61 38.26 41.83 41.40 29.83 39.83 40.57 40.06 40.33 41.60 35.66 39.12 45.03 47.92 49.28 50.39 51.01 51.37 53.53 60.54 64.72 68.14 66.78 65.18 66.35 67.57 64.77 65.85 65.97
31.38 29.19 32.90 36.92 39.66 42.76 28.82 30.72 39.36 39.75 39.39 39.25 37.63 39.58 42.78 45.24 46.01 48.59 49.38 50.49 52.43 54.76 62.51 64.61 65.99 65.66 64.23 64.55 64.29 65.68 66.85 66.40
29.00 28.77 25.84 39.71 39.33 33.50 36.57 38.78 39.75 39.14 39.37 38.97 39.97 41.81 43.41 44.20 44.27 46.20 47.76 49.96 57.07 57.79 60.09 63.26 65.92 67.05 68.26 67.22 67.91 66.22 65.60 65.74
32.46 28.89 36.86 37.98 37.70 39.66 40.49 38.91 38.98 39.03 39.55 40.82 40.74 41.18 42.56 42.78 43.65 45.36 47.72 50.25 57.20 58.19 57.68 61.66 64.67 64.28 63.82 66.66 69.67 69.90 69.86 70.21
33.31 34.91 35.84 39.11 41.57 41.89 41.51 40.14 40.12 40.39 41.27 42.67 41.62 43.26 42.30 42.65 43.66 45.29 47.99 49.91 56.08 56.58 58.31 59.18 59.60 60.90 60.86 63.90 65.04 65.26 66.48 68.28
34.54 36.64 38.42 39.58 40.48 42.06 41.83 42.27 41.24 41.89 42.48 42.29 44.91 43.45 42.91 43.55 44.34 46.93 48.79 52.34 55.27 56.31 55.57 56.52 57.22 58.04 58.61 60.04 60.72 61.48 62.69 65.76
30.00 35.80 36.42 37.85 40.76 43.48 41.67 40.98 41.93 41.17 41.54 42.85 44.50 45.90 47.16 46.59 46.98 47.41 49.21 53.72 54.66 54.07 55.67 56.17 55.67 55.05 56.01 55.96 57.07 58.44 60.32 63.52
37.04 39.69 40.25 41.96 42.59 44.36 42.16 41.92 42.35 42.03 42.63 42.23 43.28 45.07 45.82 45.87 47.46 51.20 51.48 55.17 54.51 52.64 52.10 53.21 53.11 53.85 54.35 54.24 54.84 55.23 57.69 61.04

GFSFLT2_sfc_wetblb_063.txt.gz
Wetbulb
44.33 43.00 42.28 40.22 37.65 39.26 33.07 31.15 33.11 35.06 39.61 45.33 52.15 52.14 53.98 60.12 62.49 62.87 64.42 64.90 65.70 65.32 65.66 66.33 66.40 66.66 68.60 68.38 68.34 68.82 68.82 68.75
42.24 43.28 42.52 39.33 42.57 36.24 33.59 28.78 27.98 33.32 35.18 39.59 45.88 47.65 51.08 57.66 60.53 62.66 64.14 65.03 64.31 65.89 65.24 66.42 67.22 67.61 68.40 69.14 68.55 68.72 69.13 69.25
37.99 35.88 35.19 35.82 33.62 32.38 34.24 32.91 29.72 29.74 34.50 45.89 46.13 46.97 48.26 52.87 59.40 62.28 61.35 62.30 64.05 65.46 66.52 66.11 67.21 67.59 67.86 68.73 68.55 68.51 68.88 69.15
32.05 38.63 41.83 39.72 33.22 30.56 29.19 29.83 30.98 33.18 34.49 44.09 46.74 47.27 48.36 58.04 58.41 60.32 62.56 63.32 65.83 66.45 65.94 65.63 65.88 66.28 66.66 68.30 68.74 68.92 69.13 68.84
27.68 32.87 36.86 34.87 36.47 32.89 29.90 27.01 26.73 28.24 32.02 43.83 43.44 44.30 46.65 56.32 61.10 63.32 63.76 63.23 62.62 63.10 63.87 64.79 65.27 65.91 66.64 67.47 68.14 69.28 69.54 68.96
24.79 28.19 32.94 32.44 35.97 36.21 30.97 27.38 27.96 29.64 32.64 37.57 40.62 42.35 44.50 46.89 53.09 59.87 62.79 58.84 59.87 60.76 62.81 64.17 64.30 64.65 65.44 67.54 68.55 68.78 69.34 69.63
30.47 34.33 35.60 34.89 35.93 36.78 32.65 31.63 28.79 32.10 33.12 37.33 39.08 40.39 43.00 48.15 50.83 52.23 54.47 53.05 54.68 58.70 60.29 63.82 64.63 63.26 64.47 66.11 68.31 69.01 68.49 69.06
30.54 35.40 35.60 33.87 36.61 37.40 37.10 36.95 36.28 36.31 34.19 39.57 42.00 43.17 46.01 46.45 48.10 47.58 49.10 51.08 53.46 53.54 55.00 59.15 64.60 66.01 63.89 64.35 66.88 69.43 68.63 68.31
24.46 32.41 32.80 28.28 33.79 35.65 36.08 37.52 36.28 32.66 35.56 41.46 41.14 42.76 43.51 43.50 44.95 45.80 47.01 47.93 49.08 52.07 54.71 54.47 62.18 65.93 65.77 65.46 66.50 68.80 69.29 69.14
24.58 28.02 18.94 30.44 37.75 39.26 37.55 39.78 40.22 40.18 40.91 41.34 41.31 42.90 44.42 44.29 44.01 45.15 46.94 47.03 48.34 49.46 52.00 53.65 59.02 63.52 66.35 67.09 65.71 66.44 69.33 69.92
23.38 20.62 28.75 34.07 35.88 34.72 33.83 34.48 38.94 37.93 39.10 40.27 41.32 42.50 42.49 44.55 45.02 44.97 46.32 47.44 48.54 50.52 50.67 52.77 59.84 66.49 66.71 66.06 66.87 66.48 66.72 68.43
28.13 22.43 21.98 31.64 37.29 40.29 39.24 30.45 38.15 38.38 37.61 37.93 39.02 34.61 38.81 42.89 44.32 44.87 46.75 47.28 48.71 50.07 52.21 56.55 60.71 64.71 65.58 65.07 66.60 66.93 66.56 66.20
30.32 30.38 31.17 36.16 38.22 40.48 29.22 29.75 37.62 38.74 37.64 37.17 35.77 39.59 40.40 42.46 42.97 45.17 46.06 47.28 48.72 49.74 53.00 57.81 60.60 62.99 64.21 64.88 64.81 66.26 66.84 66.04
28.09 25.56 20.52 38.43 37.70 30.40 34.18 37.69 39.46 38.67 38.80 37.90 38.84 40.02 41.54 42.43 42.64 43.73 44.58 46.01 47.69 48.06 50.41 56.81 60.04 61.08 62.83 63.44 65.97 69.19 69.30 65.75
27.53 26.56 34.58 37.34 36.30 40.96 41.44 39.04 38.66 38.66 39.54 39.75 39.10 39.55 42.73 43.06 43.53 43.86 43.93 44.70 46.60 47.85 49.67 55.55 59.62 61.86 61.88 61.86 62.95 64.93 64.52 65.58
29.64 31.57 34.40 36.27 38.25 39.76 42.31 41.05 41.30 41.52 41.45 40.77 39.51 40.85 42.44 44.70 44.06 43.97 45.09 44.86 46.56 47.58 49.49 53.47 58.71 61.60 60.69 60.59 61.72 61.08 61.60 63.47
33.93 34.32 35.66 38.03 39.12 40.11 41.27 43.24 41.88 42.34 42.14 41.31 41.65 41.92 42.65 44.83 46.07 46.59 47.50 47.92 47.90 48.40 49.46 53.64 57.99 58.82 59.46 59.27 57.97 57.32 58.72 61.26
28.84 34.05 33.60 34.33 39.38 41.68 41.33 42.26 42.25 41.76 41.22 42.60 42.84 42.05 43.24 43.29 45.40 45.57 47.02 47.31 48.18 48.33 49.53 53.50 56.30 56.79 57.29 56.10 55.35 54.88 56.50 59.45
34.80 36.83 37.80 39.30 41.18 42.78 41.93 42.89 43.51 42.49 42.10 41.26 42.15 41.89 42.29 42.91 44.97 45.89 46.47 46.60 47.13 48.85 51.00 54.59 53.01 53.10 53.85 53.31 52.93 52.89 53.59 56.18

GFSFLT2_sfc_wetblb_066.txt.gz
Wetbulb
42.89 41.83 41.00 38.20 35.86 38.02 32.58 29.48 31.26 34.22 39.37 46.01 49.49 48.68 49.79 51.70 60.05 62.57 63.54 64.93 65.37 65.92 65.71 65.74 66.01 66.48 67.61 67.97 67.95 68.54 68.94 68.80
41.06 41.79 40.77 38.63 39.03 34.69 32.69 28.70 27.56 32.68 36.03 38.35 42.95 45.05 47.30 49.94 55.21 60.56 62.89 62.96 64.54 65.70 65.33 66.21 66.40 66.65 68.28 68.56 68.22 68.61 69.17 69.12
37.02 34.31 32.57 35.25 32.69 31.73 33.12 31.48 29.69 28.86 34.40 42.72 42.64 44.90 44.53 56.78 60.95 57.95 63.04 64.21 65.05 65.66 65.37 66.42 66.82 66.58 67.48 68.64 68.45 68.41 69.22 69.27
30.62 37.15 39.30 36.84 32.57 29.75 31.55 30.58 28.60 31.75 33.68 41.96 41.35 43.04 46.71 54.07 61.42 61.76 61.93 63.89 65.52 65.90 65.85 65.59 66.21 66.74 66.66 67.99 68.36 68.75 69.11 69.29
27.99 32.05 35.37 33.89 34.90 30.41 28.74 27.00 26.31 29.01 31.68 41.85 41.95 43.12 47.64 52.05 52.64 52.91 57.37 60.30 61.26 63.17 64.60 65.60 66.25 66.56 66.86 67.48 68.49 68.98 69.12 69.12
26.03 28.23 31.57 31.89 35.02 35.03 30.10 27.31 27.34 29.34 32.83 37.53 39.33 40.75 45.30 47.71 49.60 50.89 51.45 52.26 54.36 56.95 60.10 64.80 65.48 65.94 66.73 67.29 68.00 69.09 69.00 68.70
30.44 34.44 34.93 34.12 34.76 35.61 31.90 31.79 29.68 31.95 34.04 36.93 38.96 40.78 43.57 45.36 46.86 47.31 47.79 49.92 50.98 52.14 53.75 54.80 60.72 66.44 66.86 65.79 67.90 68.51 68.69 68.87
28.89 34.52 34.26 33.04 35.50 36.47 35.99 36.03 34.88 35.18 34.96 40.16 41.98 43.92 43.70 43.39 44.81 45.17 46.00 47.16 49.04 50.22 52.27 52.73 56.16 59.12 65.32 66.10 65.57 68.33 68.20 68.40
22.24 31.19 30.97 27.34 32.26 34.27 35.49 36.79 35.85 32.16 36.14 40.65 39.94 40.96 41.70 42.52 43.23 43.92 44.81 46.29 46.87 48.56 50.35 51.63 53.86 58.03 62.59 65.86 67.56 66.61 68.04 68.68
23.60 24.34 18.03 28.88 36.97 37.64 37.02 38.73 38.36 38.95 38.65 39.18 39.19 40.52 41.95 44.39 42.59 42.59 43.57 44.92 45.97 47.25 49.25 50.58 52.78 58.18 64.35 67.04 67.11 66.82 67.66 69.20
21.77 17.91 27.14 32.95 34.86 33.69 32.80 33.69 37.56 36.83 37.67 38.39 39.37 40.35 41.88 44.04 43.51 42.66 43.29 44.77 46.11 47.67 49.10 50.17 52.64 58.64 63.60 65.66 66.49 67.40 67.33 68.28
23.10 22.49 21.76 31.01 36.82 39.10 38.15 30.54 36.92 37.67 37.04 36.93 37.59 32.30 37.98 42.01 42.78 42.82 44.06 45.04 45.74 47.25 48.32 49.03 50.89 57.40 61.07 62.20 65.37 65.73 67.31 67.87
26.46 25.70 29.73 35.28 37.71 40.26 27.79 29.27 37.01 38.14 37.81 37.65 35.54 37.74 40.14 42.08 42.22 43.60 44.19 45.59 47.08 47.16 46.86 47.90 50.27 53.50 57.94 59.82 62.12 66.87 68.61 68.33
28.50 25.25 19.18 38.17 36.77 30.95 33.47 36.71 38.36 38.29 38.62 37.79 39.19 40.02 40.66 41.42 41.50 42.62 43.98 46.53 47.23 46.10 46.17 47.71 49.58 51.41 55.09 58.55 62.69 66.35 65.82 66.51
25.21 24.74 33.34 37.43 35.87 38.49 39.19 38.20 39.21 39.56 39.64 40.24 40.23 40.10 40.81 40.50 41.41 43.25 45.52 46.86 46.79 45.63 46.08 47.72 49.40 50.83 52.86 57.57 63.91 63.89 64.47 63.94
27.97 30.87 33.50 35.90 38.17 39.82 40.33 39.47 41.11 41.48 41.16 41.23 40.17 40.95 40.80 41.27 42.01 43.88 45.90 46.69 46.88 46.69 46.64 47.32 49.53 51.02 52.44 56.68 61.86 61.99 61.44 62.09
33.85 33.55 34.49 36.52 38.34 39.60 40.01 41.27 41.79 43.39 42.34 40.65 41.28 41.40 42.03 42.36 42.92 43.93 44.88 46.59 47.44 46.65 46.47 47.66 49.96 50.71 51.84 54.95 59.83 59.49 58.83 60.20
28.22 33.51 33.56 34.41 38.94 41.11 40.41 40.82 42.15 42.46 41.13 42.88 42.54 41.46 41.64 41.40 42.29 43.03 43.97 45.89 46.15 46.26 46.45 47.32 48.92 50.27 51.77 54.67 58.22 56.85 56.64 57.80
34.56 36.06 36.97 38.74 40.29 41.77 41.31 42.19 43.30 43.36 42.74 41.92 42.33 42.90 42.60 41.65 42.12 43.74 44.25 44.55 45.15 45.41 46.47 46.91 47.96 51.45 52.67 56.00 55.74 54.26 53.74 54.99

GFSFLT2_sfc_wetblb_069.txt.gz
Wetbulb
45.47 46.26 47.16 45.52 44.69 48.18 43.03 42.06 43.18 44.81 47.29 50.17 51.13 53.42 57.11 62.09 63.75 64.34 67.47 68.78 68.73 69.03 69.49 70.24 70.74 71.19 71.55 71.71 72.00 72.22 72.46 73.96
43.98 45.94 46.80 46.94 46.57 43.48 44.76 38.65 38.57 41.67 44.12 44.23 45.99 50.01 55.23 59.51 61.99 62.99 66.05 68.41 69.22 69.22 69.09 70.03 71.04 71.61 71.96 72.26 72.07 72.49 72.52 73.15
44.11 41.26 40.54 44.92 44.04 43.47 45.37 43.38 41.21 39.68 42.02 45.60 47.12 52.18 52.32 52.52 58.06 63.37 65.90 66.56 68.76 69.73 69.84 70.31 70.68 71.01 71.30 71.73 72.12 72.10 72.57 73.45
39.12 42.68 43.31 43.37 40.67 41.09 43.42 41.15 41.76 44.94 40.25 47.26 50.79 52.61 50.71 50.36 52.81 56.35 60.76 64.04 67.21 68.65 68.92 69.31 69.81 70.18 70.42 71.21 71.20 71.57 72.92 73.32
37.70 41.23 42.71 40.96 41.96 40.83 39.56 41.72 38.79 41.63 39.19 47.70 51.75 50.40 50.29 48.43 48.38 49.84 52.17 53.77 56.73 58.22 60.01 66.88 69.22 69.82 70.03 70.43 71.22 70.90 71.50 71.35
37.56 37.82 40.63 38.86 40.29 41.61 41.38 41.22 38.75 40.25 40.75 44.87 47.81 47.64 48.23 49.29 48.23 48.13 49.02 49.51 50.78 52.08 54.59 57.48 61.25 66.56 69.37 69.63 70.86 71.71 71.53 70.49
39.48 39.91 40.32 39.67 39.22 40.14 39.88 40.38 39.76 40.50 41.37 43.77 46.83 47.23 47.67 48.98 49.82 49.02 47.60 48.13 48.70 49.24 50.86 52.52 54.76 59.75 65.32 68.35 68.93 70.90 71.73 71.66
36.57 39.20 39.43 37.84 39.16 39.56 39.67 40.23 40.62 41.26 41.03 45.48 46.84 48.32 48.38 48.32 48.58 48.47 48.67 48.38 47.97 48.58 49.60 50.26 52.44 55.02 60.73 65.86 67.73 69.04 69.34 71.18
33.61 37.15 37.14 34.55 37.78 38.84 40.35 42.47 41.91 39.90 42.28 44.71 44.92 45.36 45.82 46.59 48.03 47.34 47.51 48.48 48.89 48.45 48.22 49.60 50.86 52.48 58.21 63.80 67.75 68.49 68.99 69.47
34.61 35.20 27.76 37.22 41.41 40.64 40.92 41.22 43.06 43.42 42.50 42.80 43.02 44.62 46.35 48.28 47.23 47.14 47.17 47.78 48.83 50.03 49.99 50.24 50.67 51.47 55.66 60.99 63.66 66.61 70.04 69.15
33.38 32.10 34.11 36.36 38.57 38.29 38.72 37.49 40.31 40.21 41.63 42.56 43.51 45.35 46.61 47.37 47.63 46.98 47.31 48.25 49.16 50.68 51.62 52.64 52.27 51.52 51.69 55.90 60.26 62.45 67.16 69.87
35.44 30.38 29.16 37.05 39.45 42.03 42.17 35.93 40.36 40.73 40.48 41.17 42.13 40.28 45.01 47.00 46.55 46.57 47.85 48.41 48.80 50.51 52.30 52.77 53.01 52.19 51.43 52.50 56.59 60.22 62.95 67.66
35.65 33.93 36.24 40.74 40.86 43.36 34.15 36.15 40.92 41.06 40.84 40.55 39.49 41.39 43.83 45.75 45.97 47.17 47.41 47.87 49.54 50.67 51.58 52.57 53.25 53.16 51.81 51.29 51.95 57.49 62.05 67.31
33.50 31.17 29.44 42.90 40.26 37.06 40.35 41.79 41.87 41.91 41.57 40.63 42.24 43.37 44.37 45.33 45.70 46.39 46.29 47.19 49.03 50.18 51.02 52.39 53.22 53.00 52.69 52.30 52.73 56.71 60.01 65.07
36.52 37.02 40.92 43.66 42.44 44.17 43.50 41.58 42.42 42.36 42.11 42.53 42.45 42.97 43.81 44.41 45.26 45.63 46.39 47.29 48.76 49.27 50.69 51.75 52.86 53.22 52.55 54.26 54.84 54.57 59.17 63.77
35.72 40.32 40.39 42.69 43.97 44.40 44.82 43.61 44.15 44.07 43.50 43.93 43.16 43.65 43.45 43.91 43.45 44.45 44.39 44.64 46.66 47.80 48.56 49.26 51.39 52.22 52.59 53.73 55.52 54.06 55.63 60.89
38.10 41.00 40.86 42.26 43.98 45.10 44.97 45.46 44.93 45.81 45.94 45.40 44.15 43.65 44.17 43.99 43.24 43.09 43.09 43.65 44.41 45.62 47.04 48.84 50.69 50.95 51.86 52.49 53.67 54.57 53.56 58.00
39.52 43.41 43.65 43.00 45.18 46.07 45.06 44.88 46.25 46.38 46.13 46.90 46.58 45.45 45.22 44.45 44.17 43.44 43.88 44.97 45.04 45.64 46.22 47.27 48.84 49.42 50.90 52.58 53.53 54.82 54.22 55.90
43.17 45.19 44.92 45.79 46.35 46.98 45.96 46.41 47.14 47.19 47.61 46.55 47.20 47.01 46.39 45.78 46.48 46.19 44.97 45.32 44.92 45.00 45.79 45.71 46.51 47.49 50.15 51.63 52.06 54.13 54.42 56.51

GFSFLT2_sfc_wetblb_072.txt.gz
Wetbulb
49.18 50.73 51.78 52.57 50.32 53.98 48.32 49.27 47.67 48.85 51.33 53.34 56.06 60.56 61.57 63.66 65.86 66.55 70.04 70.99 70.71 71.73 72.21 72.55 72.89 73.36 74.04 74.55 75.29 75.57 75.63 76.16
47.45 49.82 50.54 51.24 54.03 47.74 48.63 43.31 42.55 47.14 48.80 47.85 52.43 57.20 59.45 59.07 60.59 66.52 68.50 70.58 71.47 71.09 72.21 72.91 73.50 73.87 74.59 74.83 75.19 75.79 75.98 75.85
48.23 47.22 47.97 48.51 48.40 49.72 50.71 49.11 45.13 44.24 46.36 50.91 54.09 55.63 56.31 56.97 56.18 58.93 62.25 65.75 66.40 69.78 71.72 72.62 73.66 73.84 73.98 74.44 74.89 75.35 75.83 76.07
45.34 46.70 48.06 48.76 48.69 50.12 46.38 46.50 48.91 48.56 44.23 54.02 55.97 54.75 52.19 52.08 53.02 54.01 56.11 57.54 59.10 60.04 60.43 66.55 72.18 73.02 73.57 74.30 74.27 75.04 75.71 76.08
42.16 45.49 47.18 46.84 47.66 48.47 49.09 49.98 48.20 45.55 43.65 55.20 55.92 56.39 50.49 48.95 49.45 50.98 52.06 52.35 52.44 52.92 54.22 57.23 62.95 65.95 71.74 73.17 73.86 73.91 74.70 74.90
40.80 43.41 47.04 44.44 44.78 46.76 48.13 46.42 47.96 48.18 46.03 50.82 52.83 53.33 54.58 49.64 48.57 49.55 50.51 51.23 51.03 51.05 53.09 54.96 56.69 58.49 64.99 69.96 72.99 73.74 74.33 74.18
43.45 43.89 44.78 44.44 43.81 44.28 45.97 47.32 46.45 47.70 47.56 50.33 51.93 52.13 52.88 54.25 53.55 49.41 49.25 50.03 50.92 50.49 51.08 53.39 53.77 54.87 59.18 64.85 68.29 72.01 72.61 73.82
42.38 43.56 44.06 42.62 43.44 43.56 43.84 44.92 46.85 48.35 46.37 51.49 52.37 53.34 52.68 52.98 53.02 52.61 51.81 50.53 51.18 52.13 51.82 51.51 52.64 53.31 55.32 57.90 64.22 67.51 71.39 71.99
41.10 42.44 41.74 39.52 43.85 43.43 44.61 46.04 46.64 45.25 48.43 49.92 49.83 49.75 50.09 51.02 52.60 52.23 51.98 52.77 53.28 51.29 51.24 53.10 53.96 55.59 53.83 55.92 61.18 63.18 65.03 71.31
43.70 41.15 33.71 42.82 46.32 45.79 45.47 45.89 47.90 48.08 47.66 48.09 48.54 49.83 51.17 53.10 51.50 51.29 51.62 52.13 53.13 53.91 54.13 53.79 54.35 54.18 56.54 56.85 57.85 60.01 62.40 66.57
38.49 38.42 40.05 40.83 43.31 43.68 44.29 43.20 46.04 46.35 46.48 47.32 48.43 49.79 51.35 51.81 51.64 51.25 51.71 52.55 53.12 54.20 54.96 56.74 57.54 55.96 55.33 54.36 54.06 55.54 58.77 62.10
39.98 36.19 33.93 43.24 44.24 46.60 46.72 41.07 46.11 46.40 45.93 46.12 47.99 44.76 48.58 50.77 50.91 51.35 52.33 52.88 52.88 53.60 54.65 55.98 57.49 57.89 57.19 57.23 55.13 53.79 55.18 58.32
39.86 38.18 41.84 45.25 45.19 47.58 37.62 41.46 46.72 46.42 46.67 46.65 45.95 47.14 48.98 50.41 50.59 51.69 51.88 52.15 52.98 53.45 53.87 55.61 57.03 57.10 56.69 57.77 57.84 57.68 56.74 57.33
41.10 37.76 34.47 47.65 45.02 41.72 46.29 47.23 46.73 46.46 47.06 46.62 46.77 47.02 48.01 49.03 49.42 50.35 50.74 51.36 51.99 51.97 52.98 54.87 56.17 56.16 55.90 56.33 58.15 58.73 58.19 56.01
41.79 43.48 46.04 49.04 47.17 48.53 47.41 46.86 46.54 47.13 46.91 46.89 46.01 46.82 47.72 47.99 48.93 49.26 49.61 49.74 50.12 49.66 50.28 52.15 54.42 55.35 54.48 56.12 57.29 57.42 57.58 58.43
41.18 44.56 45.78 48.03 48.36 48.40 48.28 47.65 48.17 47.78 47.67 47.62 46.65 47.55 47.40 48.21 48.39 48.42 49.13 48.81 49.49 48.17 48.64 49.53 52.20 53.47 54.53 55.65 56.43 56.24 55.89 57.27
43.51 45.64 45.80 47.40 48.69 49.16 48.68 48.70 48.14 48.14 48.14 47.70 47.89 47.59 48.04 48.23 48.54 48.95 49.58 49.28 48.60 47.63 47.10 48.53 50.53 50.81 51.59 53.24 54.05 53.74 54.95 55.85
43.50 47.92 47.49 46.35 49.84 50.14 48.72 48.17 48.85 48.23 48.19 49.08 48.85 48.43 49.05 49.14 49.59 48.88 49.07 48.05 47.18 48.84 47.45 47.54 48.84 49.55 51.49 51.93 50.87 51.23 52.70 54.43
47.76 49.66 49.53 49.42 49.88 50.45 49.32 49.67 50.07 49.75 49.79 48.99 49.55 49.70 49.67 47.94 48.03 48.92 47.72 47.27 47.73 47.14 46.43 47.47 47.30 47.02 49.03 51.43 49.57 49.78 49.40 52.20

GFSFLT2_sfc_wetblb_075.txt.gz
Wetbulb
54.56 57.40 57.46 54.45 52.13 55.48 50.86 51.60 48.74 51.55 53.21 57.18 61.84 62.59 63.39 65.48 67.13 65.96 69.52 68.73 70.54 71.00 72.14 70.74 71.53 73.00 73.59 75.68 76.05 76.63 76.40 77.26
52.10 53.39 55.22 53.81 56.56 50.88 51.44 45.66 44.89 49.23 50.38 51.17 57.53 59.37 61.24 60.82 63.16 65.54 65.30 64.98 64.68 67.56 70.84 71.48 71.92 73.04 73.36 74.52 75.68 76.75 76.85 76.78
50.92 49.70 50.00 51.31 51.50 53.28 53.24 50.74 47.09 46.17 48.24 57.08 58.27 59.32 58.75 55.14 57.99 59.47 59.80 61.64 63.17 62.51 65.21 67.52 68.45 72.45 72.98 74.31 75.10 76.12 76.62 76.95
47.82 51.82 52.20 52.36 51.71 52.71 48.56 48.57 50.34 49.48 46.36 58.51 58.67 57.91 55.99 52.53 53.42 56.41 55.05 53.97 58.60 59.93 61.33 61.02 64.06 66.32 68.76 73.20 74.43 75.36 76.44 77.57
45.34 48.39 51.26 49.56 51.50 52.29 52.40 52.09 50.03 47.32 47.61 58.23 57.58 54.69 53.44 51.66 51.86 52.43 53.99 54.63 52.92 56.55 55.56 55.32 60.13 65.35 66.92 69.33 72.01 74.37 75.77 75.80
42.54 45.85 49.41 47.74 48.90 50.56 50.83 48.13 49.46 49.89 50.55 53.97 55.97 52.84 50.20 50.78 51.54 53.10 52.67 52.40 53.38 51.59 54.09 54.62 56.10 57.78 63.25 65.07 70.38 70.84 72.65 75.33
46.67 47.05 48.70 48.87 48.45 48.18 48.36 50.24 48.41 50.13 51.48 53.73 55.22 56.11 54.09 52.23 51.49 51.39 51.49 51.93 52.35 52.60 52.96 54.33 56.24 56.31 57.24 61.72 65.39 68.16 69.92 72.35
43.81 46.00 46.16 44.96 46.59 46.74 48.07 49.06 50.22 51.75 51.17 55.50 55.90 56.57 55.95 56.25 55.11 51.78 51.56 52.74 52.86 53.13 53.78 54.39 54.74 56.95 57.63 58.25 60.91 64.68 65.55 69.65
42.22 45.21 43.52 40.99 45.45 46.56 47.50 48.98 50.43 49.46 52.10 54.75 53.83 54.00 54.10 55.59 55.05 54.25 54.66 53.70 54.36 54.82 55.57 55.92 56.17 56.90 57.55 58.97 59.41 60.57 62.42 64.17
43.66 45.80 36.37 44.59 48.79 48.44 47.32 48.93 52.13 52.28 52.70 54.13 53.62 53.73 54.63 55.67 54.32 53.55 54.18 54.74 55.73 55.97 56.11 56.19 57.42 57.74 59.18 59.72 59.61 59.33 60.02 59.50
41.49 42.33 44.57 44.94 46.11 45.50 46.48 45.54 50.16 51.00 51.16 51.77 52.32 53.54 53.36 54.17 53.76 53.60 54.22 55.10 55.67 56.33 56.64 58.24 58.94 59.81 60.10 59.50 59.56 59.72 59.02 58.98
43.69 39.27 37.80 45.58 48.19 50.23 49.87 43.53 49.88 51.09 50.06 49.81 50.63 47.15 51.23 53.05 53.25 53.65 54.57 55.43 55.25 55.98 56.85 57.36 58.62 59.36 59.31 59.23 59.63 59.83 58.58 59.53
43.07 41.25 45.02 48.83 48.62 49.74 39.95 44.19 50.43 50.46 50.14 49.83 49.70 50.75 51.82 52.47 52.60 53.64 54.09 54.44 55.05 55.46 55.62 56.70 57.86 58.12 58.14 58.75 58.92 60.32 60.87 61.02
43.78 41.61 38.72 50.41 48.07 44.44 49.68 51.59 51.00 50.32 50.26 49.42 50.24 50.18 50.63 51.03 51.26 51.99 52.21 52.75 53.39 53.25 53.63 54.84 55.82 56.14 56.51 57.35 59.29 60.00 59.97 59.96
45.15 45.23 50.90 51.65 50.26 52.93 52.80 51.39 49.94 50.56 50.05 49.25 48.69 49.38 49.85 50.43 50.76 51.17 51.43 52.32 52.93 52.76 52.69 53.91 54.79 55.17 54.47 56.58 57.90 58.29 58.45 58.55
44.22 48.00 48.54 50.71 51.20 51.08 50.54 50.26 50.75 50.56 49.97 49.69 49.39 50.15 50.32 50.73 50.67 51.11 51.94 52.20 52.62 52.16 52.19 52.26 53.83 54.36 54.30 55.02 56.08 55.85 55.62 56.47
45.95 48.35 48.80 50.32 51.41 51.19 50.58 50.78 50.48 50.83 50.48 50.19 50.47 50.16 50.80 51.69 51.67 51.13 51.33 51.88 51.65 50.84 51.15 51.88 53.13 52.94 53.76 54.45 54.32 53.46 53.97 53.96
45.06 50.34 50.23 50.08 52.21 52.75 51.17 50.43 50.99 50.52 50.41 51.10 50.84 49.94 50.91 51.69 51.65 50.93 51.24 51.54 50.58 50.74 50.48 51.86 51.56 51.74 52.48 52.55 52.50 51.52 51.46 52.27
50.11 53.14 52.36 52.49 52.11 53.14 51.74 51.69 52.01 51.62 51.75 50.65 51.44 51.39 51.14 52.15 51.74 51.13 52.07 51.18 50.14 48.60 50.21 50.41 50.40 50.40 51.19 50.33 49.78 49.89 48.11 50.29

GFSFLT2_sfc_wetblb_078.txt.gz
Wetbulb
54.42 54.23 54.73 53.67 51.77 55.81 50.43 50.97 47.76 50.71 55.07 60.16 62.46 63.21 65.45 65.35 64.48 64.79 65.48 65.14 67.14 70.96 71.85 69.97 71.41 70.59 73.79 75.16 76.10 76.54 76.50 77.34
53.04 54.50 55.76 53.70 56.49 50.19 51.18 44.14 43.30 48.52 51.18 52.87 58.11 59.48 61.83 60.70 59.81 59.83 60.90 62.90 64.00 66.10 68.44 69.47 72.15 71.81 74.30 75.88 75.91 76.58 76.59 77.08
52.91 51.13 51.25 52.99 52.19 52.23 52.17 50.93 46.45 44.35 47.21 59.61 58.93 60.21 58.07 57.85 57.02 55.03 56.86 58.08 61.53 61.63 63.85 67.01 69.25 70.53 69.36 75.17 76.06 76.45 76.81 76.85
48.42 52.41 54.05 53.92 52.53 52.49 48.88 48.46 50.63 46.37 46.13 59.82 58.74 57.90 56.27 55.73 56.31 54.04 52.86 55.22 57.80 58.28 58.69 60.15 63.86 66.31 65.95 70.22 70.02 76.06 76.69 77.25
45.89 49.43 51.58 49.37 51.53 52.16 52.12 52.35 50.44 44.23 48.11 58.63 57.06 55.81 54.31 54.43 55.07 54.72 52.34 52.68 55.15 57.71 56.97 57.42 57.52 61.01 64.90 66.06 66.62 69.10 72.59 76.54
40.22 44.75 49.10 47.52 49.60 51.40 50.47 47.31 48.65 47.76 50.91 53.89 54.22 53.66 53.24 53.11 54.03 54.06 54.23 53.72 53.88 55.52 56.28 57.83 56.35 57.88 60.00 64.59 64.65 66.64 68.65 70.79
48.40 48.35 48.03 48.93 48.59 49.76 48.64 50.03 48.34 50.12 52.07 53.64 54.76 53.84 53.57 53.82 53.84 53.38 52.77 53.33 54.57 54.58 55.84 56.74 57.18 57.79 57.02 58.48 62.46 64.99 66.14 68.73
45.57 48.12 47.12 46.19 48.84 48.72 49.37 49.41 50.42 51.89 51.55 56.86 56.09 55.19 54.18 54.36 54.31 53.46 53.64 53.81 54.13 55.45 56.12 56.12 56.54 58.15 59.18 58.49 58.27 62.16 62.96 64.83
42.57 46.75 46.00 42.53 46.28 47.04 47.80 49.86 51.77 48.56 52.06 55.41 54.61 55.23 55.55 55.27 54.91 53.97 54.15 54.95 55.24 55.25 55.90 57.62 57.46 58.74 58.74 60.49 61.00 59.76 60.10 60.96
43.07 44.43 36.34 46.51 50.64 49.42 47.81 49.98 53.60 54.30 54.10 55.03 54.88 55.04 56.29 55.84 54.35 54.10 54.72 55.00 55.52 55.89 56.61 57.83 58.69 58.71 60.42 60.44 61.64 60.97 61.57 60.86
41.36 37.67 43.52 46.23 47.58 47.40 46.44 47.27 53.53 53.47 54.16 54.46 54.49 54.60 52.82 54.30 54.46 54.27 54.71 55.48 55.81 56.15 56.66 59.10 59.36 60.50 61.26 60.47 61.70 61.64 61.37 62.13
43.75 39.39 37.00 45.18 48.19 50.51 50.20 43.44 52.21 53.32 52.68 52.54 52.62 48.44 50.39 53.79 54.26 54.32 54.95 55.40 54.99 56.14 56.88 57.37 58.30 58.54 58.70 60.05 61.09 60.40 60.52 61.79
42.59 41.27 44.16 49.51 49.32 50.43 40.68 43.59 51.94 52.58 52.56 51.48 49.94 51.87 53.27 53.87 53.61 54.33 54.45 54.33 54.75 55.02 54.85 55.52 56.31 56.36 56.69 58.10 58.10 59.80 60.47 60.87
43.02 41.15 39.59 51.19 49.14 44.60 50.15 52.44 51.38 51.58 50.76 50.65 51.42 51.91 52.03 52.28 52.29 52.70 52.50 53.20 53.72 53.54 53.66 54.89 55.43 55.08 55.07 56.52 58.41 58.98 59.49 59.67
45.59 46.13 52.31 52.20 51.78 54.20 53.90 52.07 51.58 51.53 51.39 51.47 50.05 50.38 51.12 51.10 51.72 51.58 51.98 52.72 53.17 52.90 53.15 54.04 54.71 54.51 53.31 55.67 56.84 57.14 57.29 57.30
46.79 49.18 50.34 52.09 52.67 53.13 52.75 53.03 52.50 52.54 51.10 50.48 49.93 50.76 50.35 51.08 51.28 51.61 51.92 52.04 52.33 51.64 51.32 52.13 54.12 54.29 53.89 55.42 56.32 55.50 55.08 55.54
46.35 48.79 49.94 50.40 52.05 51.74 51.10 51.70 51.81 51.64 51.28 50.80 51.28 50.64 51.05 51.02 51.26 51.45 51.34 51.87 51.61 50.69 50.94 51.24 52.99 53.00 52.95 54.25 54.00 51.68 52.49 53.02
45.89 50.51 51.05 51.03 52.86 53.45 51.69 50.65 51.45 51.04 50.76 51.84 51.88 51.13 51.52 51.19 52.31 51.37 51.42 52.19 51.39 51.09 50.43 50.85 51.17 51.44 52.88 53.41 52.34 49.68 48.65 49.52
49.69 52.68 52.70 53.68 55.06 54.31 52.67 52.46 52.08 51.73 52.37 51.79 52.29 52.16 52.02 51.95 52.26 52.02 52.00 51.96 50.77 50.24 50.81 50.67 50.09 49.95 51.12 51.31 50.29 48.97 47.14 47.88

GFSFLT2_sfc_wetblb_081.txt.gz
Wetbulb
52.25 50.68 48.64 46.75 45.18 49.45 43.78 42.77 39.75 46.55 52.11 56.96 57.30 58.23 60.39 59.81 62.03 62.40 64.89 65.65 67.14 67.50 66.79 69.09 68.13 68.93 70.37 70.85 71.64 72.65 72.23 72.97
52.65 52.38 50.57 46.90 51.08 43.78 43.27 37.34 38.00 47.80 48.94 50.59 55.55 56.69 54.97 53.60 54.87 57.31 59.70 64.08 64.71 64.63 64.93 67.87 69.20 69.40 71.65 72.36 71.97 72.89 73.18 74.00
49.98 45.34 44.90 47.71 45.66 46.76 44.70 43.20 38.43 41.00 44.40 55.23 55.37 54.07 51.33 51.18 51.74 54.40 56.05 57.66 60.66 62.58 63.38 64.29 66.65 68.33 68.96 68.80 70.01 71.43 73.27 73.12
43.92 50.14 50.72 47.61 47.67 48.04 40.57 39.70 44.38 45.49 44.96 57.02 55.35 54.33 52.47 51.46 51.51 52.41 55.04 56.08 57.28 57.91 59.35 61.10 64.07 65.32 66.08 67.07 67.27 67.68 68.71 71.15
42.22 46.17 46.29 44.11 47.54 44.51 44.15 43.38 43.19 41.95 44.42 54.02 53.88 53.52 52.50 50.43 51.39 51.43 52.00 53.79 55.42 55.96 56.35 58.66 60.46 62.55 64.98 65.27 65.96 67.27 67.28 68.82
37.30 42.21 44.28 41.98 45.42 46.63 42.93 37.98 44.41 46.25 47.29 49.95 50.08 49.78 50.20 51.07 52.35 51.81 51.60 52.36 54.01 54.47 56.62 57.12 58.38 59.34 60.19 62.86 65.43 66.10 66.96 66.11
45.48 47.31 46.18 44.67 45.14 46.82 43.51 43.05 44.29 48.23 48.25 49.56 50.01 49.63 51.32 51.77 51.84 51.58 52.17 52.52 52.87 53.68 55.10 57.78 57.44 57.05 57.98 59.40 60.77 62.94 64.38 64.50
40.79 46.40 45.86 43.79 45.82 47.41 47.25 50.21 50.06 50.74 48.85 52.96 52.04 51.71 51.70 52.14 51.85 50.56 49.75 52.69 53.44 54.41 54.99 55.68 56.86 56.94 57.59 57.31 60.12 60.62 60.02 61.10
35.43 45.03 45.06 39.14 43.63 44.44 49.15 51.94 50.11 46.42 48.42 51.49 50.18 51.31 50.86 51.51 52.17 51.15 51.40 51.38 51.46 51.95 53.22 53.57 54.12 56.71 57.10 58.95 59.24 59.12 59.43 59.31
35.42 39.93 32.13 42.62 48.69 47.82 46.26 51.47 52.04 51.22 51.25 52.84 52.95 52.43 51.92 51.55 50.67 51.23 51.64 51.80 51.38 52.05 53.30 53.93 54.92 56.02 57.07 59.49 60.19 59.49 59.20 59.79
34.87 33.83 39.58 44.38 46.78 44.73 44.01 46.83 52.90 51.26 51.75 51.85 51.65 50.07 48.11 51.57 51.65 51.01 50.92 51.07 51.18 52.21 54.43 54.17 54.30 55.91 56.50 57.06 58.25 57.56 58.60 59.14
38.76 35.74 31.39 40.78 46.56 49.80 48.53 41.07 52.41 51.99 50.73 50.29 50.39 42.88 44.49 49.87 51.13 51.00 51.25 51.15 51.00 52.20 52.73 52.14 51.97 53.03 53.69 54.44 55.84 55.39 56.86 57.61
36.88 35.55 41.20 45.99 47.67 49.30 38.58 41.20 48.86 50.94 50.10 49.05 45.12 46.08 48.12 50.27 50.22 50.65 50.24 49.91 51.14 50.92 50.22 50.79 51.58 52.11 51.83 52.62 51.91 53.96 55.09 55.74
36.96 33.94 32.81 49.04 47.63 42.48 46.18 47.54 48.29 48.47 48.84 48.01 48.05 48.79 48.91 49.00 48.70 49.20 48.78 49.40 50.48 49.43 49.57 50.81 51.26 50.60 50.04 50.12 52.04 52.74 53.37 53.83
40.15 39.81 46.88 49.30 48.32 49.48 49.75 47.73 48.41 47.74 48.71 48.17 48.03 47.76 47.86 47.24 47.34 47.91 48.56 48.63 48.74 47.65 48.28 50.10 50.56 50.12 48.41 49.69 51.28 51.20 50.97 51.15
41.32 45.13 47.35 48.40 50.00 50.30 50.48 48.66 49.68 49.28 48.36 48.37 47.26 47.34 46.96 46.70 46.80 46.92 47.68 47.23 47.36 46.73 47.21 47.62 49.62 49.38 48.75 49.90 50.02 48.55 47.20 47.55
42.15 44.68 46.11 48.46 49.83 49.55 48.69 50.00 49.84 49.71 48.75 47.83 48.06 47.20 47.61 46.70 46.84 46.58 47.29 47.24 47.08 46.34 46.11 46.68 47.63 48.02 48.17 48.37 47.45 45.62 45.29 45.80
40.79 48.00 47.43 47.78 49.98 50.59 48.46 47.87 48.97 47.75 47.61 49.51 48.99 47.74 48.24 47.74 46.99 46.68 46.77 47.56 46.77 46.29 45.83 46.49 46.61 46.45 46.80 46.79 46.13 44.63 43.84 44.37
46.29 49.58 50.65 50.73 51.78 53.40 49.59 49.07 50.08 49.11 48.72 48.01 48.71 48.73 48.23 48.11 47.34 49.85 47.32 48.84 45.92 46.17 46.35 45.61 45.39 45.05 46.30 46.58 45.52 44.10 42.09 42.39

GFSFLT2_sfc_wetblb_084.txt.gz
Wetbulb
51.13 48.93 47.89 43.12 41.14 45.85 41.88 38.92 39.57 46.84 49.42 53.86 57.19 55.58 56.62 57.70 59.63 60.85 64.75 65.54 66.73 66.59 67.80 68.26 68.32 69.24 69.54 70.45 70.68 70.38 70.68 70.38
50.34 49.67 47.61 44.75 47.35 41.94 39.65 35.11 33.71 45.13 46.32 46.89 52.66 50.99 52.57 53.06 55.60 57.37 59.00 61.27 64.47 65.11 65.91 68.09 69.08 69.10 69.27 69.74 70.87 71.08 71.04 70.97
46.46 43.08 43.67 44.92 42.72 43.57 42.26 39.61 36.41 39.28 43.49 55.61 52.25 51.52 49.98 50.95 53.82 54.68 57.30 58.96 59.83 62.98 65.91 67.37 67.69 68.12 68.36 68.18 69.06 68.18 68.63 68.79
42.06 48.16 49.28 47.65 43.45 42.94 41.44 40.41 42.39 42.34 46.37 55.59 53.06 52.82 51.25 50.63 51.88 53.97 55.68 57.07 58.42 58.94 62.07 64.73 65.40 66.81 67.37 67.64 67.06 67.33 68.32 68.86
38.90 43.39 45.54 42.51 42.73 39.96 40.61 40.14 41.17 38.37 43.37 52.65 53.23 52.38 50.97 49.46 51.16 52.86 54.63 55.05 55.98 57.50 58.49 60.56 62.76 65.05 65.95 66.94 67.17 67.22 67.08 67.51
34.69 41.04 41.64 40.25 43.26 43.22 39.42 35.59 41.91 42.17 45.64 47.54 48.91 48.74 49.53 49.49 50.64 51.70 52.76 53.62 55.01 55.92 56.52 57.96 59.41 60.96 63.67 65.18 66.61 67.26 66.72 67.04
44.32 43.93 43.74 42.57 43.27 44.48 38.99 41.60 42.80 45.27 45.65 46.46 47.63 48.15 48.60 49.53 51.60 51.04 50.97 51.71 53.05 54.57 56.11 56.75 57.41 59.18 59.95 61.07 62.48 64.87 65.34 65.77
39.81 46.42 44.76 41.95 44.34 46.53 48.97 50.87 48.86 47.63 44.96 49.18 49.32 49.93 48.70 49.42 50.62 51.01 51.46 52.34 53.29 54.44 55.45 56.49 56.65 56.64 59.84 59.25 59.91 60.87 60.66 61.31
33.27 42.73 44.00 37.81 41.43 43.43 48.31 51.83 49.53 45.25 46.99 49.03 48.30 49.62 50.16 50.16 50.75 50.94 51.96 52.61 53.38 54.08 54.63 54.94 56.76 57.91 56.71 58.03 59.46 59.28 59.50 60.01
32.73 37.11 31.61 41.98 46.94 46.41 47.90 49.87 49.76 48.49 48.81 49.48 49.63 50.41 49.93 51.08 50.23 49.87 50.35 51.75 52.58 54.26 54.22 54.97 56.40 56.80 57.86 58.63 58.81 59.17 59.48 60.28
31.81 30.59 37.24 43.83 45.09 43.84 41.76 44.31 51.04 49.33 49.91 50.61 49.94 49.56 46.80 50.17 50.25 49.38 48.36 48.93 50.34 51.90 50.70 50.61 51.33 53.21 55.20 55.43 55.81 56.02 56.30 57.34
33.31 30.88 28.89 38.26 46.15 48.48 48.89 39.60 49.83 50.54 48.82 47.92 48.38 41.72 44.13 48.72 49.88 48.99 49.21 49.92 49.53 49.80 50.37 50.55 50.41 52.60 51.51 50.90 51.57 51.86 53.01 54.49
33.08 31.94 38.35 44.35 46.35 48.42 36.61 38.19 48.56 50.17 49.22 48.33 43.82 45.06 46.06 48.92 48.12 48.22 49.08 49.08 49.34 49.38 48.75 48.88 49.66 49.94 48.82 48.85 49.01 50.44 51.90 52.77
32.25 28.78 29.35 47.10 46.85 40.66 42.78 44.16 46.42 47.41 46.41 45.61 46.54 47.58 47.59 47.65 46.89 47.64 47.77 48.36 48.75 47.66 47.97 48.24 48.61 47.98 47.11 47.90 49.08 49.50 49.68 49.41
36.39 35.85 43.62 45.92 45.88 46.74 47.41 45.77 45.22 47.31 48.70 47.71 47.26 46.69 46.84 45.72 46.01 45.95 46.73 46.01 46.48 46.68 46.91 47.66 47.87 47.08 46.57 46.94 47.24 46.92 45.97 45.55
37.89 42.38 43.31 45.09 47.15 48.16 47.59 47.50 47.61 47.73 47.11 47.50 45.57 46.17 45.82 44.32 45.29 45.63 45.10 44.89 45.25 45.60 45.36 44.94 46.13 46.56 46.09 46.00 45.64 44.77 43.62 43.60
37.72 41.11 42.94 46.55 46.97 47.36 47.20 48.70 48.36 47.42 47.40 47.43 46.20 45.57 45.10 45.23 44.82 45.08 44.66 44.58 45.30 44.54 44.22 44.43 45.09 44.76 44.82 44.77 44.29 42.84 42.54 42.54
37.14 43.18 42.29 42.86 45.97 47.69 46.35 47.14 47.19 46.62 45.79 47.06 46.23 45.43 46.33 45.03 45.26 45.13 44.62 44.89 43.84 43.57 44.23 43.66 43.92 44.17 44.42 44.33 43.36 41.45 40.84 41.15
43.37 45.77 46.76 48.54 51.21 50.67 47.04 45.85 47.60 46.37 46.83 46.23 46.47 46.40 46.60 44.75 44.32 47.06 45.49 44.46 44.07 44.15 43.80 43.16 42.73 42.77 43.17 43.60 42.98 41.80 39.92 40.61

GFSFLT2_sfc_wetblb_087.txt.gz
Wetbulb
49.52 47.49 46.24 41.45 39.87 43.93 38.62 37.05 37.25 44.61 47.37 54.23 55.91 53.79 57.66 59.15 60.37 60.08 62.57 65.13 65.23 66.16 66.85 66.94 67.58 68.36 69.73 69.78 69.02 68.86 68.37 69.14
48.68 48.37 46.12 44.29 46.28 40.14 38.25 34.19 32.51 43.38 43.77 46.02 53.29 51.99 54.09 56.17 56.87 58.72 60.48 61.31 63.42 65.32 66.91 67.44 67.71 68.90 69.10 70.56 69.89 69.77 68.92 68.90
44.82 42.21 39.53 42.62 41.73 41.15 40.22 38.19 35.28 38.49 42.72 51.55 52.14 51.62 50.97 53.71 54.89 57.13 58.43 59.82 61.02 62.75 66.86 68.01 68.72 69.26 69.42 68.88 69.74 68.37 69.80 69.46
39.58 45.36 45.87 43.26 38.81 40.94 39.16 37.60 39.45 40.26 42.48 53.53 51.99 51.47 51.30 51.50 54.06 55.71 57.35 58.21 59.70 61.06 63.18 66.11 67.51 68.37 68.73 68.21 67.56 67.71 67.83 68.30
37.33 41.00 44.59 40.97 41.26 38.02 37.92 39.65 39.73 38.37 40.97 53.39 52.45 50.75 50.40 50.17 51.48 54.55 55.91 56.01 58.17 60.04 60.84 61.56 64.45 66.97 67.49 67.35 67.04 67.29 67.53 67.40
35.04 39.13 40.16 38.41 40.97 40.74 36.87 34.98 37.74 39.36 46.27 49.60 49.11 48.03 48.08 48.55 50.56 52.43 53.90 54.75 56.06 57.22 58.74 60.01 60.73 62.36 65.50 67.33 67.80 67.55 67.67 67.51
42.08 43.04 42.65 41.27 41.50 44.07 38.49 39.13 40.12 43.17 44.99 48.71 48.04 47.41 47.84 48.93 50.84 50.72 51.21 53.16 54.48 55.42 56.37 57.53 59.14 60.20 61.85 63.40 64.84 66.36 66.70 66.72
38.66 46.76 43.46 40.97 43.63 43.45 47.80 47.72 46.13 45.21 42.50 47.45 48.17 48.18 47.81 49.08 49.97 49.52 50.65 51.74 53.46 54.89 55.37 56.15 56.84 59.13 60.51 60.14 60.82 61.53 62.10 63.44
34.06 39.31 44.74 39.70 40.85 41.59 45.71 48.93 46.96 43.40 45.17 47.81 46.63 47.32 47.10 48.00 49.64 50.18 51.96 52.58 53.37 54.14 55.05 56.11 56.58 56.55 56.87 58.19 59.21 59.59 59.61 60.57
32.82 35.40 30.63 41.87 47.11 47.13 47.51 48.20 47.90 47.12 47.39 48.35 47.87 48.05 48.20 49.62 51.25 51.48 52.17 53.21 53.40 53.57 53.64 54.45 56.64 57.66 57.60 58.05 57.82 58.26 58.21 58.92
30.24 30.11 35.75 41.69 44.27 43.73 43.29 43.22 48.80 47.68 48.35 48.67 48.64 47.71 46.24 49.61 50.46 50.50 49.61 51.20 50.74 51.20 52.28 53.56 54.26 54.39 53.57 53.30 53.63 53.61 54.21 54.84
32.02 30.19 28.61 37.38 45.20 46.99 45.70 39.04 49.45 49.53 48.45 47.59 47.85 41.71 43.44 47.51 48.38 48.72 49.49 49.71 49.23 49.48 50.08 50.10 49.54 50.12 49.78 49.64 50.40 50.25 51.30 52.02
32.20 29.70 36.00 43.12 46.30 47.95 38.43 36.79 48.08 50.60 49.47 48.64 46.50 44.44 46.12 47.43 47.17 48.19 48.22 48.26 48.43 48.56 48.19 47.99 48.02 49.27 47.77 47.38 47.12 48.73 49.29 49.08
30.07 27.75 28.28 45.08 45.09 38.04 41.56 43.40 45.86 49.20 49.72 49.04 44.63 46.81 47.14 46.99 46.44 47.08 47.06 47.61 47.95 46.90 46.18 46.34 47.13 47.69 45.96 45.45 45.95 46.43 46.30 46.20
35.24 34.14 40.85 43.85 44.03 44.77 44.34 43.97 44.27 45.42 46.16 46.45 47.19 47.28 46.91 45.65 45.62 46.60 46.94 46.87 47.13 46.82 45.80 45.63 46.18 46.00 44.21 44.17 44.91 44.67 43.76 43.52
37.47 40.76 42.24 44.56 45.23 45.47 45.51 45.59 46.96 48.02 49.31 49.94 48.64 47.84 45.55 45.13 45.24 44.97 45.46 45.67 45.86 44.99 44.16 44.12 44.89 44.89 44.19 44.00 43.87 43.18 42.30 41.94
36.13 39.44 41.84 45.10 45.41 45.46 46.48 47.09 47.10 47.82 48.31 48.36 47.85 45.71 44.99 44.05 44.62 44.68 44.07 44.30 45.04 43.71 43.61 43.33 43.25 43.11 43.46 43.12 42.34 41.06 40.95 41.26
36.27 40.42 40.48 41.07 44.56 47.07 45.99 46.30 46.62 45.78 45.27 46.28 47.71 46.15 46.14 44.74 44.87 44.12 43.50 43.43 43.10 43.02 43.19 42.71 43.04 42.94 42.98 42.76 41.67 40.01 39.71 39.99
42.20 43.99 44.86 45.86 48.27 48.89 46.49 46.13 46.67 45.88 45.95 45.27 45.19 46.21 45.78 44.29 44.21 45.65 43.78 43.49 43.23 43.33 42.84 42.57 41.88 41.48 42.33 42.24 41.52 40.12 38.34 38.81

GFSFLT2_sfc_wetblb_090.txt.gz
Wetbulb
46.58 44.96 45.74 40.35 37.63 41.30 37.04 35.05 38.33 42.89 47.45 53.53 56.38 56.74 59.29 59.39 60.73 61.97 64.03 64.59 64.63 65.40 66.52 66.97 67.73 68.31 69.24 69.01 68.80 68.54 69.59 70.26
46.59 46.00 45.57 42.98 45.08 39.21 36.83 33.08 31.38 42.35 44.16 44.40 53.08 53.98 57.07 57.25 58.18 59.98 61.80 62.90 64.86 65.77 66.14 67.17 68.01 68.56 69.87 69.73 68.73 69.08 69.25 69.41
42.90 40.45 38.97 42.10 40.63 38.83 38.95 37.14 36.06 37.52 42.28 51.34 52.60 54.49 54.84 55.64 58.05 58.79 59.98 60.98 62.21 63.88 67.13 67.24 68.20 69.14 69.67 70.22 70.43 69.27 69.47 69.89
37.44 42.98 43.98 40.80 38.38 39.14 37.16 36.59 38.58 39.26 40.91 52.07 52.51 52.34 54.53 54.97 57.29 58.05 58.99 59.70 61.00 62.66 64.48 67.27 67.69 68.95 68.82 68.80 68.60 68.82 68.60 69.33
35.71 39.23 42.16 40.22 39.92 36.30 36.90 39.51 39.73 38.40 39.51 51.80 51.74 50.78 51.32 52.07 54.85 56.39 56.71 57.77 59.36 61.55 62.73 63.80 66.56 67.92 67.94 67.92 67.90 68.08 68.14 67.56
33.42 35.16 38.09 37.63 40.31 41.31 35.87 35.38 37.21 38.96 43.59 50.08 49.36 48.48 48.52 49.66 51.99 54.69 55.77 56.75 57.70 58.82 60.75 61.52 63.13 65.09 66.97 67.11 67.67 67.87 67.67 67.33
41.27 41.87 41.23 40.82 40.86 42.46 41.82 36.73 38.86 41.06 44.43 47.46 49.08 48.22 48.20 49.55 52.14 52.71 53.57 54.96 56.35 57.01 58.42 59.61 60.93 62.34 63.96 64.30 65.79 67.76 67.63 67.67
38.37 42.63 43.91 41.77 42.74 44.52 47.43 47.26 45.64 45.24 44.75 48.32 48.90 48.43 48.16 48.99 49.69 50.78 52.24 53.59 54.92 55.66 57.14 58.31 59.28 60.67 61.73 62.19 62.53 63.89 63.81 64.78
34.06 38.55 43.80 39.58 41.42 44.38 46.13 47.84 46.16 42.43 44.37 47.38 46.51 48.06 47.97 48.59 49.45 49.88 51.05 52.44 53.80 54.57 55.42 56.07 56.66 58.14 58.82 59.67 60.93 60.99 60.86 61.44
33.56 34.28 30.43 40.57 46.71 48.39 46.96 47.67 47.80 46.48 46.90 47.51 47.24 47.79 48.43 50.13 49.92 50.63 51.56 52.60 53.01 53.16 54.64 56.38 56.95 56.29 56.39 56.62 56.44 56.75 56.47 56.80
30.46 29.12 34.80 40.61 42.43 42.41 42.31 43.86 48.12 46.39 47.18 47.50 47.97 47.97 47.56 50.26 51.02 50.24 52.29 51.77 51.96 53.79 54.31 54.12 53.55 53.82 52.87 52.89 53.22 52.72 52.58 53.06
30.80 29.04 28.18 35.82 44.33 48.33 46.47 37.15 48.79 48.50 47.61 47.27 47.57 42.22 44.23 48.54 49.53 50.89 50.92 51.37 51.41 51.73 52.57 51.34 51.26 52.09 51.11 50.60 50.45 49.48 50.15 50.62
31.74 29.27 34.96 41.64 45.22 47.34 37.21 37.82 48.40 50.45 49.24 47.92 46.65 47.29 47.37 48.13 48.50 49.40 49.30 49.17 49.69 49.54 48.88 49.06 49.55 49.43 47.73 47.53 46.99 48.15 48.75 48.82
29.24 28.38 28.28 44.31 44.62 38.74 41.88 45.21 47.65 50.29 49.61 48.66 46.06 47.07 47.82 48.20 47.65 48.03 47.94 48.25 48.47 47.25 46.91 47.73 48.34 47.54 45.93 45.71 46.50 47.16 47.02 46.75
33.67 33.31 39.91 42.63 42.90 45.15 44.54 45.30 47.30 48.33 48.63 47.72 46.67 47.30 47.49 46.94 47.32 48.18 48.00 47.32 47.56 46.51 46.11 46.83 47.18 46.78 45.17 45.46 46.12 45.71 45.06 44.63
37.20 40.41 42.64 44.41 45.48 46.18 46.74 46.54 47.65 48.10 48.48 49.64 48.90 48.12 47.32 47.29 47.43 47.66 47.54 46.79 47.17 46.07 45.62 45.40 46.02 45.97 45.59 45.48 45.29 44.58 43.84 43.58
36.14 39.05 41.91 44.65 46.22 46.32 47.03 47.92 48.22 48.65 49.22 49.37 48.87 47.86 47.91 47.16 46.64 47.16 46.86 46.82 46.53 45.76 45.25 44.88 44.95 44.74 44.94 44.53 44.25 43.02 42.91 42.86
35.85 41.02 41.47 42.20 45.01 47.58 46.30 46.94 47.51 47.29 47.10 48.76 48.87 47.50 47.71 46.91 46.58 46.12 46.30 46.07 45.01 45.14 44.99 44.28 44.25 44.35 44.26 44.14 43.68 42.87 42.42 42.50
42.01 42.67 43.52 46.48 48.67 49.12 46.78 46.85 47.53 46.60 47.18 46.07 46.70 46.94 46.92 46.32 45.81 46.49 45.91 45.92 45.19 45.31 45.08 44.26 44.22 43.96 44.35 43.88 43.24 42.20 41.59 42.05

GFSFLT2_sfc_wetblb_093.txt.gz
Wetbulb
50.21 51.46 51.27 47.29 45.41 51.10 47.31 47.20 47.39 50.85 53.80 56.71 58.96 59.52 61.94 63.30 64.41 65.77 66.27 65.74 67.36 69.61 69.90 69.82 67.84 70.07 72.21 71.83 72.45 72.83 72.85 73.45
50.45 50.56 50.10 50.17 51.48 45.87 46.59 42.45 42.03 48.48 50.37 53.43 56.27 56.94 59.06 60.54 61.19 63.16 65.47 65.64 66.61 68.35 69.69 70.41 69.32 68.85 70.69 70.52 72.27 73.07 72.53 73.10
49.21 48.14 47.97 48.30 47.83 48.28 49.51 47.98 44.49 44.17 49.24 57.19 58.12 59.11 57.91 58.63 60.40 61.00 62.56 64.03 65.14 67.22 68.41 68.87 68.97 68.54 70.08 70.89 72.69 72.01 70.25 71.72
44.90 48.12 49.23 49.05 49.09 50.33 45.59 45.27 49.54 49.62 49.84 56.44 57.82 60.26 59.94 59.34 60.78 62.00 62.19 62.63 63.89 65.71 67.59 68.88 68.97 69.07 69.54 71.01 72.17 72.01 72.45 70.75
43.70 47.05 49.30 48.01 47.45 47.87 49.55 51.88 49.20 45.61 48.89 55.52 56.56 57.68 57.58 57.84 59.17 59.09 60.32 60.94 62.26 64.04 65.77 68.21 69.29 69.64 68.82 69.42 70.13 69.64 69.17 68.45
43.06 44.30 46.89 46.15 48.08 46.53 48.20 46.61 48.87 49.75 51.03 52.02 54.91 55.97 54.99 55.38 57.25 58.10 58.74 59.83 60.71 61.60 62.81 64.63 68.63 69.26 70.09 69.85 70.03 69.44 68.95 68.59
46.79 47.63 48.29 48.10 49.63 50.64 46.89 46.91 47.63 49.05 50.58 54.04 56.12 56.65 56.71 57.61 55.81 56.33 57.78 58.35 59.19 59.69 60.56 62.04 63.61 65.78 67.25 68.34 68.58 68.43 67.84 67.66
44.07 46.55 48.24 46.39 49.36 51.84 51.17 50.59 50.46 50.60 50.73 53.51 57.47 56.20 54.73 56.57 55.20 55.63 57.31 57.35 57.71 58.40 59.49 59.98 60.89 62.58 63.35 64.16 65.40 68.49 68.25 67.73
41.88 44.89 47.05 44.30 46.88 48.79 50.10 51.87 51.61 49.74 52.32 54.56 53.77 54.46 55.56 56.28 56.99 55.98 56.52 56.58 56.43 56.77 56.70 57.82 59.14 60.27 60.66 61.72 62.73 62.64 63.15 63.60
42.61 44.95 38.01 45.66 50.25 51.31 50.28 51.30 52.66 52.25 52.31 54.85 55.26 56.19 56.15 57.05 57.09 56.70 57.26 57.63 57.97 58.11 57.28 56.52 56.87 56.88 57.40 58.17 58.81 58.62 58.11 58.24
41.49 41.27 42.55 45.03 46.26 46.54 47.03 48.16 52.71 51.93 52.61 53.61 53.95 54.62 53.59 56.29 57.53 57.36 57.57 58.15 58.68 59.63 57.66 55.46 54.73 54.86 54.45 53.39 53.77 54.67 54.60 55.18
42.12 38.41 36.24 43.95 48.02 50.82 50.41 45.22 53.57 53.72 53.67 53.27 53.75 52.47 54.63 55.60 56.45 56.63 56.75 56.02 56.31 55.45 54.92 54.54 54.32 53.74 52.34 51.41 50.89 50.31 51.43 52.33
42.07 41.04 42.62 47.61 49.50 50.95 43.20 45.70 52.72 54.38 55.03 54.47 53.68 54.79 55.57 56.31 56.35 56.74 55.44 55.29 54.93 55.87 53.88 51.94 52.87 54.31 52.03 51.96 50.32 50.86 51.14 52.84
40.76 39.77 37.85 49.52 49.65 45.80 49.03 52.07 52.29 55.45 55.60 54.69 53.15 53.50 54.31 55.30 54.92 55.14 55.18 55.24 56.42 55.44 55.17 55.27 55.26 53.39 51.36 50.10 50.88 51.36 51.32 51.81
44.11 44.59 47.99 50.16 50.80 52.09 51.93 51.68 53.24 54.00 56.57 56.03 53.42 53.08 53.64 54.15 54.33 54.60 54.75 54.36 54.78 54.34 53.68 53.61 53.73 54.16 52.63 51.60 52.19 51.93 51.66 50.91
46.09 48.80 49.56 51.06 52.03 52.19 52.80 52.88 53.60 53.94 55.45 55.22 53.88 53.34 53.28 53.51 53.78 53.55 53.58 53.26 53.47 53.27 52.53 51.79 52.57 52.53 52.08 51.47 51.56 51.20 50.47 50.06
46.17 47.81 48.94 51.53 52.42 52.92 52.45 53.30 53.61 53.66 54.65 55.43 54.80 53.81 53.62 53.16 53.01 53.14 53.00 53.18 53.39 53.07 52.65 51.92 51.96 51.35 51.13 50.70 50.79 49.73 49.63 49.40
46.34 51.41 52.16 51.29 53.41 53.61 52.62 52.85 53.83 53.93 53.59 54.85 55.32 54.57 54.77 52.95 52.06 52.36 52.09 52.53 52.75 53.20 52.69 51.69 51.31 50.73 50.52 50.34 50.00 49.47 48.58 48.77
50.34 51.47 52.04 52.33 53.27 53.59 52.73 52.69 53.01 53.50 53.75 54.42 54.76 55.10 54.61 54.55 53.96 52.72 52.89 52.59 51.54 51.33 52.60 51.74 51.07 50.51 50.56 50.16 49.74 49.20 48.21 48.39

GFSFLT2_sfc_wetblb_096.txt.gz
Wetbulb
53.57 54.58 53.90 52.79 50.32 55.59 51.11 51.94 50.16 52.32 54.84 58.77 61.57 62.63 64.92 66.52 67.06 67.81 69.64 69.99 70.08 71.60 72.39 72.99 71.21 71.88 71.32 71.51 74.09 75.63 75.61 75.96
52.55 53.88 54.08 52.81 55.13 50.46 51.14 45.63 44.84 50.51 51.97 52.42 58.51 61.08 62.07 65.09 66.51 68.02 69.52 70.60 70.67 71.48 71.77 70.95 69.97 70.25 71.23 73.48 72.76 74.41 75.02 75.74
51.83 50.00 49.43 50.42 50.19 51.13 52.85 51.60 47.37 46.41 50.73 61.14 61.29 62.69 61.98 62.65 63.78 66.17 68.64 69.50 69.95 71.26 72.57 72.69 70.81 69.76 69.78 70.50 71.72 74.05 74.29 75.16
48.21 52.47 53.81 52.78 51.15 51.73 47.32 48.95 51.03 50.91 51.90 61.46 63.09 64.29 64.33 61.99 63.47 64.13 65.69 66.02 67.64 70.19 70.98 70.55 71.32 69.93 69.31 70.15 70.26 71.58 74.49 74.49
46.88 50.36 52.48 50.83 52.17 53.26 52.82 52.19 50.57 48.11 51.25 61.77 62.79 63.62 63.48 63.23 63.85 63.31 63.60 64.38 65.62 67.95 69.23 70.52 70.08 69.09 69.29 70.23 72.05 72.21 71.77 72.13
45.48 47.79 51.19 49.78 51.06 52.24 51.94 48.32 49.61 50.96 54.03 59.02 60.80 61.41 61.47 62.31 61.90 61.50 62.78 62.96 62.78 64.09 67.33 68.91 70.22 71.12 71.18 70.89 71.25 71.23 70.25 69.91
50.69 51.22 51.16 51.02 50.92 50.79 50.57 51.43 49.47 51.82 52.79 58.92 61.50 62.35 62.64 61.68 62.10 61.68 62.86 63.98 62.45 61.56 63.03 64.35 67.64 71.19 71.73 71.36 71.52 72.51 70.51 69.21
48.48 50.44 50.79 50.47 52.38 52.05 51.53 51.70 51.96 53.12 53.24 58.98 63.24 64.02 62.83 62.09 59.47 61.27 61.92 62.83 62.32 61.17 61.92 62.30 62.75 65.54 69.17 70.63 70.74 72.42 70.48 70.00
45.09 48.83 49.57 46.70 50.37 51.69 53.11 54.40 54.47 51.18 57.28 59.78 60.19 60.43 61.71 62.22 61.64 61.72 62.28 62.72 61.42 60.42 60.50 61.25 61.23 62.44 62.70 63.67 65.50 65.93 66.65 66.88
45.45 47.59 40.01 49.50 53.66 53.52 53.07 53.96 55.68 56.40 57.43 59.31 60.43 61.90 62.97 63.81 63.32 62.07 61.96 59.84 61.27 59.06 59.15 58.52 57.67 57.57 60.37 59.95 60.77 61.17 61.65 61.21
44.72 44.64 47.41 48.61 50.43 50.96 50.35 51.63 55.60 56.43 57.56 59.90 61.41 60.82 59.63 62.01 63.46 63.64 63.79 63.67 61.73 61.25 58.49 57.16 56.50 56.75 55.73 56.56 57.82 57.02 58.40 59.24
45.93 42.58 40.53 48.76 50.99 53.46 53.66 47.94 55.83 57.71 58.00 58.24 59.61 56.63 59.25 61.68 62.76 62.74 63.04 63.62 63.41 60.69 56.52 55.37 54.78 55.30 53.57 52.56 52.66 52.71 54.46 55.69
45.49 43.49 46.50 51.30 52.39 53.84 45.82 48.25 56.19 58.72 59.05 59.14 58.66 57.78 60.70 61.78 61.54 61.75 61.90 61.70 61.44 60.33 57.98 56.67 55.26 53.29 51.86 51.45 50.36 51.02 52.74 53.53
46.58 43.59 40.89 52.78 52.26 48.71 53.09 55.99 56.41 58.67 59.49 59.13 59.00 59.03 60.30 60.66 60.09 59.84 59.67 59.66 58.61 56.78 54.67 53.90 55.98 56.84 53.28 51.26 52.28 53.36 53.87 53.70
47.07 48.48 53.63 55.29 54.99 56.01 56.39 55.87 56.57 57.74 59.36 59.73 58.41 58.84 59.41 59.35 59.48 59.61 59.49 58.28 59.11 58.89 58.72 58.57 57.02 55.51 52.96 53.10 54.87 54.69 53.49 53.20
48.41 51.69 52.54 54.46 55.51 56.08 56.59 55.71 56.37 58.20 59.61 59.99 58.71 59.18 59.19 59.34 59.42 59.51 59.73 59.35 59.60 59.00 58.05 57.18 58.02 57.81 57.80 56.42 56.38 55.79 54.45 54.11
49.82 52.25 53.68 54.82 55.70 55.69 55.60 55.98 55.80 57.67 58.61 59.05 59.54 59.13 59.29 59.19 59.33 59.40 59.35 59.17 59.12 58.71 57.93 57.26 57.49 57.09 56.45 56.14 55.74 54.95 54.04 54.50
48.11 51.99 52.89 52.06 56.15 57.20 55.68 55.30 56.03 56.10 56.68 58.35 59.18 59.30 59.67 59.48 59.95 59.51 59.17 59.29 58.65 58.55 58.13 57.60 57.06 55.98 55.66 55.46 54.84 54.00 53.33 53.22
52.80 55.99 55.23 56.39 56.47 57.34 56.15 56.28 56.58 56.52 57.52 57.12 58.09 59.11 59.70 59.78 59.94 57.62 58.90 58.31 56.68 56.70 57.70 57.57 56.43 55.50 55.66 55.00 54.28 53.46 52.77 53.48

GFSFLT2_sfc_wetblb_099.txt.gz
Wetbulb
55.29 56.21 56.25 54.08 53.49 57.44 51.50 53.45 48.82 52.15 57.14 60.89 61.88 62.06 64.41 65.49 67.11 67.58 68.85 67.91 69.02 70.27 72.72 73.00 73.60 74.37 75.17 75.86 76.26 76.22 75.91 76.48
53.77 54.97 55.31 53.78 57.02 52.51 53.16 46.63 44.22 50.24 52.60 53.38 59.07 61.31 64.38 65.34 66.89 68.58 69.14 70.64 69.23 71.28 72.69 71.57 70.65 74.44 73.15 73.03 74.45 75.74 76.37 75.94
52.95 51.30 50.83 51.51 51.20 54.09 54.40 52.59 47.94 47.65 52.18 60.43 61.40 64.03 64.20 66.56 68.08 68.79 69.70 70.66 72.10 71.89 73.02 74.02 73.60 73.37 71.62 73.26 73.74 74.83 75.75 76.21
49.71 53.52 54.23 53.54 51.84 52.73 49.11 50.08 51.98 50.51 50.44 63.14 64.21 65.27 66.52 66.36 67.51 69.23 70.95 71.36 71.84 72.34 72.10 71.93 71.89 69.41 70.52 69.92 70.59 71.03 73.24 75.21
47.96 51.14 52.93 51.00 52.59 52.68 52.67 52.42 50.59 48.16 52.33 63.20 65.32 64.42 66.00 65.36 65.83 67.54 67.87 69.32 70.39 70.94 71.87 72.84 71.24 71.31 71.78 71.06 69.99 70.70 71.35 73.82
46.30 48.87 51.85 49.35 51.15 52.43 51.71 48.71 49.33 51.08 55.72 61.05 63.62 64.04 64.51 64.19 64.28 64.23 65.04 65.89 67.28 68.57 69.91 71.01 72.05 72.16 71.97 71.25 71.46 71.87 72.18 70.56
51.66 53.09 52.87 50.97 50.13 51.13 50.92 52.61 50.40 51.53 53.69 60.63 63.62 64.17 65.17 64.78 64.09 63.52 64.54 64.93 64.12 65.19 66.45 69.30 71.39 71.89 72.19 71.94 71.73 72.64 72.01 72.41
50.32 51.99 51.87 50.36 51.96 52.23 51.82 51.88 52.38 52.37 55.69 62.97 65.52 66.39 65.30 64.82 64.79 64.68 64.44 64.90 64.84 63.25 63.96 64.19 66.57 71.51 72.85 73.02 71.86 72.92 72.76 72.22
46.07 51.35 51.06 47.87 51.88 52.19 52.60 53.79 53.12 52.08 56.88 61.57 63.18 64.08 65.17 64.69 64.58 64.32 64.77 64.12 63.87 63.80 63.27 63.02 62.59 64.92 67.30 69.88 72.84 72.25 71.33 70.89
48.90 49.08 42.81 50.53 55.21 55.75 54.09 55.66 56.54 57.79 59.61 61.25 63.01 64.70 65.85 66.61 66.01 65.10 64.16 64.02 64.60 63.32 61.19 60.06 58.99 60.41 61.84 62.00 65.35 67.32 66.90 66.43
43.57 42.00 47.73 51.13 52.98 53.06 52.58 53.24 57.03 57.97 59.21 61.48 63.45 64.48 63.51 65.99 66.62 65.67 64.96 65.25 64.78 63.70 60.88 58.56 56.85 56.27 57.78 58.46 58.51 58.64 62.01 62.32
48.91 42.22 42.10 46.49 53.51 55.60 54.84 50.03 57.54 58.42 59.32 60.84 61.89 58.15 61.15 65.10 65.70 65.54 65.00 64.28 63.37 61.72 58.53 56.92 55.96 56.30 54.92 54.35 56.33 54.80 54.69 56.31
47.42 45.42 45.15 53.39 54.10 55.34 46.52 48.49 58.15 59.17 60.01 60.74 60.80 61.86 64.08 65.27 64.41 64.95 64.17 63.33 62.09 60.72 56.94 55.39 55.56 55.17 53.85 53.16 51.25 53.07 53.96 55.77
47.89 43.06 43.09 54.59 53.32 49.88 56.05 57.65 58.67 60.06 60.70 60.91 61.53 62.27 63.60 63.66 63.22 63.65 62.98 62.52 62.92 61.79 60.50 57.54 56.42 54.31 52.21 52.16 54.56 53.69 54.55 54.51
49.71 50.27 56.08 56.94 57.29 58.40 58.70 57.88 58.02 59.27 60.70 61.81 60.70 61.64 62.84 62.76 62.69 62.72 62.63 62.09 61.78 60.26 58.87 58.52 59.28 60.45 53.21 53.40 54.61 54.47 54.49 54.21
50.89 53.44 53.37 55.07 56.64 57.23 57.89 57.42 57.85 59.40 60.51 61.02 60.32 61.72 62.23 62.68 62.40 62.08 62.14 61.57 61.71 61.01 59.70 59.04 58.06 57.46 56.72 58.54 58.47 57.07 56.41 55.29
51.80 54.10 54.91 55.43 56.45 57.03 56.83 56.91 56.44 58.05 59.48 60.35 60.88 61.05 62.23 62.11 62.46 62.36 62.11 61.93 62.06 60.20 60.18 59.86 60.28 60.11 59.11 57.52 56.62 55.50 56.06 55.98
50.69 54.45 55.05 54.86 57.70 57.44 56.38 56.10 56.81 56.62 57.58 59.76 61.31 60.85 61.71 61.88 62.71 62.57 62.08 61.83 61.31 61.24 60.82 60.10 60.02 59.31 58.92 58.69 58.40 57.59 56.21 56.05
54.06 56.73 57.03 57.18 57.78 58.55 56.99 57.09 57.69 57.37 58.13 57.50 59.42 61.65 61.50 61.06 61.87 59.82 62.29 61.88 61.29 61.16 61.25 60.82 59.90 58.76 58.73 58.38 57.56 56.86 55.72 56.71

GFSFLT2_sfc_wetblb_102.txt.gz
Wetbulb
54.77 55.63 55.31 53.69 51.59 56.40 50.96 51.37 49.14 50.52 55.42 60.19 60.29 60.09 61.87 62.81 63.63 63.36 64.28 65.67 67.30 67.53 70.13 67.90 67.81 71.88 73.16 75.00 75.42 76.48 76.23 77.43
54.00 55.39 55.36 54.48 56.35 50.28 51.60 44.52 43.95 49.30 49.69 52.89 57.12 58.65 61.01 62.45 63.09 62.58 63.63 65.59 66.97 67.51 67.53 66.41 66.99 70.59 73.89 76.19 75.31 75.80 74.57 76.47
53.17 51.49 50.26 51.07 50.62 52.41 52.78 52.69 45.65 46.10 49.71 58.59 60.90 61.27 61.93 64.43 65.86 65.99 68.14 67.35 67.07 67.39 70.11 66.08 67.46 73.05 73.40 74.48 74.62 75.54 75.05 73.81
50.10 53.86 54.60 52.92 51.36 51.85 48.60 48.88 51.47 50.40 51.34 60.24 60.24 64.11 64.63 66.66 67.50 69.37 69.10 68.31 66.68 68.14 69.34 71.24 71.29 73.47 72.13 71.79 72.11 73.28 73.33 74.46
48.12 51.55 53.16 50.74 51.70 52.17 51.52 52.13 50.54 47.80 49.99 60.59 57.23 64.30 66.66 67.02 68.62 68.49 71.21 69.77 69.82 70.03 71.40 72.86 72.67 72.48 72.39 71.76 71.88 71.23 73.21 73.06
45.04 48.45 52.03 49.25 50.09 51.50 50.62 47.54 48.55 49.37 54.94 60.60 62.21 63.63 64.59 66.02 67.64 67.20 68.54 69.21 70.72 70.92 71.71 71.76 72.82 72.34 71.75 71.99 71.73 71.75 71.19 71.88
50.83 51.59 52.58 51.91 50.16 50.22 50.26 50.37 49.18 51.84 55.63 59.16 61.90 63.91 64.99 64.94 65.54 65.59 65.68 66.11 68.33 67.47 68.68 71.10 72.08 72.51 73.14 72.56 72.35 71.51 70.92 71.43
50.07 52.24 52.40 50.56 52.37 50.84 50.99 51.43 51.76 53.47 57.17 60.01 60.37 62.87 64.31 64.08 63.13 63.88 64.62 65.43 65.40 66.03 67.43 66.41 69.08 71.42 71.71 71.54 71.34 72.77 72.17 71.33
47.52 51.01 51.41 48.00 51.72 52.06 51.61 52.86 52.87 53.31 57.68 58.64 55.65 57.22 63.78 64.38 64.36 64.53 64.03 64.17 64.50 64.37 64.30 63.77 64.29 67.53 68.09 72.51 73.12 73.02 72.92 72.97
46.14 48.14 42.08 50.56 56.05 55.01 54.98 54.21 58.70 58.78 58.49 60.78 60.98 64.92 65.26 66.58 65.67 64.61 63.79 63.50 63.91 63.14 61.91 60.27 60.73 61.96 62.20 63.83 68.02 68.45 68.18 70.40
42.39 41.67 45.76 50.62 52.72 52.87 52.93 52.89 57.39 58.50 60.13 62.09 62.58 64.61 64.17 66.85 66.89 65.03 64.41 64.43 63.85 63.00 60.72 58.78 57.69 59.16 59.24 59.04 58.88 61.62 62.32 62.94
46.93 42.17 39.84 48.51 53.12 56.76 56.07 46.35 55.76 58.52 60.02 61.04 62.05 57.77 60.89 64.95 65.64 65.40 63.24 62.63 61.66 60.01 58.66 57.17 56.34 57.23 56.53 56.97 56.65 55.13 55.30 56.97
41.85 42.19 45.79 51.57 53.94 56.13 45.93 49.46 57.88 59.18 60.49 61.71 60.68 62.41 63.96 64.07 63.59 64.53 64.09 62.30 61.20 58.82 56.78 55.61 55.81 55.49 53.98 53.63 53.27 54.98 56.06 56.83
48.49 44.18 41.60 54.99 53.75 48.83 55.42 58.30 59.58 60.39 61.39 61.45 62.10 63.94 63.84 63.45 62.70 62.72 61.97 61.64 61.29 58.28 56.27 56.40 56.53 55.77 54.20 53.42 54.54 55.34 55.15 55.61
50.28 49.74 56.31 57.57 58.42 60.06 59.74 58.48 58.74 59.79 60.89 61.95 61.22 62.20 63.45 62.57 62.72 61.91 62.43 62.23 62.48 60.38 58.29 57.10 57.35 56.16 53.82 53.64 56.24 55.65 55.44 55.50
51.86 54.51 55.08 55.85 57.09 57.78 58.77 57.99 58.34 59.65 60.43 60.90 60.67 61.80 62.59 62.93 62.49 62.21 62.04 61.49 61.10 59.89 58.73 58.36 59.96 60.42 56.35 56.02 55.78 55.91 55.68 55.60
51.38 54.81 55.29 55.56 56.27 57.43 57.19 56.96 56.59 58.38 59.92 60.47 61.24 61.39 62.42 62.66 62.37 62.06 62.12 62.27 62.03 61.63 60.25 59.18 59.19 58.18 58.91 60.05 60.04 58.10 57.62 56.79
49.15 56.41 57.57 55.27 57.77 57.77 56.94 55.83 56.57 56.77 57.61 60.08 60.77 60.94 62.30 61.62 61.75 61.06 61.30 62.27 62.09 62.67 61.78 61.18 61.45 61.00 60.83 60.04 59.83 58.34 56.55 55.58
54.29 57.09 57.20 57.13 58.52 58.74 57.17 57.18 58.01 57.60 58.84 57.42 59.88 60.64 60.91 61.52 61.95 59.54 61.81 61.94 62.99 63.04 62.92 62.01 61.75 60.56 60.93 60.86 60.07 59.79 58.84 61.66

GFSFLT2_sfc_wetblb_105.txt.gz
Wetbulb
52.28 52.67 50.76 48.92 46.58 52.38 46.01 47.20 45.93 49.74 52.42 56.04 59.76 59.68 61.56 61.14 62.25 62.39 63.62 65.48 66.20 67.52 67.12 69.33 68.70 71.12 72.35 72.07 72.00 72.74 71.93 72.90
52.69 51.63 51.89 47.69 52.06 43.28 47.17 40.79 40.46 47.61 49.05 50.77 53.47 55.78 59.26 59.51 60.48 62.53 63.35 65.02 66.25 67.69 67.75 69.36 69.11 69.00 71.12 72.53 72.53 72.99 72.57 73.07
50.68 46.73 45.78 45.82 44.55 45.50 48.25 46.64 43.01 42.81 46.70 55.75 56.18 58.07 58.24 59.86 61.45 62.02 62.60 63.77 65.69 67.24 67.73 67.73 68.24 68.55 69.14 68.95 72.31 72.10 72.80 72.67
45.66 51.42 52.07 48.14 45.59 44.82 40.72 41.25 45.56 45.05 49.05 60.40 60.11 60.38 60.45 61.21 63.08 63.48 63.83 63.80 66.31 66.93 66.72 66.15 66.13 67.91 67.70 68.70 70.97 72.28 72.77 71.50
42.20 46.85 49.64 45.54 46.79 44.27 44.03 43.18 41.38 42.74 47.64 58.48 60.06 60.24 61.08 63.63 63.08 63.38 62.76 64.54 65.55 66.31 66.35 66.64 66.49 67.62 69.89 70.56 70.81 71.32 71.06 71.17
38.14 43.12 48.25 47.28 47.67 47.24 43.87 39.40 40.79 42.08 50.88 54.01 55.23 54.29 62.22 63.11 64.65 65.14 64.17 65.11 65.30 65.45 66.15 66.26 68.32 70.29 70.39 69.87 69.26 69.44 69.46 69.59
47.59 50.09 49.69 49.33 49.32 48.21 44.01 44.49 40.78 50.28 52.31 54.34 57.00 60.64 61.64 62.81 64.13 64.42 65.33 66.10 65.66 65.57 67.35 67.69 69.40 69.04 69.17 69.44 68.66 69.17 68.63 68.74
45.70 50.30 50.87 48.88 50.57 51.73 49.89 47.70 53.48 55.06 52.44 57.69 59.27 59.86 61.27 61.61 62.40 62.99 63.64 64.50 65.34 65.78 65.97 66.08 67.13 68.70 69.56 69.80 69.28 69.24 69.15 68.59
39.89 47.12 47.91 45.80 48.15 50.23 51.02 52.20 52.94 50.73 53.46 55.22 55.07 56.59 59.26 61.53 62.05 62.70 63.58 62.83 63.53 63.47 62.41 62.87 63.78 64.67 65.09 68.57 69.96 69.78 69.49 69.64
40.32 43.84 36.73 47.19 52.21 52.43 51.70 52.41 52.51 55.01 55.39 54.90 54.65 55.48 56.11 63.05 63.13 62.66 62.66 63.00 61.76 61.00 60.38 60.82 61.35 61.98 62.01 66.61 68.07 68.12 69.04 68.86
39.25 37.87 44.68 48.73 50.98 49.66 47.55 48.14 54.09 53.63 58.18 59.62 60.86 62.92 62.19 64.19 63.31 62.47 62.31 61.97 60.91 60.10 58.84 58.40 59.40 60.27 60.93 60.09 61.59 61.54 61.68 63.71
40.50 37.59 36.92 46.68 52.70 54.75 52.94 45.22 53.94 56.53 57.23 59.19 60.14 55.17 59.19 62.17 62.36 60.95 60.55 59.42 58.39 58.10 57.15 56.60 56.86 58.08 57.90 57.45 57.00 56.52 56.84 60.24
41.56 41.61 44.51 51.78 53.93 54.68 43.92 47.10 54.91 56.76 54.47 56.93 52.95 58.38 60.05 60.74 60.44 60.58 59.43 57.61 57.53 57.13 55.64 55.07 55.80 56.09 55.13 55.51 55.20 56.42 56.92 57.55
40.27 37.19 38.26 54.38 53.09 46.86 51.80 54.87 55.80 59.15 58.93 60.05 59.84 60.77 60.79 60.31 60.01 59.72 57.90 57.11 56.11 55.20 54.42 54.99 55.12 54.65 53.58 52.86 54.91 55.49 55.79 56.34
45.29 43.71 48.82 53.82 53.89 56.01 56.21 54.07 54.59 55.31 60.09 60.28 60.16 60.25 60.66 59.59 59.01 59.01 58.34 57.37 56.40 55.09 54.47 54.94 55.06 54.23 52.92 52.24 52.83 53.33 52.85 53.57
48.49 50.05 52.93 54.72 54.76 55.93 55.97 54.10 55.08 55.70 56.84 58.87 58.63 60.18 59.87 58.88 58.31 59.55 59.70 57.67 56.57 55.07 53.76 52.85 53.60 53.50 52.05 52.57 54.33 52.67 51.69 51.38
49.34 52.25 52.57 53.77 54.70 54.53 54.60 55.26 54.88 55.93 57.54 57.82 59.46 59.42 59.41 59.90 59.11 59.15 59.10 58.33 56.95 55.74 54.65 54.03 54.79 52.60 52.49 52.70 53.06 52.27 53.50 52.56
45.24 52.39 51.08 51.72 54.60 56.46 54.23 54.06 54.58 54.93 55.84 56.93 57.98 60.39 60.38 58.01 58.62 59.05 58.87 59.33 59.03 57.36 56.19 55.05 54.76 53.35 53.95 54.84 54.55 53.16 51.72 51.84
51.97 54.36 54.10 55.60 56.82 56.56 54.79 55.43 55.87 55.90 55.61 54.76 55.86 58.81 59.73 58.26 59.33 57.84 59.14 58.88 59.11 57.44 57.37 56.98 56.76 55.76 55.70 54.87 54.81 54.52 52.80 52.52

GFSFLT2_sfc_wetblb_108.txt.gz
Wetbulb
50.12 55.04 55.76 50.98 46.17 49.50 45.02 43.74 44.52 48.95 52.50 56.43 58.50 59.63 59.66 60.21 61.57 62.21 64.10 65.41 65.16 65.06 66.59 67.14 68.07 69.65 70.34 70.10 70.18 70.20 70.72 70.54
50.54 50.36 54.02 52.17 52.97 43.43 42.28 38.85 39.46 45.19 46.67 48.51 52.77 55.31 59.02 60.08 60.22 62.45 63.84 64.48 65.26 66.05 67.86 68.39 67.72 67.54 69.98 70.91 71.09 71.06 71.07 71.24
47.02 43.82 43.68 43.98 43.36 42.51 44.49 44.27 41.39 41.97 46.00 53.10 53.54 55.44 57.94 59.37 61.27 61.86 63.06 63.62 65.35 66.71 68.35 68.84 69.28 69.34 68.12 69.30 71.25 71.63 71.14 71.48
43.39 48.34 49.19 46.19 43.96 42.44 38.37 38.63 43.37 44.43 46.81 57.99 57.42 57.61 58.83 59.66 60.94 61.81 63.30 64.13 66.14 66.13 65.93 67.02 67.53 67.75 68.49 67.68 69.36 71.02 70.34 70.84
40.85 44.42 48.01 44.69 44.93 43.48 39.97 39.75 40.58 41.59 46.55 57.15 58.25 56.96 57.22 58.34 61.47 61.63 62.37 63.93 65.64 65.93 65.09 65.89 66.43 66.65 67.76 67.63 68.15 71.08 70.63 71.08
37.91 41.04 43.66 43.28 47.05 46.92 40.07 36.94 37.77 41.49 48.42 53.85 53.21 58.58 60.70 61.44 62.54 62.58 62.08 64.18 65.09 65.32 65.44 65.58 66.51 66.49 67.20 68.98 70.34 70.27 70.04 70.65
45.20 48.84 49.23 48.49 48.15 49.41 44.51 41.66 40.54 43.93 49.09 53.51 54.94 60.02 61.75 63.44 64.41 64.03 61.70 63.37 64.36 64.93 64.91 65.30 66.10 69.02 68.77 69.48 69.30 69.05 68.58 68.24
44.38 48.86 48.29 47.89 48.66 50.80 50.13 49.69 53.92 53.44 51.93 57.79 61.08 61.44 61.52 62.59 63.73 63.90 62.76 63.81 64.73 65.03 65.97 66.35 67.32 67.18 68.89 68.96 68.60 68.44 67.81 67.25
37.92 44.56 47.54 42.84 46.91 48.79 49.57 50.83 49.95 49.26 52.63 56.30 56.69 59.73 59.31 61.23 63.22 63.45 64.09 64.58 64.14 64.15 65.28 66.21 66.02 68.22 66.11 68.64 68.82 68.15 67.88 68.40
37.68 40.50 35.94 44.05 50.91 51.25 50.11 50.86 53.61 55.14 55.42 55.64 54.67 55.77 60.73 62.44 62.46 62.06 62.39 62.13 62.06 60.86 60.96 61.27 62.49 63.24 66.13 68.67 68.80 68.01 68.04 68.26
36.12 35.87 41.83 47.28 49.51 49.16 47.04 46.85 54.04 55.75 57.18 58.39 59.50 60.96 60.26 62.67 62.79 62.20 61.41 60.86 60.62 60.71 60.02 60.28 61.81 62.15 62.83 64.16 64.71 65.59 66.56 67.83
37.00 34.57 34.56 44.17 51.29 54.23 52.87 43.10 54.05 55.65 54.95 56.66 59.10 54.33 57.29 60.30 60.16 58.53 58.34 57.95 57.49 58.87 58.74 59.33 59.07 60.65 60.57 59.02 60.23 59.36 60.68 61.78
38.33 35.86 40.89 48.34 51.61 54.01 43.92 43.85 54.86 55.67 54.91 57.53 55.98 57.93 59.73 60.45 59.10 58.20 57.12 56.50 56.73 57.13 55.99 55.96 58.69 58.28 57.93 57.81 56.87 57.53 58.66 58.87
36.29 33.16 33.08 51.16 51.68 46.59 50.21 54.05 56.23 55.77 56.49 55.17 55.75 57.42 60.16 59.95 58.18 56.70 55.58 55.25 56.23 55.03 54.54 55.01 56.26 56.74 55.65 55.58 56.46 57.69 57.24 58.07
44.31 40.93 46.40 50.14 50.05 54.27 53.67 56.20 56.82 54.77 59.32 57.71 55.55 57.49 59.95 58.83 57.80 57.34 55.83 55.01 56.08 54.97 54.41 54.74 54.70 54.10 52.57 52.46 53.36 54.04 54.47 54.09
43.84 47.02 50.72 53.11 53.03 53.91 54.46 52.14 53.10 56.37 58.41 61.21 59.50 59.74 58.88 58.13 57.60 56.87 55.91 53.84 53.39 52.65 52.09 51.11 51.85 51.77 51.27 51.65 52.02 50.78 50.18 50.19
44.55 47.82 50.91 51.79 52.08 52.07 52.95 54.17 54.88 55.60 57.23 59.67 60.39 59.43 58.91 58.20 58.15 58.08 56.56 55.41 54.48 53.98 53.07 52.54 52.32 49.99 50.75 50.93 50.79 50.05 49.70 49.26
42.80 48.06 46.22 48.17 51.18 52.97 52.21 52.34 53.85 53.47 53.92 56.56 59.91 59.03 59.10 57.91 57.16 56.33 56.05 55.23 54.48 53.74 52.98 52.34 52.44 50.63 50.83 50.51 51.44 50.88 49.30 49.62
49.41 51.21 50.01 52.23 53.66 54.09 52.20 53.46 53.98 52.84 52.94 55.26 58.29 58.23 59.06 57.07 55.99 56.58 56.48 56.34 55.69 54.29 53.74 53.17 51.78 51.40 51.95 52.26 51.85 50.41 48.61 48.69

GFSFLT2_sfc_wetblb_111.txt.gz
Wetbulb
55.59 56.53 55.38 50.72 44.36 47.35 43.37 41.82 41.78 47.54 52.05 55.33 57.10 57.19 59.19 59.99 61.83 62.49 63.61 64.48 64.57 65.00 65.65 66.17 66.79 68.17 68.90 68.42 67.62 69.36 69.16 68.86
47.62 55.04 54.92 50.40 51.48 43.26 42.30 39.51 35.60 43.62 46.89 47.44 53.44 55.79 58.97 58.68 59.50 61.62 63.67 65.03 65.24 64.77 65.87 66.88 67.96 68.34 68.88 69.15 68.40 69.26 69.67 68.90
45.39 43.19 46.23 43.45 43.47 41.72 42.94 42.57 39.58 38.95 44.22 53.28 53.69 55.05 58.08 58.95 60.32 61.41 63.43 64.64 65.59 65.51 67.07 67.20 68.61 68.99 69.51 69.32 69.35 69.89 70.19 69.87
41.79 45.49 47.42 43.12 40.86 40.93 38.94 36.60 41.69 42.35 44.61 56.70 55.95 55.95 58.34 59.86 60.14 61.64 63.36 64.53 65.76 66.84 66.98 67.21 68.22 68.72 68.60 68.22 69.77 70.71 70.34 70.22
39.33 43.56 46.79 44.65 45.18 40.57 37.39 36.98 38.24 39.32 43.23 56.71 57.26 56.13 58.04 58.74 60.03 61.57 62.78 64.34 65.29 65.88 66.27 66.67 67.16 66.54 66.78 67.37 67.34 69.26 70.02 69.73
35.42 39.42 42.32 43.14 47.01 46.51 37.66 34.88 35.25 39.42 42.80 52.67 54.86 57.82 56.17 58.14 59.58 60.99 62.95 63.66 64.54 65.20 64.72 65.10 66.29 66.45 66.54 67.59 68.19 69.39 70.00 70.46
40.68 47.72 47.87 46.82 47.77 48.68 44.26 42.95 36.51 40.22 41.89 51.22 56.16 58.73 59.27 60.28 61.19 61.08 62.34 63.59 64.45 64.48 64.70 64.56 65.54 66.24 66.90 68.24 69.15 69.68 69.97 68.95
41.68 47.93 48.72 45.36 47.76 49.33 48.77 49.28 47.98 50.92 50.97 57.70 60.24 61.73 61.37 61.50 61.88 60.58 61.87 62.68 63.55 64.73 65.09 65.04 65.91 67.43 67.68 68.20 68.65 68.78 68.76 69.07
37.58 43.42 46.38 40.63 44.77 47.14 48.13 51.36 50.34 46.32 51.15 56.11 56.01 57.99 58.58 61.10 62.20 62.45 62.46 63.56 63.83 63.91 64.99 65.59 66.13 66.94 67.32 67.86 68.33 67.52 67.45 67.91
37.75 39.44 35.83 42.52 49.36 50.62 48.83 50.26 53.65 54.87 54.88 55.64 58.21 59.77 60.75 61.90 61.95 62.01 61.71 61.90 62.29 61.74 62.02 62.07 63.86 65.14 66.28 67.66 67.97 67.75 67.14 67.11
35.86 34.40 40.59 47.90 48.66 47.27 44.48 44.98 53.79 54.66 56.02 59.03 60.42 60.30 58.64 61.04 61.12 60.55 60.95 60.65 60.70 60.63 60.24 61.30 62.39 62.47 65.51 65.04 66.62 67.34 67.18 67.93
36.46 33.64 34.12 43.82 50.09 53.01 50.90 41.92 54.07 55.58 57.56 57.59 57.40 53.58 56.52 59.62 58.79 57.82 57.50 57.64 59.07 59.79 60.05 59.93 60.62 62.18 62.00 63.92 65.35 65.28 66.00 67.00
37.15 34.46 39.10 46.11 50.81 51.85 40.75 42.27 54.38 55.52 57.65 57.14 56.16 57.00 58.59 59.32 57.40 56.54 56.38 56.20 57.17 56.72 56.62 58.27 60.49 59.94 59.11 59.27 58.59 61.02 62.61 62.61
34.83 32.02 32.18 48.98 49.47 44.39 47.38 52.45 55.28 54.56 56.22 55.99 57.90 58.94 58.29 57.34 55.94 55.16 54.53 55.81 56.22 55.12 54.77 55.76 56.91 57.54 57.02 56.56 58.57 59.93 61.49 61.29
41.49 39.87 45.08 48.09 48.54 51.01 53.52 54.65 55.10 56.75 55.94 55.27 56.21 58.38 58.39 57.16 56.30 55.65 55.18 55.14 55.62 54.79 54.15 54.35 54.60 55.37 53.98 53.15 55.10 56.00 56.07 55.75
42.53 44.40 47.66 50.35 51.47 52.75 54.68 54.08 56.04 57.80 56.67 55.79 57.12 59.10 57.73 56.36 56.16 55.26 54.91 54.05 54.31 54.20 53.16 52.65 52.30 51.61 51.86 51.68 51.78 50.85 51.23 51.69
42.85 45.94 49.17 51.31 50.68 51.26 52.96 55.08 56.72 58.46 59.25 60.00 59.28 58.07 56.73 55.86 55.27 54.96 53.89 53.00 52.44 51.41 50.42 50.08 49.73 50.02 50.71 50.75 49.61 48.59 47.76 47.82
41.33 46.74 46.32 48.42 49.95 52.45 52.55 52.90 54.46 55.14 55.54 58.89 59.46 58.01 57.61 56.06 55.50 55.11 53.47 54.09 53.60 52.78 52.24 51.73 49.22 48.69 49.04 49.44 49.73 49.32 48.21 48.42
47.39 48.66 48.55 50.28 51.48 52.64 52.50 51.98 53.26 55.54 57.71 57.29 57.99 57.94 57.15 55.53 54.89 54.62 53.98 54.38 53.65 53.19 52.35 51.47 50.76 49.03 49.47 49.48 50.72 50.14 48.40 48.31

GFSFLT2_sfc_wetblb_114.txt.gz
Wetbulb
55.22 55.59 54.11 49.24 44.30 46.62 41.55 39.27 40.73 45.71 50.21 54.43 57.06 57.87 59.79 60.72 61.93 62.18 63.79 63.47 64.28 64.67 65.01 66.06 67.06 67.99 68.57 68.31 68.14 69.12 69.53 69.45
46.87 54.75 53.98 49.85 52.27 43.48 41.65 35.66 35.16 42.52 45.56 46.54 52.46 54.26 58.87 59.83 60.55 61.72 63.64 63.73 64.22 64.91 65.04 65.63 67.39 68.19 68.89 68.88 68.16 69.11 69.51 69.32
43.19 43.38 47.48 43.82 44.02 42.30 42.69 41.50 37.94 37.03 41.93 52.23 53.61 56.02 57.98 59.94 61.53 62.36 62.97 64.36 64.40 65.09 65.68 66.05 67.02 67.96 68.25 68.49 68.19 68.70 69.87 69.55
41.98 45.92 46.49 44.70 44.69 42.60 38.40 36.07 40.68 40.31 42.26 55.69 55.68 56.47 59.39 59.52 60.82 62.11 63.48 64.14 65.03 64.88 66.05 66.10 67.28 67.91 67.96 68.52 68.65 69.40 70.40 70.25
40.19 42.53 46.57 42.84 44.76 39.32 36.81 36.85 38.75 38.09 40.44 57.01 56.13 56.96 59.00 58.85 59.84 61.52 62.64 63.91 64.98 65.51 65.79 66.58 67.24 68.54 68.69 69.01 69.34 70.36 70.36 70.53
36.56 39.31 44.51 43.94 46.55 46.98 36.09 33.62 34.89 39.26 40.01 51.96 55.33 56.13 57.70 58.68 60.13 61.30 62.15 63.92 64.89 65.51 66.20 66.51 67.03 67.86 68.22 68.35 69.49 69.99 70.19 69.97
42.46 46.24 47.74 46.86 46.03 47.80 42.75 42.29 35.83 41.92 47.14 53.78 56.37 58.56 57.87 58.85 59.85 61.19 62.03 63.37 63.92 64.52 65.23 65.93 65.81 66.40 67.18 67.54 68.29 69.23 69.28 69.97
43.24 46.61 46.98 45.33 46.88 48.31 48.43 50.21 48.26 48.51 48.48 58.48 59.84 61.73 61.19 60.47 59.67 60.90 61.89 62.99 64.12 64.65 65.13 64.96 66.00 66.11 67.02 67.84 68.42 69.18 69.59 68.22
38.30 43.75 44.67 41.60 43.98 46.45 47.74 51.44 50.88 47.07 50.00 56.69 56.73 58.34 60.01 61.73 61.63 60.61 62.78 63.28 63.68 64.08 64.60 65.23 65.99 66.67 66.26 67.50 68.65 68.51 68.11 68.35
38.46 40.29 33.95 43.70 50.21 49.63 47.70 49.74 52.72 54.56 55.29 57.78 58.02 59.07 60.33 61.53 61.74 62.15 62.53 62.92 62.56 63.22 63.99 63.33 64.42 66.93 67.72 68.15 67.74 67.13 66.97 67.49
36.29 35.71 39.35 46.89 49.66 47.74 44.95 45.90 52.67 54.41 56.32 59.02 59.85 59.03 58.31 60.00 59.94 59.92 60.18 60.40 60.83 60.92 61.23 61.77 62.63 64.87 66.00 67.06 67.24 67.42 66.50 66.79
36.30 33.05 33.19 42.49 50.36 53.04 50.48 42.58 52.75 55.59 57.38 59.09 57.10 52.80 57.29 59.27 58.84 57.62 58.20 58.67 58.71 59.81 60.30 60.00 61.21 63.88 65.80 65.43 66.11 66.27 66.18 66.21
35.91 34.19 38.88 45.65 51.25 53.36 41.94 42.84 54.29 57.82 57.78 56.67 54.46 55.81 59.27 58.60 56.69 56.81 56.95 57.16 57.39 57.08 56.49 57.75 60.36 60.98 60.62 59.86 59.60 62.22 62.56 63.08
34.66 32.71 32.51 49.22 50.21 46.11 48.43 54.03 55.50 56.18 57.16 56.53 57.78 57.82 57.13 56.21 55.58 56.11 56.06 56.72 56.77 55.84 55.85 57.23 59.53 57.97 56.61 56.27 59.08 60.81 61.56 60.18
39.03 38.26 44.48 47.17 48.81 51.90 53.56 54.34 54.82 55.70 55.71 58.64 57.44 57.43 56.72 54.91 54.97 55.16 55.37 55.31 55.95 55.13 54.24 54.24 56.19 56.64 55.27 55.77 56.49 57.61 57.71 57.27
41.83 44.65 47.28 49.85 51.70 54.08 56.56 55.65 56.73 56.95 56.25 56.47 57.87 57.50 55.87 55.39 55.09 54.94 55.09 54.56 54.73 54.54 53.58 52.27 52.31 52.36 52.54 52.59 53.37 52.72 52.46 54.21
41.92 45.81 49.20 50.72 52.44 52.21 54.41 56.32 58.12 57.03 57.07 58.07 58.46 56.94 55.81 55.21 54.98 54.47 54.17 53.41 52.80 51.87 51.48 51.13 51.85 51.88 52.15 51.48 51.25 49.66 49.94 50.19
41.10 47.06 46.15 48.07 52.00 54.89 55.28 55.84 57.94 57.72 59.12 59.32 58.34 57.21 56.79 55.35 54.92 53.74 52.96 53.31 53.01 53.15 52.72 51.24 51.20 51.04 51.26 51.42 51.28 49.89 49.34 50.00
46.51 48.44 48.01 50.14 51.95 54.63 54.16 55.01 56.43 57.08 58.43 58.41 58.57 58.41 57.46 55.69 55.59 54.52 54.33 54.47 53.92 53.92 53.54 52.62 50.00 49.78 50.51 51.59 53.13 51.92 51.10 51.14

GFSFLT2_sfc_wetblb_117.txt.gz
Wetbulb
58.21 58.44 57.38 53.32 50.32 53.44 48.80 49.86 47.17 50.69 53.64 57.66 59.84 59.88 60.47 59.97 62.76 64.05 63.24 65.40 66.79 68.72 67.87 69.91 70.37 70.87 71.29 71.41 72.03 73.29 73.39 74.13
52.44 58.75 57.47 55.94 56.63 48.79 50.69 42.05 40.95 47.61 49.52 51.48 56.12 57.75 59.48 59.98 61.81 64.08 64.18 64.42 66.81 68.34 68.95 69.72 70.78 71.47 71.98 72.23 72.07 72.75 73.58 73.96
48.88 51.80 51.49 52.76 51.94 51.89 51.56 50.56 44.41 43.09 47.54 56.32 57.32 59.29 59.24 60.54 62.80 64.35 64.05 64.07 65.24 66.18 66.57 68.40 70.87 71.18 71.75 72.36 72.58 72.47 73.15 73.86
47.45 50.60 50.96 54.21 52.88 53.15 48.19 45.54 49.53 48.78 47.66 59.14 58.63 60.13 61.53 62.04 63.23 63.85 64.18 64.60 65.58 66.02 66.15 68.67 69.59 70.79 71.29 72.22 72.27 72.84 73.43 74.01
45.40 48.99 51.34 50.53 52.59 50.28 48.17 49.38 48.49 45.53 47.20 59.28 59.90 59.55 61.79 62.30 64.12 64.96 65.39 64.96 65.89 65.82 65.75 66.86 69.33 70.33 70.98 71.84 72.43 73.01 73.49 73.62
42.32 45.79 49.40 49.22 50.83 52.85 48.61 45.87 47.93 47.96 49.55 53.36 58.03 59.76 60.17 62.30 64.08 64.40 65.27 65.79 66.53 66.85 65.50 66.80 69.99 70.67 70.71 71.28 70.66 72.87 73.05 73.31
47.80 49.90 50.64 49.21 49.60 51.41 48.95 50.45 44.45 48.33 51.37 56.37 58.52 60.15 61.97 61.99 63.03 63.75 64.09 65.44 66.67 67.44 68.00 67.39 67.43 69.93 71.78 70.43 70.48 72.78 72.23 73.02
46.99 50.05 49.29 48.27 48.59 51.15 51.95 52.45 53.07 53.05 53.42 58.65 60.41 62.61 62.07 62.04 62.52 63.06 64.00 65.10 66.33 66.97 66.88 66.22 66.71 68.38 69.07 71.06 70.73 71.26 72.76 73.06
43.41 47.90 46.79 43.90 46.98 48.72 51.52 53.86 53.57 51.74 55.49 57.97 58.33 59.92 61.44 62.09 62.93 63.54 64.09 65.29 66.42 66.66 66.09 66.12 66.09 67.32 67.25 68.79 70.31 70.63 71.46 71.69
44.98 46.01 37.29 47.88 52.39 52.74 51.69 52.82 55.74 56.26 56.68 58.22 58.44 59.62 60.37 62.94 62.38 62.52 62.84 63.47 65.03 66.40 65.79 67.02 68.49 68.61 67.72 68.19 68.51 68.57 68.06 68.58
43.14 42.59 44.51 48.13 50.72 49.96 49.58 50.47 55.80 56.51 57.69 58.82 59.30 59.37 58.99 60.56 61.30 60.94 60.78 61.13 61.75 62.95 63.76 65.07 66.67 69.66 69.14 68.84 68.58 68.77 67.49 68.93
43.78 40.02 37.77 47.62 52.25 54.39 53.44 47.35 56.14 59.14 58.53 59.44 59.91 54.68 56.75 59.14 60.16 60.00 60.45 60.34 59.94 60.32 60.99 61.69 62.42 64.45 67.22 67.61 67.92 67.74 66.88 67.20
44.25 43.09 45.06 50.19 52.95 54.94 45.17 48.25 57.31 60.22 59.52 60.67 59.38 60.64 59.75 59.20 58.53 59.52 60.14 59.30 59.27 59.23 58.51 59.82 61.42 62.90 63.28 63.97 63.19 64.99 65.00 65.57
44.40 43.06 40.04 52.01 52.48 49.70 53.05 56.75 58.83 60.84 60.22 59.43 58.44 59.07 59.20 58.98 58.89 58.80 58.54 58.69 59.21 58.87 57.90 58.63 59.02 59.03 58.37 58.81 61.29 62.48 62.83 63.42
47.85 48.02 51.76 53.74 53.83 56.48 56.76 58.09 58.95 60.46 60.07 58.97 58.99 59.34 59.51 58.86 59.85 60.41 59.89 59.06 58.44 57.53 56.43 56.68 57.00 57.80 55.12 55.74 58.11 59.26 59.59 58.91
48.70 51.31 52.86 54.35 56.25 56.33 59.11 59.29 61.04 61.96 61.45 61.01 59.50 59.51 59.61 59.62 59.94 59.94 60.03 59.09 59.42 58.47 55.05 54.84 54.83 54.74 54.70 55.21 55.74 55.76 54.69 55.19
49.44 52.29 54.36 55.39 56.10 56.69 58.77 60.64 60.11 61.17 61.55 61.22 60.47 59.86 60.01 60.16 60.27 60.18 59.40 58.21 58.06 57.70 56.77 55.86 55.65 55.34 55.19 55.53 55.84 54.84 54.66 52.60
49.36 55.88 56.11 56.67 57.11 58.86 60.41 60.73 60.65 60.20 60.61 61.81 61.29 59.86 59.92 59.10 59.17 58.48 57.78 58.16 57.58 56.45 55.63 55.34 54.94 54.93 55.78 56.36 56.44 54.94 53.90 53.65
54.66 56.67 55.64 57.80 58.20 57.74 59.86 61.27 61.34 61.41 62.09 61.76 61.73 60.97 60.50 59.35 59.64 57.00 59.80 59.47 58.53 57.42 55.92 55.47 55.01 55.09 57.36 58.61 57.84 57.36 56.84 56.91

GFSFLT2_sfc_wetblb_120.txt.gz
Wetbulb
56.69 57.53 57.13 53.60 51.87 54.57 50.08 50.81 48.21 51.12 55.45 60.01 62.05 61.92 63.64 64.27 64.02 64.58 66.51 68.45 69.56 70.33 71.61 72.24 72.86 73.21 73.69 73.74 74.16 74.32 74.53 75.35
55.32 59.36 59.23 57.77 58.68 50.73 50.62 43.79 43.19 48.08 50.80 52.40 57.32 60.15 62.44 63.35 63.33 63.53 66.08 68.24 69.67 70.24 71.53 72.71 73.20 73.55 74.11 74.22 73.96 74.27 74.60 75.06
53.45 53.86 52.19 55.02 54.31 54.72 53.77 51.90 44.73 44.24 49.27 57.68 58.57 61.12 62.46 63.35 64.87 64.70 65.69 66.35 69.28 70.28 71.86 72.70 73.27 73.57 73.91 74.09 73.98 74.24 74.52 75.22
49.72 54.14 54.63 53.80 54.43 54.55 49.63 48.22 51.73 50.47 48.20 60.34 61.57 62.41 63.61 63.91 63.17 64.91 66.58 66.97 66.66 70.52 71.65 72.11 72.53 73.04 73.84 74.29 74.04 74.62 75.06 75.44
47.33 51.41 54.29 52.15 54.43 55.52 54.46 53.91 45.30 46.31 48.58 60.08 62.07 62.56 63.92 64.00 65.48 64.83 66.43 67.57 66.82 67.62 70.83 70.77 69.39 72.78 73.55 74.28 74.43 75.07 75.33 75.27
44.12 47.40 49.91 51.21 52.91 54.87 54.33 49.76 48.74 49.47 51.85 54.92 59.82 61.57 63.53 64.15 65.89 65.28 65.30 66.02 65.68 65.61 67.80 68.96 69.38 69.50 73.55 74.11 74.89 75.28 75.08 75.19
49.18 49.67 51.87 51.69 51.66 52.92 52.57 52.93 49.82 51.03 52.34 56.73 60.06 60.58 64.44 64.86 65.53 65.59 66.06 66.71 67.14 65.73 65.49 67.37 67.88 69.97 72.57 74.01 74.77 74.85 74.25 74.61
48.27 50.14 51.26 50.02 51.31 52.25 53.31 54.26 54.49 55.14 54.95 62.09 62.38 62.74 64.96 64.68 64.60 64.41 65.44 66.51 68.52 67.69 67.89 66.48 67.85 69.03 70.30 73.29 74.11 74.53 72.80 71.84
46.00 48.98 49.76 46.65 49.97 51.65 52.74 54.75 54.40 52.09 57.27 61.53 61.65 60.50 61.36 64.86 65.62 65.37 66.11 67.26 67.27 68.86 68.98 68.85 67.83 68.50 68.79 71.77 73.50 73.35 70.84 71.52
46.48 46.68 40.04 49.80 54.63 54.15 52.73 53.95 55.99 56.45 58.93 60.81 59.55 59.99 61.47 64.66 64.40 63.98 64.96 66.75 67.88 68.76 69.47 66.93 67.86 69.78 69.71 69.78 71.17 72.84 71.04 70.28
45.19 44.04 46.43 49.54 52.78 52.66 51.87 50.80 55.01 55.75 59.78 59.81 59.63 61.88 59.43 61.33 62.09 61.83 62.60 63.33 63.59 64.64 66.94 68.52 67.92 68.10 67.81 67.70 67.94 68.06 68.50 69.84
46.20 41.97 39.49 50.03 54.95 56.76 55.87 48.30 57.14 58.93 61.11 61.14 62.20 59.20 58.03 59.25 60.38 60.35 60.67 61.27 61.86 62.58 64.37 65.16 65.62 69.41 68.57 67.13 67.79 68.15 68.40 69.94
45.55 44.85 46.45 53.33 55.51 57.00 47.36 51.03 59.93 61.89 62.96 62.29 59.70 60.53 59.84 60.66 60.17 60.45 60.46 60.29 60.86 60.28 60.17 61.75 63.79 67.43 68.10 69.10 68.23 68.46 68.91 67.25
48.75 45.58 42.29 55.34 55.18 51.60 56.24 60.71 61.77 63.17 63.38 59.12 60.37 62.18 61.36 60.39 59.95 60.00 59.69 60.37 60.52 58.98 58.69 59.24 60.88 61.01 59.87 60.69 63.77 65.81 65.45 65.33
50.01 50.32 56.23 58.39 57.32 59.27 59.92 60.30 62.68 62.45 62.60 63.46 61.65 61.65 61.73 60.32 61.09 61.50 61.07 59.68 58.89 57.45 56.44 56.29 57.48 58.02 57.14 57.62 60.79 61.23 60.35 59.57
52.23 55.71 56.42 58.24 59.13 59.89 61.94 62.30 64.26 62.67 63.61 62.58 60.67 60.36 60.11 60.62 60.91 61.08 61.71 61.27 60.13 60.08 57.74 55.49 56.13 56.18 56.30 56.70 57.16 56.73 56.14 56.06
52.29 55.78 57.92 58.79 60.63 61.48 62.37 64.29 64.20 64.01 62.90 62.31 60.94 60.83 61.83 61.98 62.43 62.32 61.45 61.14 61.70 60.06 59.25 57.92 57.62 57.61 58.09 58.05 57.94 54.82 53.84 53.10
51.08 55.79 58.66 59.29 61.38 62.90 62.87 62.79 63.44 63.35 62.51 62.88 62.58 61.27 61.76 60.93 60.80 60.36 59.51 59.79 59.32 58.54 57.98 57.40 57.77 57.91 58.97 59.26 59.27 57.85 56.75 56.24
56.68 59.44 59.34 60.70 61.59 62.09 62.87 63.28 63.20 63.90 63.45 62.16 62.46 61.84 61.43 60.87 61.63 59.14 61.11 59.91 58.81 58.21 58.76 59.47 59.92 60.11 60.57 61.84 61.97 60.21 58.56 57.94

GFSFLT2_sfc_wetblb_123.txt.gz
Wetbulb
55.26 55.55 55.02 53.62 51.34 54.63 50.70 51.62 48.82 52.77 55.31 59.40 60.67 60.01 63.28 64.31 66.36 65.13 67.47 67.87 68.28 69.10 70.51 72.78 72.86 73.42 74.23 74.34 74.56 74.81 75.01 75.84
54.14 56.22 57.31 55.17 58.19 50.92 50.98 44.95 44.50 49.11 51.03 54.55 56.99 57.32 60.75 62.99 64.89 66.82 67.69 68.66 68.77 68.86 69.73 72.05 73.04 74.27 74.38 74.78 74.58 74.79 74.69 75.08
53.91 53.42 53.03 54.19 52.65 53.59 53.69 52.57 46.53 46.55 50.82 54.18 58.20 60.00 62.69 63.35 64.68 65.92 66.21 67.35 69.57 68.00 70.15 72.18 73.41 73.83 74.45 74.52 74.79 74.54 74.69 76.43
51.13 54.86 56.14 56.19 54.55 55.11 49.81 49.00 49.36 49.19 48.62 58.19 61.14 60.11 63.25 62.87 64.37 66.06 67.86 68.05 68.64 70.36 70.02 70.92 73.22 73.78 74.08 74.64 74.52 74.71 75.45 77.15
48.21 51.27 54.89 52.36 53.29 53.62 54.70 54.33 51.27 48.87 51.70 58.83 61.50 59.87 62.68 64.26 67.09 65.38 67.79 67.87 68.17 69.40 69.71 70.62 73.39 73.89 73.72 74.55 75.00 74.72 75.99 74.79
43.86 47.38 51.51 50.79 52.94 54.24 52.37 50.22 50.40 51.61 52.34 55.06 56.37 61.31 61.53 63.55 66.39 65.82 66.62 67.00 66.57 67.09 67.89 72.35 73.81 75.10 75.27 74.80 75.20 75.55 75.04 74.69
49.76 49.51 49.73 49.81 51.78 48.21 46.53 52.77 50.38 52.10 52.35 56.46 53.76 60.48 63.32 64.83 66.21 65.85 64.77 65.27 65.86 66.29 66.02 68.93 71.99 73.17 73.72 75.46 76.02 75.78 75.40 75.09
48.97 50.70 50.13 48.41 51.26 50.35 51.56 53.79 52.32 54.70 52.99 61.95 64.54 65.27 65.36 64.94 65.43 65.27 66.29 67.47 67.71 68.10 67.65 66.80 69.51 71.79 72.25 71.35 75.30 76.30 76.10 75.56
47.06 50.46 50.36 47.77 50.28 51.06 53.18 53.96 52.44 50.45 56.54 59.22 62.23 62.49 62.48 64.12 66.24 64.08 67.28 67.64 68.59 69.18 66.63 67.52 67.63 70.45 71.92 71.92 72.85 74.22 74.70 74.87
46.79 48.87 41.94 51.00 52.43 51.41 52.27 53.63 53.10 54.02 57.63 62.49 62.57 61.55 60.70 61.57 62.90 63.54 64.80 67.17 65.28 68.16 69.63 69.06 68.59 69.19 70.13 70.35 70.38 71.52 73.68 73.79
46.54 46.55 49.36 50.50 52.41 52.68 52.74 52.19 55.80 56.02 57.57 63.17 63.10 60.95 58.13 60.59 61.29 60.63 61.33 62.55 63.18 65.65 68.72 67.85 67.87 68.64 67.65 67.89 68.62 68.77 70.55 71.69
48.18 43.74 38.61 50.25 50.19 52.82 53.04 49.41 57.52 58.17 57.78 60.10 62.93 58.98 57.54 59.76 61.94 61.52 60.57 61.06 61.34 62.67 65.45 67.42 68.32 68.32 66.74 66.31 66.97 66.51 67.65 69.02
47.74 46.15 48.75 54.98 56.64 58.18 48.02 50.76 59.17 60.02 59.59 63.38 60.22 60.87 60.78 61.78 61.31 61.16 60.74 60.49 60.53 59.93 60.54 61.48 64.37 68.68 67.96 67.74 67.00 67.76 68.53 67.62
49.73 46.35 43.95 57.38 56.37 51.49 57.50 60.17 60.78 62.66 63.62 61.82 62.93 62.77 61.39 61.76 61.48 61.42 60.77 60.70 60.13 58.18 57.62 58.97 61.30 62.04 62.00 62.83 65.29 67.24 66.31 66.64
51.79 50.63 58.29 59.87 58.12 60.76 61.25 61.46 62.70 63.94 63.71 63.97 63.01 62.67 62.76 62.05 62.01 61.69 60.17 59.55 59.90 57.41 55.99 56.82 57.90 59.16 56.90 58.99 60.92 61.80 61.89 61.10
53.54 55.26 57.30 59.11 60.73 60.88 62.40 63.05 65.49 65.64 65.37 64.07 63.32 63.42 63.09 63.28 62.53 61.68 61.06 60.57 60.54 58.43 56.43 55.67 56.61 56.88 57.38 58.18 59.16 57.86 58.02 58.59
53.92 55.58 57.88 59.59 61.21 63.07 63.74 64.40 64.70 65.41 64.87 64.04 63.66 63.13 63.08 62.42 61.90 61.45 62.02 61.27 61.45 60.52 58.50 58.19 58.71 58.61 57.90 57.14 57.16 54.72 54.59 55.98
51.51 56.53 58.83 60.08 63.13 64.56 63.68 63.00 63.82 63.90 63.53 64.34 64.28 63.20 63.45 61.49 61.38 61.59 61.86 61.50 60.03 58.71 57.74 58.35 59.00 58.85 60.75 60.83 60.92 58.87 57.08 56.48
57.22 59.04 61.28 62.26 63.70 64.57 63.67 63.57 62.94 64.01 63.91 62.79 62.95 62.28 61.64 60.40 60.22 57.83 59.77 59.72 59.36 59.42 60.10 60.40 60.84 61.12 62.15 62.68 62.89 62.03 58.51 60.64

GFSFLT2_sfc_wetblb_126.txt.gz
Wetbulb
53.99 54.29 52.99 51.56 50.51 53.22 48.66 50.38 47.67 51.12 56.29 60.10 60.34 59.26 59.88 63.61 66.55 67.17 68.26 69.00 67.52 69.67 69.64 70.02 72.76 73.05 73.25 74.41 74.77 75.38 74.74 75.54
54.07 55.40 55.60 52.88 56.29 50.70 50.33 44.43 43.13 48.32 51.11 51.40 56.02 58.37 62.44 63.33 64.66 65.68 68.90 69.48 66.99 70.10 68.07 71.20 72.81 72.22 74.23 74.86 74.51 74.95 74.86 74.94
53.73 52.45 51.74 53.13 51.36 53.14 52.50 51.45 46.24 45.50 48.19 57.23 57.31 59.61 62.10 62.76 60.94 66.20 67.14 68.98 69.48 68.94 68.00 68.31 71.30 73.83 74.25 74.21 74.66 74.64 74.80 75.40
50.92 55.02 56.30 54.51 52.73 54.16 48.37 47.79 50.83 49.98 49.74 59.86 60.51 60.38 63.63 59.91 61.53 66.05 65.40 64.89 68.01 67.41 68.01 68.39 69.91 72.48 74.00 74.08 74.62 74.65 75.06 76.13
46.49 50.78 54.24 52.42 53.16 53.62 53.74 52.73 49.91 47.46 48.74 59.97 60.50 61.02 62.25 62.64 63.45 63.01 65.94 63.71 68.50 67.72 67.04 68.15 68.19 71.21 73.65 74.55 74.58 74.86 75.19 74.97
43.41 46.98 49.37 49.53 52.01 53.64 52.61 48.69 49.65 49.70 51.34 56.44 59.06 58.80 60.91 63.39 64.23 63.78 66.53 67.23 69.31 69.25 68.83 68.26 68.32 70.14 72.73 74.41 75.33 74.86 74.78 74.56
48.94 49.79 49.60 48.72 48.62 50.01 51.37 51.77 48.66 51.25 51.61 55.44 57.66 58.07 61.85 64.86 66.99 65.67 65.65 66.43 67.83 68.20 68.89 68.67 70.45 69.88 71.40 74.08 75.17 75.10 74.28 74.33
48.46 50.03 49.70 48.19 49.79 49.66 51.61 52.19 51.19 52.31 51.72 59.23 58.00 57.15 58.63 63.82 66.13 66.17 65.50 66.50 67.17 66.92 67.16 67.67 66.80 68.71 67.59 71.39 71.48 73.71 74.55 74.24
46.51 50.41 50.38 47.13 50.24 51.37 52.52 53.92 51.77 49.10 54.58 58.96 52.74 53.21 54.26 61.64 63.78 63.61 63.37 63.59 64.33 67.83 66.16 66.56 66.59 69.02 65.63 68.68 73.93 71.77 73.72 75.25
46.49 48.38 40.72 50.25 55.17 54.43 52.53 53.42 53.93 54.53 56.58 59.74 58.30 59.50 60.17 61.60 61.29 61.16 62.31 62.24 61.61 65.88 67.18 68.69 69.58 69.28 70.80 72.45 73.28 73.07 70.05 70.61
44.98 45.00 48.76 50.99 52.81 51.83 50.76 50.87 55.91 55.54 56.85 57.58 58.80 59.88 58.15 61.62 61.21 61.19 61.61 61.36 61.54 62.45 65.31 68.08 67.97 67.88 68.23 70.36 71.62 72.35 71.30 71.05
47.38 43.12 41.15 50.98 54.66 55.98 55.02 46.35 55.02 58.06 57.17 56.90 55.80 54.35 57.13 61.13 61.53 60.51 61.05 61.70 61.61 61.27 61.92 63.09 65.53 67.99 66.75 66.11 66.71 67.24 67.95 68.51
47.17 45.20 48.15 54.68 54.15 57.80 47.36 50.30 55.40 55.22 55.53 55.87 57.61 61.70 60.54 61.17 60.89 60.96 60.63 60.20 60.33 59.95 59.63 59.73 62.47 67.59 65.84 65.55 64.87 66.65 67.42 67.40
49.55 46.76 44.55 58.25 56.23 52.26 57.76 58.37 54.71 53.86 51.65 54.52 61.03 60.37 61.12 61.42 61.06 60.54 59.79 59.26 58.69 57.46 57.25 58.29 59.91 63.25 64.10 61.93 66.75 66.81 66.25 65.89
50.80 50.56 58.65 60.05 58.82 59.93 60.00 60.14 57.73 53.97 52.77 59.74 61.83 61.47 61.13 61.46 60.54 60.20 59.13 58.00 57.88 57.13 57.08 57.55 57.87 58.91 59.11 60.24 61.89 62.95 62.32 61.68
53.17 52.02 55.72 58.84 59.99 60.83 61.23 58.28 59.97 58.87 62.06 63.41 61.58 62.23 61.69 61.38 61.36 60.80 60.03 58.29 57.51 56.43 55.49 56.12 57.24 58.53 57.77 59.19 60.76 61.10 59.86 59.40
54.07 56.38 58.91 59.81 61.21 61.15 62.96 64.02 64.02 64.17 63.87 62.77 62.93 61.79 61.68 61.70 61.78 61.20 61.39 61.37 60.24 57.89 56.69 56.46 57.19 56.36 57.62 57.24 57.64 57.70 57.96 57.59
52.06 58.35 56.95 56.98 59.41 62.42 62.46 61.51 60.53 61.79 62.59 63.64 63.60 62.66 62.19 61.62 62.90 61.55 60.43 58.92 58.06 58.62 58.32 58.19 59.59 60.14 60.50 59.87 58.31 57.54 57.04 57.42
57.22 61.30 61.64 61.14 61.71 62.76 63.11 63.45 63.47 63.48 63.94 62.64 63.18 62.27 61.21 60.30 61.49 58.16 59.69 59.36 59.57 60.00 60.19 61.32 61.62 61.94 63.11 62.79 61.45 60.34 56.87 56.09